GFSCGP_850_rhum_000.txt.gz
RH
25 18 24 22 23 22 24 23 19 15 17 23 18 17 14 12 13 14 19 20 21 23 27 30 36 34 28 27 21 18 18 16 17 27 37 37 38 42 47 44 34 41 45 46
22 26 23 23 22 23 22 23 20 18 18 23 21 19 13 13 14 18 20 20 22 24 28 32 35 38 34 32 30 32 31 26 23 32 34 32 34 36 37 43 52 52 45 48
25 25 23 23 22 24 22 25 23 25 22 18 21 13 13 14 17 20 21 24 26 26 27 31 34 38 42 40 39 36 33 33 32 26 28 30 30 32 39 39 41 48 49 54
23 25 25 23 24 25 26 24 25 27 28 22 24 19 15 15 15 15 20 21 22 24 27 31 32 36 42 44 43 40 34 33 32 20 31 26 30 29 30 35 38 42 48 47
27 26 25 24 27 26 26 26 27 30 30 29 26 27 17 18 16 16 17 20 22 25 28 28 31 34 38 43 46 31 35 36 34 30 20 39 40 36 39 43 42 49 37 28
24 27 25 24 24 26 25 27 27 31 32 41 28 27 19 18 19 18 17 21 25 25 27 25 23 24 32 40 36 32 32 38 39 29 23 23 25 40 40 44 46 44 47 46
22 25 26 28 27 27 28 31 44 43 41 35 29 32 23 19 18 20 22 24 26 28 30 30 30 31 30 36 34 31 30 40 40 31 27 27 29 51 48 48 44 43 45 48
36 31 24 30 31 36 31 33 47 78 46 39 27 36 19 18 20 22 26 26 28 29 30 32 32 33 34 30 38 41 37 33 41 34 32 34 34 44 46 35 32 33 34 30
44 36 31 30 34 33 37 41 34 46 58 56 34 26 22 18 20 23 23 26 28 31 33 34 33 30 30 36 35 40 37 39 42 33 33 34 33 32 33 31 28 34 31 39
42 54 38 33 35 33 36 31 50 48 84 71 32 31 27 23 23 22 24 26 31 35 36 37 38 38 39 42 41 44 33 35 37 34 33 33 33 33 31 28 27 27 26 31
39 51 45 39 36 43 43 46 38 40 48 67 66 40 23 26 25 26 26 29 33 35 38 39 40 40 42 46 40 34 31 36 37 34 34 33 33 30 29 30 31 39 40 36
44 54 66 49 36 36 40 45 42 59 56 56 72 61 27 26 26 30 30 30 33 36 38 39 44 46 45 44 39 37 39 42 34 33 31 33 29 31 32 44 42 49 58 62
48 64 72 46 39 40 42 40 42 48 72 80 92 57 24 24 25 27 29 31 35 37 39 42 48 47 42 46 45 46 44 36 31 34 35 37 34 36 56 60 59 60 64 67
51 58 68 63 46 41 54 47 44 54 92 76 65 52 38 33 31 28 30 34 38 40 43 51 56 45 43 46 46 46 40 31 43 54 43 37 51 42 52 52 45 48 56 53
56 76 56 54 50 52 55 55 52 58 59 83 63 49 39 35 32 33 35 38 42 44 55 58 54 45 42 44 44 38 42 47 64 59 46 52 44 39 44 48 39 44 54 53
54 80 77 83 59 58 67 57 55 53 52 50 51 52 37 35 33 33 37 41 44 54 62 61 56 45 39 41 42 55 59 72 68 46 52 50 40 47 46 35 46 54 52 52
72 87 99 95 60 78 98 78 56 46 43 49 61 47 34 33 34 39 44 48 64 61 69 92 56 42 38 43 58 65 73 70 50 52 52 42 47 44 38 39 54 51 53 55
94 99 95 98 98 95 37 29 31 39 40 38 37 39 35 34 42 62 63 64 70 77 92 92 61 45 49 65 65 84 72 66 58 52 40 49 46 42 40 52 52 52 56 60
66 95 99 100 86 57 43 34 42 48 49 34 36 36 41 55 72 78 60 68 77 94 97 76 83 77 82 87 97 84 69 54 51 42 50 44 44 42 49 53 54 58 64 73
65 83 99 100 98 82 47 34 37 37 58 39 42 53 68 74 94 70 63 83 98 99 96 94 99 99 99 98 87 62 54 50 55 48 45 59 42 48 55 55 57 63 69 85
100 100 99 97 98 76 41 40 45 77 65 55 54 57 62 66 67 78 84 92 97 96 98 99 100 99 96 82 65 68 53 55 46 52 57 43 49 58 57 56 63 67 88 100
81 99 100 100 100 91 41 43 66 51 57 53 57 64 66 70 88 87 97 100 97 98 100 99 85 88 81 84 71 56 50 49 53 54 46 51 60 63 56 63 70 86 100 97
94 81 76 63 64 39 44 51 56 56 57 59 63 66 71 94 90 100 98 100 99 100 98 92 90 86 81 57 50 52 48 50 53 48 52 65 69 62 60 69 87 96 94 100
67 62 82 82 62 51 51 56 58 60 63 63 73 83 99 99 99 99 100 94 97 100 99 91 83 66 58 48 42 47 48 52 51 51 65 74 69 47 62 80 87 95 100 100
74 81 92 91 78 61 60 56 57 64 66 71 76 90 99 99 98 99 92 97 100 98 99 87 72 61 55 49 48 50 54 53 53 64 77 78 59 47 72 91 98 100 100 100
91 87 93 88 58 63 68 60 57 62 70 77 91 93 98 100 99 95 98 100 100 97 94 80 63 50 56 51 53 58 54 51 65 77 89 63 34 60 92 94 100 100 97 94

GFSCGP_850_rhum_003.txt.gz
RH
15 15 17 16 17 17 17 18 17 14 14 18 17 15 11 9 9 10 11 13 14 14 15 20 26 31 34 33 36 34 35 35 36 34 34 35 40 42 42 42 46 50 43 49
18 20 18 17 17 17 16 18 17 15 14 17 17 15 10 10 12 12 14 15 17 18 19 22 26 32 36 36 36 33 33 35 38 32 34 33 34 34 38 40 48 56 52 51
17 20 18 17 16 19 16 21 21 22 19 15 16 13 11 12 12 14 16 18 18 20 19 22 27 30 36 40 39 37 32 33 36 34 31 35 38 38 37 38 44 51 57 56
18 19 18 18 18 21 21 20 22 24 24 22 16 17 13 12 12 12 15 17 19 21 22 23 26 27 33 39 42 41 37 34 34 37 35 31 32 31 30 30 32 34 42 52
24 18 18 18 22 22 24 22 25 24 27 24 19 20 13 13 13 13 14 17 19 21 22 24 26 27 29 34 42 45 43 39 35 34 38 34 35 38 36 37 40 45 49 52
16 18 19 20 21 22 22 24 21 24 26 35 24 22 15 14 14 14 14 17 21 22 25 26 26 28 30 34 42 47 47 44 38 38 38 41 36 39 40 39 44 48 46 46
18 19 19 23 24 23 24 27 40 40 35 34 22 27 19 14 14 14 16 19 21 24 27 28 29 29 29 31 36 44 47 46 42 39 41 44 47 50 51 52 50 47 46 48
28 31 20 24 28 34 31 31 47 66 42 36 23 27 18 13 14 16 19 22 24 25 30 31 32 33 33 32 34 38 40 42 41 40 43 48 52 57 57 51 46 38 43 49
38 30 24 25 29 28 32 40 31 45 42 55 34 20 16 14 15 18 20 21 23 28 31 34 35 36 36 37 38 39 41 43 41 40 42 52 60 60 50 45 51 43 48 46
38 48 30 29 30 28 33 30 47 48 85 63 34 31 26 20 18 17 20 23 27 29 31 34 36 37 41 42 42 42 46 44 46 42 47 62 62 54 41 42 47 42 47 53
36 48 42 34 33 34 36 39 37 34 42 66 61 38 22 24 24 23 22 25 27 29 33 35 36 38 43 46 46 45 46 48 51 46 56 61 60 55 44 41 50 56 51 50
42 48 63 45 29 27 30 36 36 54 54 51 60 58 24 24 23 24 25 25 28 31 34 37 39 44 46 46 43 43 47 50 46 52 58 60 56 42 51 55 58 57 58 55
40 54 66 38 34 32 35 30 32 38 50 69 90 60 21 21 24 25 24 27 30 33 37 39 41 49 50 46 42 44 47 50 49 52 56 56 54 59 66 63 60 60 58 57
48 52 60 65 48 39 47 40 36 41 79 66 61 49 35 29 27 26 28 30 32 34 38 40 46 51 59 50 43 45 48 51 48 49 50 58 64 64 62 63 65 63 62 60
50 68 52 47 41 40 41 42 40 41 44 61 50 41 33 29 27 29 31 34 36 41 42 45 57 67 76 53 43 45 46 49 50 56 63 76 71 66 67 65 64 65 63 59
46 79 68 79 54 47 53 43 40 39 38 38 39 40 27 28 30 31 38 41 47 47 46 54 72 85 74 51 44 44 44 50 64 76 82 70 68 67 63 64 65 61 56 52
66 90 95 88 56 76 94 69 50 42 33 34 45 37 28 30 33 39 45 49 51 56 59 69 86 85 71 57 46 46 56 76 99 78 74 69 65 64 65 63 60 54 52 54
85 99 97 99 98 92 36 28 28 33 30 30 30 29 34 40 45 51 55 59 85 86 71 84 92 82 71 69 60 70 99 92 83 79 66 60 59 62 64 62 53 51 54 58
44 90 100 100 78 57 47 31 36 44 45 32 35 39 43 52 56 69 62 82 86 83 91 83 87 88 80 98 100 100 99 88 68 56 56 57 60 67 59 52 53 57 61 63
48 79 99 99 99 90 41 32 35 34 52 42 46 47 59 68 89 78 81 86 92 85 81 81 92 91 98 98 95 93 75 58 56 57 58 62 63 58 53 56 60 61 62 67
97 100 99 96 96 69 40 32 39 69 59 52 53 55 63 65 69 77 92 88 80 81 81 91 95 99 99 98 84 64 62 61 53 55 64 63 58 54 60 61 60 60 69 88
70 99 100 100 100 94 33 36 73 64 56 51 56 61 70 78 84 89 93 93 81 80 87 89 98 98 93 89 79 61 50 50 52 62 64 60 59 65 63 60 61 70 81 84
72 60 70 61 61 38 40 43 47 48 50 67 75 63 80 85 82 90 95 87 80 97 84 98 100 99 93 70 58 50 53 48 54 64 63 64 72 71 62 62 71 77 76 90
76 62 73 73 54 46 45 53 57 61 71 59 66 65 69 74 85 94 92 82 86 89 98 99 100 88 69 59 56 52 52 54 58 67 70 77 78 69 67 74 74 75 89 98
71 73 80 76 59 56 63 65 52 63 62 59 67 70 72 82 81 98 94 80 89 98 98 99 90 74 59 58 60 60 56 58 59 74 80 85 80 77 80 83 80 87 96 99
75 78 88 95 72 72 62 49 48 54 66 68 64 53 51 59 80 93 92 96 98 99 98 97 73 62 56 58 63 68 66 59 56 66 95 91 74 82 87 83 83 91 96 90

GFSCGP_850_rhum_006.txt.gz
RH
12 18 18 16 16 15 14 16 16 15 12 15 17 16 13 9 9 10 11 12 13 13 13 14 19 23 26 31 33 35 34 36 36 38 38 37 40 42 44 43 43 47 49 47
13 21 16 14 13 14 13 15 19 17 15 18 18 16 12 10 12 12 12 14 16 17 18 19 22 25 29 34 35 36 36 35 36 38 36 35 35 38 40 42 43 44 44 48
14 20 14 14 15 18 15 22 23 24 20 15 16 13 13 11 12 14 16 17 17 19 20 21 23 26 29 33 38 38 38 35 34 36 36 34 34 34 36 37 39 44 40 53
16 15 15 16 16 19 22 19 23 25 26 29 19 22 12 12 14 14 15 17 19 20 21 22 23 25 27 30 34 39 40 38 35 34 35 35 33 35 35 32 31 35 42 51
24 18 15 17 19 19 24 22 26 24 26 26 20 20 14 12 12 13 15 16 19 21 23 25 25 26 28 29 31 36 39 40 40 37 35 35 35 34 34 36 35 35 39 43
13 15 16 18 18 18 21 24 23 21 26 46 24 23 21 14 14 13 13 16 20 22 25 27 28 29 29 30 31 32 39 41 41 39 38 36 36 36 39 39 39 40 44 47
18 17 17 20 24 20 24 31 52 59 54 50 22 26 24 17 13 14 16 18 21 24 26 30 32 32 33 34 33 34 37 39 40 44 46 42 38 40 39 40 46 43 47 50
31 34 20 22 26 32 30 33 61 68 54 50 30 31 18 12 13 14 17 19 21 24 27 28 32 35 36 37 38 39 37 36 39 42 43 43 43 41 45 52 56 54 51 51
42 32 22 24 24 27 31 38 31 49 54 64 43 28 20 15 14 17 19 20 24 26 28 31 33 35 37 40 43 45 45 45 44 43 45 44 42 46 49 57 57 54 48 52
35 52 30 26 26 27 31 29 49 60 89 64 38 39 33 24 26 25 25 24 27 28 31 33 35 37 39 44 45 46 46 46 45 46 46 47 43 51 60 58 55 58 58 78
34 47 45 36 32 34 32 38 39 36 51 71 76 47 29 31 29 29 26 27 31 29 32 34 37 39 44 46 50 48 47 43 43 47 49 51 48 60 63 57 56 85 82 86
42 50 69 49 31 25 27 34 35 73 68 61 68 62 30 28 25 27 27 27 28 31 33 36 38 39 47 53 57 57 52 43 45 48 49 51 58 61 59 56 61 79 89 86
44 57 67 44 34 31 37 33 33 38 63 67 94 66 28 29 29 26 27 31 33 34 37 43 42 48 53 59 57 70 53 44 47 50 53 57 59 60 57 62 72 86 79 64
45 51 58 72 55 43 51 41 38 42 66 59 58 48 35 30 29 27 32 37 37 38 41 43 47 56 62 64 73 68 48 44 49 51 52 56 57 58 67 72 79 83 65 64
48 72 55 50 46 47 51 49 44 45 43 56 48 40 32 28 27 34 38 42 44 44 50 64 65 62 68 76 76 62 52 46 49 50 50 54 64 74 87 86 77 67 65 64
50 85 77 83 59 51 56 51 48 44 40 39 39 39 27 26 34 39 44 47 52 63 73 79 69 71 80 77 78 63 48 46 46 54 64 82 97 91 91 78 66 65 66 63
61 88 100 84 65 75 89 62 48 42 35 36 48 37 29 31 43 50 54 54 72 77 82 76 80 69 79 78 74 78 57 61 64 76 94 97 96 89 72 65 66 65 61 53
69 98 100 100 100 94 42 32 35 40 36 34 33 32 32 41 56 60 61 76 79 88 86 82 76 80 80 85 85 84 96 100 95 96 94 92 78 66 68 64 66 56 53 57
40 99 100 100 88 63 54 40 41 46 49 35 42 48 54 60 71 71 73 86 89 88 85 76 75 78 86 84 94 100 99 100 96 81 62 59 64 61 64 63 54 54 59 61
63 96 98 100 96 90 50 36 34 35 64 58 62 65 72 72 95 88 79 82 88 91 85 73 77 83 79 93 94 90 87 73 60 61 61 58 59 64 59 55 57 59 62 62
99 100 99 92 93 74 45 36 43 81 93 74 71 80 76 79 84 82 80 82 88 83 69 78 89 75 86 99 96 80 64 63 76 54 52 55 64 58 58 62 64 62 62 68
69 86 95 99 99 90 37 43 80 61 62 66 79 82 79 74 78 74 75 82 69 78 75 90 80 90 99 98 94 73 55 51 50 49 56 64 62 64 69 69 63 64 72 77
75 64 72 63 65 43 42 47 54 60 67 74 76 67 71 72 69 73 82 80 90 80 88 80 92 100 98 89 60 57 55 52 54 58 64 63 59 65 73 66 70 76 79 86
67 55 74 73 54 49 51 56 62 64 70 78 77 77 75 60 51 51 67 83 84 90 87 93 99 98 85 72 58 56 54 56 58 51 56 53 71 80 75 76 84 82 85 88
72 65 74 76 64 60 63 64 65 68 68 80 80 65 46 45 44 48 78 82 96 90 96 98 98 94 74 60 59 62 62 66 54 49 55 76 82 72 74 88 86 86 90 92
69 73 87 86 63 74 69 64 62 66 86 81 50 45 45 50 66 83 88 88 95 88 94 98 94 64 59 56 59 64 70 62 51 54 63 71 70 79 92 91 91 88 82 87

GFSCGP_850_rhum_009.txt.gz
RH
13 28 27 19 19 17 19 20 23 23 20 25 24 26 21 16 13 14 15 16 16 17 19 18 20 21 23 26 28 30 33 33 33 35 36 36 36 34 33 42 44 47 48 43
23 29 18 16 18 20 21 25 32 24 23 25 28 26 22 16 15 15 17 17 18 18 20 22 24 25 26 28 29 29 29 33 35 35 35 35 34 34 36 37 41 44 45 44
22 20 15 17 22 24 24 30 32 33 30 28 26 28 19 17 15 17 17 17 18 19 19 20 22 23 24 26 28 29 31 34 37 37 34 35 37 36 35 38 43 43 44 45
20 16 17 19 22 23 28 28 30 33 39 43 27 43 20 20 20 20 18 19 21 22 23 24 25 26 27 28 29 31 33 35 38 40 37 34 34 35 35 34 34 37 39 39
25 18 18 24 23 21 29 27 32 35 41 35 33 33 22 20 21 22 24 22 22 23 24 25 27 29 30 31 31 31 32 32 32 34 40 40 38 37 35 36 36 36 39 40
18 16 19 20 22 25 26 34 38 41 40 61 38 38 36 23 18 21 24 23 23 23 25 27 29 30 31 33 34 34 34 34 35 36 36 36 40 41 41 38 37 38 39 43
30 23 21 22 29 30 35 48 75 68 72 69 34 39 36 26 20 24 26 21 20 22 26 28 30 33 35 37 37 38 40 42 43 44 44 42 41 41 44 43 39 39 41 46
48 53 31 26 31 36 41 38 83 74 83 72 42 47 32 23 20 21 19 20 25 26 27 31 33 36 38 39 41 43 44 45 44 43 47 48 50 49 48 48 43 43 49 52
62 48 34 27 26 31 40 60 38 55 60 84 63 42 25 25 28 27 28 26 27 30 32 33 35 36 38 41 43 47 47 48 48 46 45 44 43 44 50 51 53 57 57 54
44 63 43 39 33 32 34 35 64 82 93 84 58 53 47 41 35 33 36 31 30 32 35 36 39 40 40 42 42 42 46 50 46 50 45 43 44 49 51 55 58 59 56 58
50 62 62 49 44 49 42 49 48 50 70 93 98 75 37 38 37 42 31 32 34 35 40 42 42 44 48 50 52 54 53 44 57 50 45 44 47 50 54 61 58 57 70 95
50 59 82 57 40 37 31 45 46 84 90 85 89 72 37 40 37 31 33 38 38 39 40 46 47 50 54 56 57 55 53 53 56 46 46 49 51 54 61 62 60 56 59 66
50 72 87 66 48 50 51 46 50 58 72 72 94 72 36 34 34 36 43 43 45 46 49 50 51 56 55 57 55 59 55 68 58 48 48 51 54 57 58 58 57 64 70 76
46 63 71 86 67 58 65 57 53 60 88 74 71 58 42 36 40 44 48 51 51 54 56 56 60 58 60 65 57 68 75 74 63 49 51 51 52 53 58 60 69 74 77 70
56 77 70 66 60 57 53 55 55 62 60 72 60 56 44 40 50 54 59 60 58 67 75 77 73 74 59 60 72 80 76 70 51 50 51 51 56 60 68 77 84 86 76 66
60 82 76 86 69 65 70 65 60 57 58 57 54 49 39 41 65 67 68 66 71 76 72 70 66 81 65 72 83 83 82 79 71 59 58 58 72 80 81 96 96 91 68 66
72 83 98 85 78 83 87 65 59 56 46 51 67 59 67 67 66 70 72 75 79 79 81 80 83 81 73 84 85 84 87 86 97 98 99 94 89 95 85 87 78 70 65 67
74 94 98 97 99 97 58 41 40 50 49 50 68 73 69 76 80 76 70 75 77 73 80 82 70 71 80 79 83 77 85 100 100 100 96 84 79 81 66 67 64 65 62 55
67 97 97 97 97 73 63 53 50 57 57 75 73 69 68 83 80 72 71 76 80 75 82 78 76 75 71 83 71 78 81 75 68 75 76 63 62 63 62 60 62 57 56 55
85 94 97 99 98 89 61 47 57 54 82 76 75 85 86 85 93 79 78 69 73 79 78 80 75 71 82 78 80 91 82 67 71 64 63 61 57 52 61 60 57 59 63 64
96 96 97 98 93 82 58 43 54 87 80 74 74 77 83 89 83 83 63 68 66 82 81 79 74 82 75 96 98 98 76 62 71 64 58 56 56 58 60 60 60 66 66 67
79 90 98 98 99 94 52 49 72 62 63 58 68 76 79 88 84 72 53 49 72 83 81 81 84 80 100 99 92 77 62 55 60 58 56 53 56 57 55 64 70 66 71 82
81 72 83 83 81 54 47 51 53 57 62 69 77 88 89 89 68 45 47 67 82 83 85 84 83 98 99 91 85 69 66 65 56 56 48 45 49 54 67 79 66 75 86 88
70 59 83 78 59 52 56 57 60 61 66 84 89 89 73 61 53 56 69 77 84 90 80 84 100 93 91 77 62 58 58 56 58 44 46 54 59 71 76 62 83 90 94 95
80 78 81 80 65 62 61 59 65 76 86 86 73 57 51 53 66 75 64 59 92 94 86 99 98 93 73 64 63 61 61 62 65 61 55 58 67 70 66 74 91 92 85 86
71 72 85 87 63 70 71 70 69 81 78 59 55 57 58 70 76 59 73 87 99 99 100 99 91 73 72 75 71 65 68 70 63 51 53 64 70 71 69 69 84 81 92 91

GFSCGP_850_rhum_015.txt.gz
RH
22 28 24 21 21 21 21 28 34 28 25 33 36 40 33 25 20 20 18 20 19 18 17 16 18 21 26 26 26 26 27 28 30 31 31 30 30 31 33 33 33 33 33 33
31 26 19 21 24 22 27 29 32 34 29 36 38 37 24 21 22 26 25 24 21 19 19 19 20 23 25 25 26 27 28 29 30 31 33 34 34 35 36 37 37 36 35 35
31 21 18 22 27 27 26 30 31 36 37 33 38 33 25 22 23 24 25 25 24 22 22 23 23 24 24 25 27 28 29 30 31 33 36 36 37 38 38 39 39 39 39 36
22 17 19 27 25 26 33 25 31 37 42 47 38 46 29 23 22 28 26 24 23 23 24 24 24 23 24 25 27 29 30 31 33 36 38 39 40 42 43 44 44 45 44 40
26 18 24 25 24 26 34 35 39 39 46 44 41 43 36 33 25 32 30 24 25 25 24 24 24 26 28 30 31 33 35 34 36 38 41 44 44 46 46 47 48 48 49 49
31 20 22 23 25 30 34 41 47 50 52 62 42 45 48 38 32 32 28 28 26 25 24 25 28 30 30 32 34 35 36 39 42 45 46 46 47 47 46 45 42 47 48 49
45 37 32 27 35 36 43 58 71 58 75 67 48 47 46 32 28 26 27 27 30 28 25 29 32 33 36 38 41 43 43 44 44 44 46 45 48 43 46 44 47 46 46 45
63 56 43 34 33 38 41 52 80 62 85 78 53 54 43 31 35 30 35 34 33 31 31 34 39 41 43 44 44 45 47 47 46 47 46 47 44 45 49 51 48 47 47 51
70 55 42 38 40 36 43 60 48 68 75 89 72 54 41 36 44 42 42 42 46 45 44 43 44 45 46 49 49 50 52 49 45 45 49 52 56 52 56 55 48 47 48 60
56 73 49 48 39 39 40 41 66 84 83 83 76 71 61 44 52 44 49 49 49 48 48 48 49 51 54 55 52 48 50 50 45 53 53 55 61 47 55 53 50 50 53 62
51 66 60 46 49 51 57 64 63 64 82 96 98 83 56 50 53 53 54 56 54 53 55 56 56 56 52 51 53 52 55 51 48 58 69 74 53 54 55 54 53 53 60 66
54 70 81 56 49 50 48 63 65 89 82 90 90 76 44 44 49 57 64 62 59 57 58 59 60 60 55 52 61 52 51 52 57 74 82 77 66 58 60 62 62 61 60 81
50 72 79 52 46 47 57 57 62 72 83 82 91 76 46 43 56 64 65 65 65 64 63 60 67 68 63 60 67 55 54 54 75 80 75 74 71 64 66 64 63 63 66 80
49 68 64 76 51 64 72 66 63 66 93 82 78 64 53 56 71 69 67 67 66 65 62 69 73 68 65 71 66 57 54 68 75 74 75 68 83 66 64 66 72 79 86 94
61 74 71 72 68 70 71 74 71 81 79 87 73 73 62 70 76 71 71 74 73 74 70 75 76 68 66 76 61 65 69 76 75 72 62 90 95 82 81 90 97 98 98 92
72 82 82 86 78 81 86 77 80 80 79 81 76 71 58 71 74 77 78 78 79 72 75 73 66 64 63 61 69 73 76 79 80 65 70 100 100 99 98 97 90 81 84 90
75 89 94 82 93 93 81 76 76 66 57 62 77 64 76 83 79 73 75 74 76 82 88 64 47 56 56 67 83 81 84 81 73 71 70 81 87 82 91 93 93 86 83 71
94 96 98 91 93 94 56 51 52 63 59 60 68 76 77 74 70 69 74 88 87 76 70 51 44 54 72 84 85 86 85 86 92 93 98 95 91 95 83 66 67 63 61 61
80 97 98 98 98 76 63 54 54 60 67 71 80 76 62 65 73 71 84 90 86 68 62 63 64 74 88 82 83 80 97 100 96 99 96 89 86 86 80 72 62 58 58 55
91 88 92 97 99 96 65 47 56 66 90 72 72 72 69 74 92 84 97 91 82 72 88 71 64 74 80 82 94 96 96 88 86 84 81 73 69 63 59 56 52 53 58 62
98 98 97 98 95 88 65 50 50 81 69 58 63 69 76 93 88 97 85 58 80 69 49 47 55 71 85 89 100 100 94 84 77 83 75 63 54 45 44 48 57 62 63 61
75 86 95 97 100 93 52 57 72 65 51 60 70 87 97 96 96 76 66 72 66 46 50 64 78 87 88 96 97 92 83 85 76 96 64 58 57 51 51 57 63 65 62 60
80 70 81 79 80 54 51 53 52 60 69 75 92 89 92 96 62 63 74 67 50 52 64 83 99 98 94 96 96 83 83 96 82 71 69 71 55 50 57 67 68 64 64 70
80 69 88 77 63 55 55 63 62 70 77 90 94 88 87 80 56 75 72 59 47 47 71 98 96 89 88 85 82 90 91 87 71 72 67 50 51 58 69 74 75 70 76 79
85 85 88 84 72 72 66 71 83 82 96 90 91 99 67 63 63 73 68 64 48 54 85 95 88 82 76 70 71 73 74 76 69 53 53 53 61 72 78 82 83 85 87 88
83 84 88 90 65 70 70 92 94 99 94 86 74 40 53 59 62 74 70 59 48 56 77 84 85 82 80 78 75 74 62 52 56 59 59 66 81 90 90 88 87 89 86 88

GFSCGP_850_rhum_018.txt.gz
RH
24 30 27 22 22 22 22 28 33 31 27 36 38 42 32 23 24 25 22 22 21 22 21 20 19 22 26 32 32 27 27 28 28 30 30 32 35 36 36 38 37 38 38 38
31 27 20 26 25 23 26 30 30 32 32 37 40 39 27 27 30 31 30 28 24 21 20 19 19 21 23 27 26 26 26 28 29 31 32 34 36 37 39 40 41 42 42 43
32 22 22 24 28 32 31 28 30 35 38 35 38 32 30 22 25 25 26 24 22 21 20 20 21 22 23 24 24 26 28 30 32 33 34 36 38 40 41 43 44 46 46 48
25 19 25 29 27 29 36 26 31 38 45 47 39 43 34 35 28 31 23 24 26 24 23 22 22 22 24 25 27 28 30 32 35 39 41 42 43 47 47 48 50 49 49 46
27 20 27 32 27 28 37 39 42 40 49 46 46 42 35 36 32 33 31 27 25 24 24 25 26 27 27 28 30 31 34 38 40 42 45 47 48 49 49 49 48 42 44 47
36 24 25 26 27 34 36 45 45 54 55 63 47 47 50 43 34 33 32 32 33 31 29 29 31 33 34 35 38 40 40 41 42 45 46 47 48 47 47 47 46 45 48 48
48 39 38 31 39 39 46 56 61 59 74 67 50 49 50 38 37 39 41 37 35 34 31 32 34 38 42 44 45 45 46 46 47 48 48 45 41 41 41 39 38 38 49 48
66 49 44 38 36 41 44 56 76 51 85 81 56 54 49 36 40 41 40 42 44 44 45 46 48 47 48 48 49 49 48 47 46 44 41 40 42 46 47 38 36 48 53 50
73 54 46 42 44 39 44 64 52 73 76 89 73 57 42 46 52 49 52 49 50 50 48 48 50 51 50 48 49 46 47 44 43 44 48 55 57 54 46 39 39 48 52 53
57 71 50 48 40 40 44 46 64 85 84 80 74 71 59 57 57 56 60 60 55 53 55 55 55 55 58 60 56 56 61 53 52 46 47 54 59 60 64 60 53 54 58 57
51 67 54 45 51 55 59 64 67 70 84 94 97 81 56 57 55 57 66 64 63 57 58 57 54 60 65 64 62 59 58 45 38 37 45 55 60 60 61 63 62 66 68 72
57 71 79 53 46 52 54 58 66 84 74 91 92 80 48 53 54 64 67 66 64 64 63 66 66 70 73 68 57 59 47 44 54 56 67 66 61 59 64 70 66 72 80 87
52 73 77 44 52 49 62 59 66 75 84 83 89 74 47 47 52 63 67 68 66 62 63 61 59 69 75 58 55 67 70 66 66 73 75 68 64 62 83 73 73 79 91 94
51 71 61 69 51 56 71 67 67 71 90 80 77 63 52 52 65 72 67 66 66 65 71 73 78 73 52 44 41 50 56 74 77 84 78 67 62 80 81 76 81 86 98 98
62 75 75 72 71 73 76 79 78 85 79 88 68 76 65 66 73 70 66 68 68 73 82 83 78 56 51 47 42 61 82 87 87 80 77 69 73 99 99 98 95 98 94 88
74 80 84 91 83 86 94 82 82 83 84 83 80 86 64 71 72 65 64 71 77 90 85 77 63 53 56 61 79 87 91 87 78 71 78 82 96 98 85 90 98 92 94 98
76 87 92 85 89 90 74 58 77 70 68 62 70 56 71 77 71 65 72 79 87 85 76 63 57 71 89 85 89 97 93 89 82 89 98 100 98 100 99 90 85 74 71 69
98 94 98 93 90 91 54 53 52 63 61 60 63 69 74 69 66 70 75 85 90 81 63 73 86 71 48 44 50 66 89 85 89 82 99 97 80 78 74 74 79 69 64 61
83 98 96 98 92 78 62 52 53 67 64 58 69 75 67 68 75 72 80 94 88 50 73 82 54 44 42 62 77 84 98 100 84 73 76 77 75 72 65 60 55 54 55 61
91 88 93 99 96 97 65 47 60 64 85 63 67 64 66 70 95 82 97 87 61 73 80 48 42 50 63 75 87 92 88 90 96 73 83 77 66 58 50 49 51 61 69 69
98 98 99 96 98 88 66 54 51 81 68 68 58 61 70 85 94 97 73 48 72 77 54 46 51 67 82 93 100 100 94 100 95 90 88 76 75 70 63 52 60 66 68 67
72 86 94 98 99 94 53 57 66 58 60 67 68 73 92 100 98 72 40 48 73 69 56 47 51 64 80 82 92 98 92 96 90 80 76 74 75 57 52 58 65 70 71 68
83 71 79 79 83 56 54 52 54 53 67 76 82 100 97 99 62 38 47 66 76 65 52 49 54 81 83 81 80 75 77 80 77 82 77 72 52 54 62 70 77 80 80 81
74 67 83 75 64 61 58 57 63 74 86 99 100 100 98 66 47 60 66 78 74 64 52 50 61 85 74 73 69 71 77 81 79 78 59 56 57 63 77 86 89 85 86 83
86 83 90 88 73 75 72 68 77 98 100 99 100 86 72 52 50 67 67 78 75 66 55 58 70 80 75 79 76 74 76 74 60 57 63 64 65 74 84 92 93 90 92 90
81 85 93 86 62 75 83 100 98 98 97 85 67 53 56 64 68 62 61 68 69 71 62 60 63 72 76 85 84 70 71 70 60 65 73 75 71 75 86 90 88 92 93 89

GFSCGP_850_rhum_021.txt.gz
RH
21 24 26 24 24 24 23 28 30 28 28 31 35 32 23 28 30 32 31 23 21 23 32 33 27 24 23 27 36 38 32 28 29 30 31 32 33 34 36 38 40 41 42 43
26 28 23 26 25 24 27 29 26 29 30 35 33 27 24 27 30 33 31 29 25 22 20 19 18 20 22 26 32 32 31 32 34 35 35 36 35 35 36 38 42 45 46 47
32 23 24 24 30 33 32 28 31 32 34 35 32 28 28 23 27 27 27 28 26 25 24 23 25 24 26 28 30 31 34 36 36 36 36 38 40 41 41 42 46 47 49 49
27 22 28 33 30 32 37 29 36 40 40 36 37 31 31 31 28 31 32 26 25 25 27 28 29 30 31 32 33 34 35 37 39 42 46 49 50 50 49 48 48 46 43 44
27 25 32 35 30 31 37 40 43 42 44 42 40 32 32 31 34 35 35 38 35 33 30 29 30 33 36 38 40 42 43 45 48 50 49 48 48 46 44 41 39 37 32 30
36 29 30 31 29 35 39 43 42 48 47 49 46 40 43 39 41 39 40 50 44 39 37 37 39 43 46 49 48 48 48 47 45 45 47 51 52 45 38 35 31 28 26 26
43 38 38 34 37 38 42 44 46 50 55 51 47 43 48 45 41 43 50 57 51 48 48 48 49 49 49 48 47 46 45 45 46 48 51 50 40 38 41 41 41 40 41 38
55 40 42 42 40 42 47 49 60 50 60 58 53 51 48 44 48 50 50 53 52 52 52 54 54 53 53 52 53 53 49 47 48 46 41 35 39 49 44 42 44 46 47 46
64 47 44 45 46 40 46 58 51 66 73 74 55 50 44 49 48 52 56 54 52 53 56 53 50 54 58 60 59 57 54 48 46 39 35 38 47 53 56 51 47 46 52 57
59 63 49 45 42 43 43 46 56 66 73 67 52 59 45 51 48 52 58 63 59 56 53 50 51 58 62 69 73 61 63 66 53 52 57 64 72 69 60 52 50 61 64 74
52 61 46 44 53 55 52 56 62 61 72 82 89 54 49 49 49 49 62 68 64 62 65 67 68 68 76 79 68 47 48 56 70 73 73 75 78 72 62 55 65 68 74 91
58 65 64 46 51 51 52 56 56 63 64 77 79 62 43 49 54 59 70 70 64 65 69 70 71 68 67 68 52 41 44 49 63 74 81 82 74 64 61 63 78 78 99 100
54 66 57 34 48 45 58 58 61 67 74 75 83 55 42 52 56 66 67 60 52 57 65 76 73 59 60 61 55 51 47 53 69 87 87 79 69 67 68 83 83 81 91 96
53 67 52 49 38 49 63 65 64 65 86 66 68 51 44 43 50 64 63 57 65 64 76 76 68 66 64 68 66 67 65 67 85 88 84 80 77 80 93 91 96 94 98 96
62 74 71 66 62 68 70 70 68 73 68 79 59 57 50 48 57 63 60 58 68 74 80 85 74 68 71 71 60 42 39 50 76 88 80 92 98 98 93 88 95 91 84 81
73 75 84 90 77 76 81 67 70 73 72 74 70 72 52 62 72 69 67 69 77 88 83 77 75 64 69 49 40 48 59 69 92 85 90 99 99 99 99 97 70 76 78 74
76 84 87 78 80 79 73 55 67 66 68 63 63 46 63 72 67 65 67 78 88 89 72 66 71 68 44 40 47 57 64 72 81 84 84 96 83 78 80 81 78 72 66 65
99 97 95 95 86 81 47 50 50 56 52 51 55 54 56 67 65 73 77 90 91 69 51 59 72 48 38 41 54 72 77 91 83 80 76 79 78 75 69 61 52 47 49 54
84 98 98 96 89 71 56 47 52 62 54 50 58 66 64 65 79 68 87 94 76 56 62 83 59 48 41 46 65 82 100 97 92 92 74 87 77 70 68 68 62 50 53 57
86 85 92 99 99 92 61 47 64 62 68 62 66 65 66 67 96 81 98 98 55 54 80 74 59 47 46 54 67 77 88 86 98 97 92 81 75 74 75 59 52 57 61 63
98 97 95 89 89 81 61 56 52 79 68 59 62 66 71 77 82 99 94 44 62 69 78 72 57 50 53 72 70 69 72 80 91 93 77 78 77 76 54 54 59 65 71 74
70 84 94 96 95 94 54 57 67 57 60 68 75 79 88 100 99 86 55 59 54 60 80 71 56 53 57 72 74 71 68 67 73 74 78 80 73 55 56 61 72 81 83 83
81 68 75 76 78 55 56 50 53 62 82 89 93 100 100 96 72 55 51 44 54 69 82 73 62 55 58 67 71 66 67 77 79 80 78 65 59 60 61 71 85 91 88 91
72 65 81 73 62 60 58 61 78 91 99 98 98 99 99 80 56 55 48 51 47 54 78 74 71 61 58 62 69 80 78 75 72 73 61 62 69 70 69 78 91 94 100 100
69 81 87 86 74 70 68 88 96 100 98 98 86 75 60 47 42 34 41 54 66 74 73 76 81 72 66 69 75 86 85 74 72 71 66 74 82 81 78 82 89 91 98 99
84 86 95 89 68 79 92 100 99 100 85 57 50 39 37 35 32 39 38 44 54 53 60 77 88 85 73 73 62 61 70 65 69 66 74 85 91 86 84 84 82 83 89 89

GFSCGP_850_rhum_024.txt.gz
RH
18 14 17 17 17 16 15 17 17 16 19 23 23 18 18 19 19 20 20 21 23 26 34 37 41 38 33 29 38 61 68 64 44 49 50 52 51 48 46 48 48 42 46 48
15 20 19 17 17 18 19 19 20 20 22 26 22 19 18 20 22 23 21 24 23 24 30 36 41 29 31 34 39 47 46 44 43 44 39 37 37 44 47 50 64 64 50 46
17 18 20 19 22 23 23 23 27 27 24 25 22 22 19 20 21 22 24 24 26 29 30 34 40 35 33 33 36 41 42 41 38 38 52 58 56 55 54 57 56 47 41 36
19 20 23 23 25 26 25 24 31 30 29 21 26 24 24 21 23 25 29 32 35 34 32 37 42 40 34 34 36 39 42 46 46 48 50 46 58 59 61 68 68 56 45 37
22 22 25 26 28 28 31 33 33 33 31 28 26 23 28 22 28 29 34 39 41 42 44 44 50 55 58 47 48 49 60 50 48 48 52 60 66 66 68 61 61 62 59 58
24 26 25 28 27 28 31 32 32 34 34 38 33 31 28 27 32 31 36 43 47 48 49 51 53 54 58 64 62 64 64 63 49 48 49 48 44 52 61 60 57 52 51 51
26 28 27 31 27 29 27 32 33 43 43 37 34 33 37 35 33 35 38 44 49 50 50 51 52 54 60 64 67 63 65 62 63 59 55 58 54 57 58 60 59 65 60 58
32 36 31 34 34 36 36 36 45 48 39 35 38 31 37 34 36 39 42 45 48 51 54 52 54 58 62 68 70 72 69 65 64 61 58 37 26 51 65 71 74 70 69 72
38 34 34 35 34 34 37 43 40 52 58 56 32 36 36 36 38 39 41 42 46 50 52 50 53 59 62 66 71 74 66 62 62 62 63 66 74 79 85 83 75 70 69 82
43 42 37 32 36 36 36 36 48 45 77 48 25 33 28 43 38 38 40 42 48 52 53 54 57 61 64 66 68 74 69 69 72 76 84 84 92 92 90 82 78 81 89 99
34 43 36 33 37 41 40 43 45 42 54 59 55 27 33 33 35 39 42 50 52 54 58 59 62 66 68 67 65 63 70 76 79 84 86 91 94 96 87 83 86 96 100 98
45 45 38 31 38 39 39 42 39 52 52 54 54 40 29 30 38 45 46 54 56 56 52 56 61 64 59 60 59 69 78 78 76 75 80 86 90 93 85 91 96 98 100 96
43 45 34 34 40 41 43 41 44 43 56 57 72 41 29 37 42 36 49 47 47 50 50 56 59 60 60 57 67 70 62 58 60 68 76 81 84 90 95 100 92 87 88 91
50 46 34 31 26 32 35 33 38 44 70 50 46 37 29 26 27 35 43 48 48 52 54 61 64 62 57 66 63 52 56 66 74 82 81 79 97 92 97 99 92 99 98 96
48 50 45 40 37 36 41 44 39 45 47 58 47 35 30 29 32 38 48 51 51 53 60 67 68 58 63 57 53 58 70 79 85 82 79 89 100 98 99 99 96 96 96 93
53 58 66 66 46 43 50 42 40 44 45 44 43 46 31 36 41 49 51 52 55 60 70 75 66 63 63 60 61 71 79 86 87 82 80 98 99 98 99 100 93 80 74 69
62 70 75 84 59 62 80 48 39 42 39 44 51 36 35 37 47 52 54 58 63 72 77 65 63 68 65 67 68 74 84 84 84 83 84 85 84 83 80 74 71 72 75 70
91 89 91 97 91 86 43 34 36 41 39 33 34 34 44 48 51 56 60 73 80 82 74 63 71 67 68 66 62 73 75 84 85 83 87 83 84 78 77 75 78 76 70 72
67 90 100 97 77 50 43 36 41 45 48 38 43 47 50 54 60 57 81 97 98 74 71 73 70 72 73 63 65 70 73 69 80 86 94 95 87 81 79 80 74 72 75 75
70 77 89 90 96 78 40 37 51 48 54 50 56 60 64 84 96 84 99 96 92 82 63 75 75 73 69 62 72 68 62 66 71 78 78 80 84 85 83 74 74 77 75 78
97 94 95 86 95 66 40 47 49 75 71 59 61 72 81 90 96 99 95 78 69 60 65 68 70 72 70 74 74 70 63 60 65 72 81 81 86 83 72 75 76 78 82 95
65 98 99 93 98 93 45 49 72 62 64 62 74 86 95 98 98 90 82 65 53 44 41 55 70 69 69 77 74 69 67 63 71 80 81 82 83 76 77 81 79 83 87 95
64 52 54 56 57 40 44 52 57 68 76 94 99 97 98 96 86 67 55 52 48 53 57 65 65 68 72 79 80 75 71 77 80 83 80 82 81 84 86 87 85 90 93 100
48 51 67 64 48 45 52 58 93 98 91 99 98 97 75 70 54 54 44 44 50 52 56 56 60 63 66 72 82 85 86 88 80 82 82 83 82 86 90 89 89 94 100 100
53 50 58 60 58 62 64 90 99 100 98 88 69 62 64 58 49 41 39 40 44 54 55 61 68 70 72 74 83 83 88 89 84 86 92 91 94 100 100 98 99 100 100 99
59 56 76 85 67 82 96 98 99 98 73 58 55 54 50 42 38 40 43 44 49 54 63 68 69 70 71 71 78 83 88 89 90 92 93 94 97 100 100 100 100 99 95 92

GFSCGP_850_rhum_027.txt.gz
RH
13 13 13 12 12 11 10 10 11 11 13 14 15 14 14 15 14 16 16 17 19 23 33 37 42 43 41 49 50 58 63 70 69 60 54 48 47 47 47 47 55 68 68 72
11 15 15 12 12 12 13 15 15 15 15 17 16 15 15 16 18 18 18 19 23 26 31 37 43 48 50 52 53 54 55 58 54 47 52 52 50 53 56 58 61 61 64 56
13 16 15 15 15 16 17 18 21 20 17 16 17 17 17 16 18 19 20 22 24 25 29 36 44 52 55 55 52 53 56 58 56 44 52 53 50 50 50 52 59 63 64 68
15 16 16 17 19 20 20 20 23 22 21 20 17 19 19 18 20 22 27 30 29 28 31 37 44 50 58 60 59 56 57 57 61 52 59 66 62 60 60 67 67 68 68 62
19 17 19 21 23 22 24 25 24 24 24 19 19 17 21 18 23 25 29 33 35 37 38 42 44 52 59 64 65 63 56 59 64 64 59 72 70 67 61 60 61 60 51 55
17 19 20 22 22 22 22 26 23 25 23 32 18 21 24 20 22 27 31 35 38 40 41 43 46 47 51 61 64 63 59 56 58 65 67 68 69 65 59 58 59 55 62 59
20 22 22 25 23 23 22 25 34 37 36 36 25 25 29 27 26 27 31 36 38 40 42 42 44 47 53 58 61 63 59 59 58 61 62 63 65 64 60 63 65 74 69 62
24 35 25 23 26 28 27 28 42 45 37 29 25 23 30 26 29 32 34 36 38 40 42 42 44 48 52 54 59 66 64 57 54 58 62 64 68 68 73 76 81 77 69 69
28 29 25 26 25 27 30 35 29 38 50 46 21 28 30 28 30 32 33 34 38 39 42 41 45 48 53 52 54 60 64 60 60 63 67 73 78 78 78 81 82 75 76 76
30 36 28 24 26 28 26 28 40 38 69 43 19 21 21 36 33 31 32 34 38 41 42 45 46 48 53 55 56 59 58 58 63 68 75 72 73 71 75 78 75 75 80 89
23 29 29 22 27 25 27 32 34 31 37 50 43 26 23 24 24 26 29 34 37 41 44 44 46 49 52 52 53 54 60 65 62 57 55 58 64 69 71 71 74 84 91 96
32 30 34 22 25 28 28 30 30 44 40 41 51 42 22 21 26 30 30 35 42 43 41 44 47 50 54 52 52 56 59 48 46 47 50 58 66 67 70 80 79 94 98 99
33 36 35 27 32 32 33 28 30 33 46 48 64 42 22 25 29 32 33 35 38 39 41 43 49 54 55 52 54 53 42 47 53 58 62 64 66 81 87 93 96 99 99 98
45 32 32 36 27 23 28 26 23 28 51 50 42 31 23 22 25 26 27 32 38 40 41 46 51 55 54 53 52 46 45 54 63 64 64 64 79 92 97 92 89 99 98 98
39 47 32 32 26 24 25 28 28 31 30 47 38 33 28 26 28 31 33 40 40 41 45 53 59 60 54 53 50 49 52 57 64 67 65 66 83 96 92 96 94 92 86 73
38 52 56 52 31 25 29 28 28 28 30 32 33 34 28 30 29 32 37 39 42 49 57 67 64 60 60 50 52 51 52 60 65 64 63 69 81 81 82 84 81 76 75 76
49 60 59 76 52 55 75 43 28 29 29 32 44 34 27 29 36 44 52 56 64 81 73 66 67 68 62 53 54 49 52 53 59 64 61 71 76 77 80 77 76 74 70 59
73 66 86 93 88 85 30 24 26 30 29 28 29 29 33 36 50 56 70 76 79 82 80 75 78 66 52 56 56 48 51 49 52 53 61 66 80 84 78 70 68 62 57 61
49 71 92 95 64 42 35 33 37 41 44 31 36 40 41 46 55 53 78 90 92 86 73 79 63 54 56 55 53 51 51 46 46 51 58 69 80 70 66 62 60 60 61 63
54 63 80 88 96 76 35 29 39 37 54 42 47 49 53 58 80 80 94 96 86 81 69 50 48 47 50 51 53 56 55 50 48 48 55 67 69 70 64 60 61 63 61 61
90 92 94 83 93 58 33 38 41 65 69 56 58 80 91 90 99 99 98 89 78 56 46 38 37 43 46 50 50 52 52 50 47 52 64 71 72 68 62 62 62 61 61 74
74 94 97 86 96 85 38 39 66 61 59 76 78 94 98 98 98 89 76 53 47 41 37 38 40 42 43 45 46 47 55 50 58 69 72 75 73 69 63 65 63 63 68 84
52 48 58 60 58 36 38 50 68 71 76 92 95 81 99 89 69 51 48 42 36 33 31 33 37 39 41 44 45 45 61 74 90 83 78 82 81 68 63 64 64 68 76 90
40 36 66 60 43 40 46 60 82 88 94 93 77 92 70 54 54 45 35 32 30 29 32 35 38 42 44 43 43 46 56 80 90 77 84 91 84 72 77 72 69 80 90 99
49 42 48 58 47 55 86 89 92 90 97 68 64 54 53 48 41 36 32 31 32 33 33 36 42 44 44 46 48 49 54 83 81 93 97 94 78 77 92 88 85 90 95 96
51 47 66 80 79 88 98 97 98 98 68 55 52 49 44 40 35 35 37 39 39 40 42 42 43 47 52 55 59 70 91 89 96 97 94 89 87 96 97 96 92 96 91 93

GFSCGP_850_rhum_030.txt.gz
RH
12 14 15 12 11 9 9 9 9 9 12 12 11 12 13 13 13 14 15 16 22 33 40 44 44 43 44 45 52 57 63 62 69 64 58 53 50 48 49 48 51 54 59 57
11 14 14 11 11 10 10 12 13 13 13 14 14 13 14 15 16 17 19 24 27 33 39 45 50 47 46 50 52 53 57 57 51 50 51 49 50 49 50 52 58 57 62 64
17 16 12 12 13 14 13 15 21 19 15 14 15 16 17 16 17 19 22 23 25 30 37 46 54 56 56 54 53 54 56 57 48 45 53 55 52 51 52 55 54 58 65 69
16 13 13 14 16 18 18 20 21 19 20 21 15 22 19 18 20 21 25 26 25 30 36 43 50 58 62 62 59 57 57 58 58 50 56 62 63 67 64 60 60 63 65 55
17 16 17 18 23 19 22 21 21 22 24 22 17 24 18 18 23 27 29 32 34 36 39 42 49 57 63 64 65 62 57 55 58 63 67 68 70 67 65 60 59 59 58 58
16 16 19 21 19 20 19 23 22 23 24 40 23 19 24 21 22 28 30 33 36 38 40 42 44 46 53 59 62 64 58 58 58 59 63 63 65 66 65 63 65 68 70 74
19 20 20 20 22 21 20 24 45 51 49 49 24 24 30 26 23 26 31 35 37 39 40 40 42 45 49 54 58 62 64 61 56 55 58 63 65 68 70 72 76 80 82 75
24 36 23 20 24 26 25 25 53 55 64 50 24 25 35 26 27 29 31 34 37 39 40 39 42 46 50 51 52 56 60 62 59 60 63 67 73 76 78 76 80 79 79 76
25 30 22 22 21 22 26 37 25 33 45 61 28 31 28 27 29 30 30 32 35 37 39 40 44 45 48 52 54 56 59 58 57 62 66 71 68 71 72 71 74 76 74 79
25 34 23 19 21 27 24 21 39 46 69 51 25 25 41 33 32 29 29 32 34 36 38 40 43 44 48 51 51 53 54 58 62 61 56 53 53 57 63 67 71 71 77 76
22 29 28 20 25 23 25 27 28 27 36 56 57 33 22 24 25 28 27 28 32 38 39 39 41 45 50 54 53 52 54 59 52 46 48 48 54 61 66 69 74 79 77 70
27 28 41 22 20 22 24 28 28 62 47 57 60 48 20 21 24 26 29 33 36 38 38 40 44 50 53 54 53 52 56 46 46 49 56 60 63 64 72 77 83 76 93 95
34 37 50 34 32 29 24 22 23 29 52 58 72 46 19 23 38 34 33 36 41 40 37 41 46 52 55 55 53 54 48 45 50 56 60 62 63 73 76 72 93 75 81 89
44 31 31 42 27 22 24 21 20 25 61 54 52 38 28 26 34 32 30 34 36 36 44 48 53 57 58 56 54 53 49 48 52 57 62 63 63 76 69 83 83 82 80 82
37 46 32 30 24 23 22 21 21 24 29 44 38 31 28 31 29 28 44 46 45 51 57 66 65 60 58 59 59 50 51 49 51 56 62 62 64 79 69 74 82 83 79 78
36 56 60 57 27 27 30 25 28 25 27 26 30 33 27 27 39 46 48 56 54 71 78 75 64 65 68 66 57 51 52 48 49 51 55 59 62 71 79 81 82 80 76 76
47 67 71 78 60 63 80 52 29 27 27 31 44 32 27 39 48 52 55 63 69 75 75 73 72 72 72 66 51 53 54 49 50 47 48 52 71 75 66 72 78 76 72 63
73 70 93 93 90 77 30 24 26 30 29 30 29 29 41 44 48 58 73 78 81 80 78 78 72 67 66 53 51 51 52 52 51 48 45 47 64 66 72 83 72 74 62 59
44 79 90 98 70 46 35 32 39 45 47 33 43 49 54 61 57 62 87 82 88 86 80 72 62 48 41 38 44 60 51 52 52 56 50 53 61 67 71 69 70 67 60 61
47 71 89 92 89 76 40 28 35 35 59 54 60 68 75 72 85 74 91 84 72 72 60 46 40 37 39 39 40 41 44 44 45 55 63 70 90 81 74 84 85 60 61 62
90 84 87 77 88 67 36 34 38 61 75 73 76 86 86 84 88 89 80 64 62 46 39 33 32 31 33 35 38 41 40 40 52 52 94 74 86 94 77 88 65 61 65 65
80 91 94 85 91 85 38 45 82 68 66 80 82 90 83 85 84 72 55 47 42 33 30 29 29 30 34 37 38 40 41 42 47 67 78 85 90 87 84 75 66 65 66 72
56 61 71 71 72 43 46 67 75 75 84 84 81 80 85 71 52 50 44 36 32 30 29 30 30 32 34 38 42 43 45 52 63 76 82 88 94 88 90 88 71 69 74 82
34 30 65 57 43 39 60 76 86 88 89 88 72 79 57 52 49 41 35 33 33 34 35 36 38 40 41 42 47 49 54 63 58 83 98 88 85 89 84 77 74 80 84 80
53 45 48 51 41 43 85 94 94 91 86 69 60 50 48 44 39 36 36 36 35 35 38 40 43 44 45 48 54 62 68 77 84 81 94 89 92 99 92 86 80 90 90 90
53 49 68 74 67 68 94 91 94 87 70 55 50 48 41 35 34 36 37 37 38 44 47 50 51 56 59 61 69 70 88 90 92 94 93 95 95 95 88 86 88 91 93 92

GFSCGP_850_rhum_033.txt.gz
RH
15 23 24 15 13 11 11 14 17 17 14 13 15 18 18 17 19 33 37 40 44 46 47 46 46 44 44 48 47 49 56 66 65 66 64 58 58 53 50 49 50 55 58 61
19 24 16 12 12 13 13 17 25 18 16 15 16 18 22 20 23 28 33 38 43 47 45 43 48 49 49 49 50 47 48 57 54 50 51 53 52 46 50 52 63 64 65 68
26 17 11 14 22 23 25 28 26 23 20 18 19 22 25 22 23 25 28 33 39 46 50 50 48 48 44 43 43 40 40 41 43 47 49 52 52 54 57 59 63 62 63 65
20 15 16 17 25 24 31 27 26 25 28 34 21 35 28 27 28 30 30 32 39 43 48 52 56 54 50 52 53 55 55 54 54 54 55 55 54 56 62 61 57 58 60 59
20 19 25 29 25 22 28 23 26 27 32 32 33 32 30 27 40 41 38 36 38 41 44 50 50 50 53 53 53 55 57 59 59 59 60 62 64 65 66 66 64 63 64 63
20 20 23 25 21 21 22 27 32 34 38 55 42 37 35 31 38 41 38 37 39 41 44 45 47 52 54 57 58 61 60 61 59 57 61 64 65 66 67 69 70 72 76 80
22 25 24 20 28 24 28 39 65 58 73 62 48 52 59 42 34 37 42 39 39 41 42 44 47 51 54 56 60 59 61 62 62 58 57 61 68 74 76 77 77 76 76 76
40 40 28 24 27 29 32 32 77 60 81 65 36 52 48 37 35 35 37 39 40 41 41 41 44 47 50 51 50 51 52 54 57 58 62 66 66 64 66 68 71 70 70 70
44 38 26 25 23 27 30 48 27 42 63 75 51 43 38 37 41 34 37 37 39 40 40 41 44 45 45 48 52 53 55 56 57 60 62 61 54 52 49 55 61 67 73 74
28 42 24 23 21 28 30 25 49 66 67 62 49 48 61 43 40 37 36 38 38 39 39 42 43 46 49 51 53 54 53 53 58 60 57 52 46 43 47 60 67 69 74 78
36 44 32 21 29 33 36 39 38 42 62 76 82 53 35 40 42 39 38 38 41 40 40 39 42 46 50 53 54 54 53 54 56 51 46 43 40 59 63 64 66 69 60 74
31 39 48 33 25 25 26 33 38 77 58 69 83 60 33 48 45 41 39 36 38 43 43 43 45 49 53 56 55 54 54 55 48 48 45 50 59 61 64 65 71 63 77 71
43 43 68 46 40 34 27 24 24 41 70 64 81 65 29 37 37 38 40 34 46 50 49 54 56 60 59 58 56 55 54 52 51 50 50 54 61 64 63 66 68 52 69 75
46 40 48 63 36 29 28 27 24 31 82 69 68 53 39 57 57 52 53 52 59 61 60 60 61 65 64 60 62 61 53 51 51 50 49 45 56 63 62 70 62 53 70 80
50 56 53 50 37 32 30 33 31 32 34 49 48 41 42 47 56 54 57 58 60 64 66 68 69 67 62 63 65 62 53 52 52 50 48 48 51 55 62 73 64 62 65 79
47 72 58 52 52 50 43 43 44 35 32 37 42 44 51 51 52 61 65 69 75 76 75 71 65 56 56 60 60 60 52 50 55 55 54 50 48 58 66 71 54 60 75 79
68 76 86 85 77 76 74 50 37 35 37 38 48 49 53 63 70 73 75 75 76 77 69 70 56 53 50 45 43 53 51 50 59 62 64 62 64 63 86 76 83 69 74 74
74 84 96 89 84 56 48 35 41 46 46 48 59 66 68 68 74 71 77 76 66 56 52 45 43 42 43 48 50 42 42 42 44 48 51 62 70 83 90 97 81 76 76 72
64 90 97 95 94 63 47 39 46 52 65 66 75 76 78 74 66 90 78 57 51 51 49 48 49 40 33 34 35 36 37 38 38 44 47 55 60 84 98 98 95 94 90 59
75 81 85 92 91 85 59 43 37 37 76 72 75 82 83 65 88 82 65 52 48 46 45 33 29 29 29 33 35 35 35 38 43 48 63 68 68 69 93 90 82 70 61 65
94 87 91 96 90 80 59 40 38 69 74 81 80 82 76 82 81 76 54 49 44 34 31 30 30 30 31 31 33 34 43 46 49 51 56 54 63 73 88 96 80 74 68 67
85 94 92 84 85 95 45 54 62 73 81 81 78 71 76 74 61 53 50 42 35 33 34 35 36 36 38 36 40 44 48 53 55 58 61 53 86 95 92 93 93 89 70 70
80 78 90 78 80 50 50 56 71 67 81 80 76 81 70 67 53 50 42 36 36 36 35 37 39 40 43 46 48 51 56 61 60 64 61 67 97 92 97 95 85 76 74 73
49 51 77 72 54 62 74 78 78 78 77 80 77 62 56 52 49 38 36 37 37 37 39 40 41 52 53 54 59 64 67 69 67 68 70 79 84 95 97 88 86 84 74 85
59 54 58 66 71 83 88 82 84 84 80 68 53 50 49 40 36 36 38 38 39 42 43 47 54 56 56 59 70 79 85 83 84 84 75 98 100 99 99 98 90 86 94 90
61 66 80 84 63 69 88 89 89 75 63 54 52 50 43 36 37 38 39 41 45 46 43 45 52 60 64 75 84 92 100 99 96 95 88 98 99 100 98 92 89 92 94 92

GFSCGP_850_rhum_036.txt.gz
RH
18 24 24 16 18 16 13 18 23 17 14 14 19 21 22 38 43 52 53 55 56 56 58 59 58 59 59 66 67 74 81 84 82 87 82 72 58 52 52 57 61 62 64 67
24 23 17 14 20 22 20 26 25 20 18 15 22 23 27 35 44 48 52 53 52 53 51 52 54 57 56 59 59 57 54 53 53 53 55 56 56 56 60 67 67 66 66 65
28 19 12 22 27 29 34 31 27 24 22 21 24 26 33 33 40 47 51 48 45 41 43 46 46 50 51 50 48 46 50 52 51 51 52 52 54 53 53 57 61 61 59 58
19 16 22 28 27 26 37 27 26 26 30 29 24 38 30 34 42 43 53 51 49 46 44 43 44 44 43 44 43 42 47 54 56 54 47 41 39 48 57 58 59 60 60 60
22 28 30 30 25 22 29 23 26 27 34 36 38 38 35 43 49 49 51 55 53 50 46 45 47 48 49 50 50 51 49 55 56 56 58 56 57 60 65 67 68 69 70 72
23 22 24 25 24 22 24 29 42 40 45 55 41 45 42 48 48 50 49 50 49 46 45 47 50 50 52 54 56 57 55 56 54 55 55 51 54 54 62 70 73 74 72 71
28 29 25 23 31 29 32 48 64 60 74 67 46 60 56 48 40 46 50 46 45 44 44 47 49 51 54 57 58 56 56 56 55 54 54 57 62 66 68 65 62 64 64 67
42 45 30 26 28 30 31 46 73 58 74 58 47 64 56 46 43 42 42 42 43 43 45 45 46 49 52 53 52 52 51 52 55 56 58 61 62 58 54 51 48 57 68 74
46 38 28 24 24 28 30 48 34 56 64 70 57 49 40 44 42 41 48 49 55 52 41 42 47 50 51 52 52 53 54 56 57 57 58 59 54 48 43 35 44 64 70 75
32 44 29 24 24 28 30 28 48 65 62 61 55 57 66 53 49 43 45 45 46 45 46 46 48 50 53 54 55 54 54 53 55 57 56 50 47 41 38 41 56 62 66 67
35 47 36 31 31 34 38 41 43 49 64 76 82 58 45 53 50 49 48 44 46 46 45 48 54 56 56 56 55 55 54 55 56 52 50 52 47 38 34 38 47 58 69 66
37 48 47 34 26 27 28 36 48 75 49 75 83 62 45 50 41 41 41 50 48 50 53 57 57 57 57 58 59 59 57 55 53 55 48 44 40 40 42 39 43 61 69 64
40 47 65 53 46 38 30 29 38 60 70 63 76 62 37 45 58 55 58 58 58 59 58 57 54 52 52 57 57 61 61 57 53 52 52 48 48 48 50 60 62 66 69 47
47 50 50 64 45 37 28 28 29 47 79 68 70 53 47 62 67 63 68 65 63 61 61 63 62 59 53 49 50 57 60 58 53 52 51 54 52 53 56 63 62 68 73 58
53 58 53 48 45 36 33 34 35 34 38 54 48 58 67 66 67 64 65 66 64 65 61 58 58 52 52 44 40 40 48 54 58 53 56 60 61 60 63 73 76 87 97 76
59 71 52 44 63 60 41 42 47 44 34 41 60 73 59 61 63 66 69 70 67 64 59 52 48 45 42 45 56 62 56 51 51 49 50 58 55 65 67 73 78 84 91 90
70 78 74 54 83 65 68 49 38 39 46 44 53 65 66 73 75 80 80 73 65 58 50 44 44 47 49 47 47 39 36 36 37 37 46 50 50 52 69 76 84 86 99 96
75 93 93 74 72 38 42 44 41 67 69 70 75 77 74 72 78 84 75 55 51 48 46 46 46 35 31 32 33 35 34 34 38 44 46 50 53 56 56 58 58 94 92 94
65 87 98 73 88 50 44 44 48 46 68 73 81 80 78 70 82 86 62 50 48 47 44 33 30 30 31 32 33 34 34 34 42 45 47 50 54 57 54 74 88 70 82 69
76 79 78 99 64 59 47 44 38 40 74 75 77 83 78 71 83 79 52 50 45 36 32 33 35 35 36 36 38 38 39 44 46 50 53 58 61 54 74 100 93 76 79 87
94 94 93 99 92 78 55 46 39 71 64 77 74 75 70 76 66 60 52 47 40 35 35 36 36 37 39 40 39 47 53 56 56 58 62 62 60 71 100 98 85 81 90 90
88 93 95 94 93 82 49 52 58 58 69 74 79 74 73 70 60 52 51 40 36 36 37 37 36 37 39 40 49 53 58 67 69 70 73 66 65 77 84 94 98 97 92 80
62 68 82 75 77 48 50 47 48 58 70 81 76 72 72 61 52 52 40 37 37 37 37 35 38 36 30 40 48 50 56 76 82 81 85 87 76 82 100 96 98 97 93 87
55 59 81 73 57 64 57 65 68 75 75 77 79 76 55 52 51 38 37 37 37 38 37 42 33 30 39 44 49 56 69 92 98 95 98 92 80 100 99 98 97 96 90 94
54 59 68 73 92 87 85 77 77 79 76 72 63 52 52 43 37 36 37 38 39 40 43 32 32 39 44 49 52 61 77 94 98 98 98 95 100 99 98 96 95 89 95 92
62 67 81 84 58 67 69 77 82 77 68 53 52 51 40 38 36 37 39 41 43 42 33 32 36 40 47 54 58 73 96 99 99 98 98 100 100 100 100 100 100 100 98 92

GFSCGP_850_rhum_039.txt.gz
RH
20 24 24 17 17 17 19 18 23 18 16 16 20 28 41 55 52 63 65 65 64 63 74 73 66 57 57 67 68 60 69 82 77 78 82 78 71 65 59 57 60 62 63 65
26 24 17 21 26 22 25 24 23 21 23 20 28 38 43 46 58 65 66 67 67 66 64 64 65 69 70 73 68 57 56 56 59 59 61 61 59 59 59 59 61 65 64 61
26 20 20 24 30 32 36 30 27 24 25 24 29 36 45 47 55 61 62 59 56 54 55 61 63 60 56 53 49 48 48 47 48 51 52 51 46 38 40 42 42 47 54 61
20 26 25 27 27 31 35 28 26 26 28 26 28 47 42 42 51 59 64 59 56 54 51 47 45 45 45 46 47 46 45 47 44 36 35 35 36 39 44 50 53 62 68 70
23 29 29 29 26 25 31 26 26 28 38 38 39 41 42 51 54 57 62 60 56 51 46 44 47 49 51 49 47 47 48 45 44 44 46 49 49 50 53 58 62 73 76 74
26 24 25 26 25 24 25 34 46 52 50 56 44 49 48 59 54 57 58 61 53 52 50 51 51 50 50 53 50 54 56 54 52 51 53 51 53 56 60 65 66 64 58 56
32 32 28 26 29 28 36 48 60 60 70 68 51 60 57 49 49 53 59 60 58 54 49 47 47 49 50 54 62 59 57 55 54 52 54 56 58 61 60 55 49 44 46 56
46 45 31 27 28 31 35 47 71 57 73 52 52 66 59 50 46 47 50 50 48 46 46 48 46 48 58 63 58 56 56 55 55 56 56 57 58 56 49 45 35 31 51 62
44 38 28 24 26 28 30 48 39 67 68 69 63 51 46 49 55 50 46 46 49 52 52 52 55 59 58 54 54 54 55 55 55 55 57 56 51 50 47 33 30 35 42 55
39 44 30 24 25 27 29 32 50 65 60 57 59 60 67 58 60 50 52 50 52 53 50 51 58 56 55 56 55 55 55 55 55 56 53 52 44 41 43 40 39 45 47 54
37 44 35 32 32 35 38 41 50 56 67 76 81 62 44 55 52 52 50 53 50 50 51 52 54 57 57 55 56 57 58 57 55 55 55 51 49 51 49 50 51 54 60 65
40 50 50 34 33 32 32 38 47 63 48 80 82 61 48 56 52 50 55 58 57 53 57 59 59 57 60 61 61 61 58 58 59 55 53 52 53 56 51 53 56 59 66 73
39 50 64 46 46 36 33 32 57 60 69 64 71 59 50 60 63 61 63 63 62 62 62 60 58 56 55 50 49 53 61 58 56 54 56 56 58 54 57 59 61 69 77 75
45 58 49 58 47 41 31 30 41 49 78 67 67 49 70 70 74 73 71 69 66 64 62 57 53 48 46 41 42 50 55 58 62 63 61 57 52 65 56 62 63 58 77 73
49 57 53 54 54 38 33 33 36 37 42 50 43 60 62 75 76 73 72 70 69 63 57 52 47 44 48 52 51 51 52 46 42 36 32 33 35 41 54 47 56 66 68 84
64 69 50 51 66 62 43 38 44 48 41 46 63 75 66 65 68 74 75 72 66 57 49 41 45 52 48 42 39 37 33 31 30 30 31 38 44 46 49 52 59 61 66 86
70 76 62 47 81 54 47 47 47 41 45 47 78 64 70 75 75 77 74 66 51 46 44 52 53 41 32 31 31 31 32 34 35 37 44 48 50 52 55 55 53 73 84 89
79 94 86 66 70 44 35 46 42 47 60 65 73 75 70 69 69 71 71 52 47 48 55 48 35 30 31 32 34 37 39 40 43 47 50 52 55 60 58 52 73 95 100 98
68 88 97 74 74 45 37 53 66 53 57 74 80 80 72 73 81 85 70 51 51 52 43 31 32 34 36 38 39 40 42 51 52 52 55 59 63 68 56 52 98 95 86 82
73 74 73 98 59 47 35 47 41 41 67 73 73 81 81 88 99 81 68 51 54 41 33 34 36 37 37 38 40 38 36 41 41 55 66 70 75 73 66 65 89 79 81 86
92 96 90 100 80 69 50 46 39 62 50 74 68 71 77 83 66 62 52 56 42 36 36 37 38 36 35 33 28 25 26 31 40 70 78 81 86 88 80 75 88 88 86 96
94 96 99 96 93 69 46 50 58 55 48 55 72 72 72 68 69 57 57 46 37 37 38 38 35 30 29 22 23 27 32 40 50 82 92 95 94 92 89 91 100 98 95 91
70 65 79 74 75 49 53 50 43 46 48 68 72 74 71 70 58 55 50 38 38 38 38 38 35 29 22 25 30 37 42 55 68 94 94 99 98 90 93 100 98 97 97 97
64 57 76 68 52 58 48 52 61 59 61 69 76 73 74 61 55 50 39 38 38 40 40 37 30 25 27 30 39 48 55 68 80 87 94 97 97 100 99 98 97 96 99 100
61 68 74 78 72 84 72 67 64 69 74 76 77 71 58 53 48 38 38 38 40 42 41 32 29 33 35 39 47 53 62 73 85 94 96 100 93 95 97 96 97 99 100 98
62 70 82 80 50 58 54 54 71 76 78 74 63 55 55 43 39 38 39 40 42 44 34 32 35 38 41 47 50 54 61 82 98 100 97 99 94 97 97 97 100 100 100 99

GFSCGP_850_rhum_042.txt.gz
RH
21 25 23 18 18 17 18 18 19 20 18 20 35 49 62 62 60 67 70 68 68 64 67 60 60 59 62 68 80 90 85 84 93 91 90 71 70 65 55 48 48 55 61 64
28 25 19 26 22 26 24 25 24 23 25 24 44 54 57 59 69 75 78 80 78 79 82 85 87 89 87 91 85 71 56 60 63 68 64 58 52 42 36 40 41 43 44 46
28 21 22 28 32 33 35 29 28 27 25 29 34 40 55 58 67 71 74 73 70 67 66 67 67 62 58 47 40 40 41 46 47 44 41 38 36 39 46 50 51 53 55 60
24 28 26 28 30 32 32 28 27 29 27 33 30 41 48 55 65 68 69 67 68 66 65 60 48 42 40 41 42 43 40 40 37 37 40 41 45 50 53 55 58 63 66 69
26 28 29 31 28 26 31 31 32 34 42 38 42 43 46 57 66 68 68 67 62 55 51 48 47 48 43 46 48 50 50 50 47 48 51 52 53 56 59 62 65 71 63 58
30 26 27 27 30 28 30 41 49 55 53 57 48 54 52 66 60 63 63 63 56 56 52 49 51 49 49 54 56 56 58 59 56 57 57 56 57 58 61 63 58 49 43 40
37 34 30 28 30 30 41 47 63 62 67 68 52 59 54 47 53 58 62 59 56 50 50 51 53 56 60 62 63 62 61 61 58 58 59 59 59 58 53 49 43 30 32 36
47 45 31 28 29 34 40 44 71 58 78 58 53 65 58 55 50 48 50 48 48 52 54 56 61 64 66 66 67 63 60 59 58 60 58 57 53 48 43 42 40 35 41 46
45 39 29 26 31 29 38 49 42 72 68 70 64 54 51 60 61 57 54 52 53 52 56 60 62 64 65 65 59 59 58 57 58 57 55 53 50 49 47 48 47 48 51 54
41 46 31 26 27 31 28 39 53 64 55 48 60 61 69 66 67 62 59 58 52 56 58 54 58 62 58 56 56 56 56 57 56 54 56 56 52 52 54 54 53 56 58 61
40 44 36 32 34 38 40 44 55 62 67 74 79 62 51 62 62 63 55 52 57 58 56 57 59 57 58 57 56 59 59 57 57 59 54 54 56 56 57 53 55 58 61 70
42 50 49 34 31 37 35 40 45 60 49 80 81 67 55 58 53 51 58 61 63 61 61 61 60 60 60 56 49 45 47 56 56 55 56 57 62 60 60 57 63 64 66 62
42 50 60 46 39 36 36 40 58 59 69 69 72 53 56 63 68 69 69 67 66 66 65 63 59 54 48 41 39 41 43 46 49 54 59 50 39 30 35 54 55 48 54 64
42 56 48 54 38 43 35 33 50 50 76 65 65 45 64 69 76 78 72 71 69 65 60 54 48 43 43 43 41 47 50 49 45 37 32 29 29 35 42 44 45 46 49 58
47 55 52 58 57 42 33 35 42 42 44 47 42 59 49 71 82 78 74 72 68 61 53 45 42 43 45 45 43 41 36 32 32 34 30 35 41 47 48 50 53 49 57 73
63 67 49 55 66 63 48 42 43 42 41 50 49 56 64 67 69 79 78 73 66 56 46 42 48 53 43 34 32 31 32 36 35 31 35 44 48 51 56 62 57 48 65 96
66 74 66 64 73 50 50 48 49 50 49 52 64 55 77 80 78 78 74 69 62 49 46 50 51 41 32 32 33 36 38 35 30 34 43 48 55 60 65 69 56 52 81 100
75 78 79 62 66 39 30 39 49 46 49 56 59 65 72 73 73 70 70 67 50 45 49 52 40 31 33 35 38 36 33 30 29 33 40 59 65 70 75 75 67 63 93 80
68 82 95 68 68 41 28 59 60 52 48 70 66 78 74 72 75 75 71 65 46 47 50 39 32 35 38 38 34 31 24 22 26 29 35 61 72 78 83 85 78 77 83 77
70 71 72 95 57 46 34 46 46 40 68 61 65 79 83 82 94 80 62 69 50 52 42 34 36 38 38 33 28 23 23 24 24 28 35 50 80 89 89 92 87 85 92 91
93 97 86 99 74 64 47 47 40 63 55 65 59 66 78 86 68 60 60 62 56 44 36 37 38 38 34 29 24 24 26 24 25 30 39 63 87 92 98 93 99 100 97 98
92 98 97 96 89 68 42 49 56 53 39 38 52 57 66 71 67 64 60 59 47 37 38 39 40 37 31 26 26 26 26 26 28 37 51 76 91 96 95 89 99 96 98 97
76 66 80 74 74 47 43 53 44 47 46 47 53 58 67 71 71 62 58 55 39 39 40 41 40 34 28 28 29 29 31 33 36 46 62 69 86 98 96 100 98 98 98 97
69 59 72 66 48 58 44 43 50 55 55 54 55 63 71 71 67 62 55 40 39 40 41 41 36 28 28 32 34 36 39 43 49 61 80 90 100 99 90 100 98 97 95 97
66 65 71 76 66 66 51 50 46 53 64 66 74 75 74 70 65 75 42 39 40 41 42 38 30 32 35 37 40 46 50 52 60 76 95 93 96 96 89 98 96 95 100 99
64 70 81 76 43 49 45 45 51 64 73 77 76 79 68 82 56 43 39 40 41 36 32 31 36 39 40 42 46 54 60 73 90 88 93 93 96 90 91 94 93 96 100 98

GFSCGP_850_rhum_045.txt.gz
RH
22 21 20 18 18 16 19 19 19 20 20 32 40 46 54 63 67 71 74 68 64 64 63 59 55 54 58 65 76 80 79 83 80 93 83 72 68 50 38 40 40 42 45 46
24 24 20 26 21 22 22 24 26 26 27 29 42 52 57 61 72 74 78 78 72 76 80 76 76 82 84 79 84 79 68 84 79 67 65 62 49 38 44 47 51 54 54 54
29 22 24 29 30 30 32 29 28 26 27 30 33 36 50 64 73 79 82 82 82 80 78 74 72 63 49 40 39 42 42 40 46 54 52 43 40 45 51 53 56 58 59 63
29 28 26 29 32 30 35 29 29 27 24 28 31 26 41 58 68 72 77 78 76 72 70 66 45 40 41 42 36 35 39 42 44 45 46 48 49 50 55 58 61 64 70 62
30 29 30 32 30 28 35 33 34 34 36 32 39 29 33 58 70 69 70 73 69 66 58 45 42 45 47 48 48 48 46 46 48 49 52 54 55 58 62 67 65 58 51 42
33 28 29 29 34 32 39 38 42 45 43 45 46 44 40 51 54 63 64 69 62 54 49 48 48 47 48 51 53 54 57 57 58 59 58 58 61 61 58 53 49 43 33 31
36 34 30 28 32 33 35 39 46 47 53 45 49 53 41 43 46 53 58 62 56 51 51 52 53 55 56 57 60 62 62 64 61 59 60 59 57 53 50 44 42 42 37 39
41 37 31 29 31 35 41 37 58 54 59 52 48 53 42 47 51 53 57 54 51 54 54 57 57 59 61 68 66 66 64 61 60 60 57 55 54 53 50 48 48 48 51 54
44 39 30 29 34 31 43 45 40 61 65 59 47 47 42 52 56 55 54 60 59 54 58 60 64 66 69 71 70 63 61 60 58 56 54 56 55 53 54 56 55 53 55 58
43 46 32 28 30 34 33 39 49 51 57 42 41 50 41 56 55 57 56 57 62 60 60 62 65 72 71 66 62 60 58 57 56 55 58 54 53 56 58 58 59 55 58 60
40 44 38 33 33 39 39 44 53 50 52 44 48 31 47 48 50 54 52 60 62 62 63 64 67 64 61 59 58 59 57 53 55 57 55 54 56 60 60 49 42 61 64 62
42 49 49 36 33 36 36 40 45 49 47 68 60 40 50 55 52 57 59 58 60 63 64 63 61 61 61 59 52 47 49 51 44 44 50 54 43 32 26 28 39 40 40 42
44 49 53 40 34 36 39 43 46 50 58 61 71 33 53 61 63 62 65 69 66 64 63 64 62 58 52 45 41 46 54 46 46 43 38 34 30 24 32 43 46 46 40 40
39 50 46 46 37 43 41 45 46 44 58 50 47 34 44 59 65 72 74 74 69 66 64 61 54 47 44 43 46 48 43 37 32 32 32 24 29 42 48 49 49 45 45 43
47 48 50 57 56 45 36 37 50 43 42 47 38 42 34 43 58 70 75 76 71 66 59 52 45 45 44 44 41 34 31 31 34 29 25 31 43 47 50 52 52 51 52 50
58 63 53 60 61 56 48 41 40 43 39 41 42 40 34 57 68 78 81 78 72 62 54 46 46 47 44 35 32 31 34 35 28 24 28 37 42 44 48 59 66 68 64 58
60 69 63 60 60 44 55 45 43 43 43 37 43 34 66 71 71 77 82 75 66 60 48 46 47 46 34 32 32 36 35 30 22 23 23 24 33 48 62 74 78 74 72 72
67 64 65 60 61 40 31 41 40 43 44 43 50 55 61 63 72 77 71 67 65 52 46 46 49 37 32 34 37 36 29 21 21 22 20 23 31 47 71 83 86 81 81 84
60 70 80 66 51 36 25 42 53 52 38 46 46 63 77 76 76 77 72 67 62 49 48 52 39 33 35 38 35 27 21 21 22 21 22 26 36 53 79 85 88 87 80 86
62 64 69 77 49 44 30 38 49 42 56 49 57 72 81 76 79 60 62 66 62 52 54 42 34 37 38 36 30 22 22 23 24 25 27 31 40 55 78 81 87 86 86 88
92 94 84 81 69 56 40 43 43 50 44 56 54 58 81 69 64 56 59 74 65 57 45 36 37 39 37 33 24 24 26 30 31 31 33 38 46 55 68 83 89 86 94 98
76 92 96 91 81 68 40 49 56 49 38 42 49 44 51 53 65 63 70 76 61 46 38 38 40 39 36 28 26 28 32 34 36 37 40 44 48 52 66 84 82 93 96 98
68 63 72 65 64 44 38 49 42 46 43 42 48 50 59 69 68 70 65 58 54 61 40 40 40 38 30 28 31 33 37 40 42 42 42 53 55 64 86 82 90 93 95 98
68 63 66 64 48 55 44 37 40 45 53 53 55 54 64 74 74 67 57 77 70 41 40 42 39 31 27 30 33 38 42 43 43 44 56 68 68 75 87 81 96 96 96 95
62 64 65 68 60 52 43 47 46 48 54 62 65 71 76 79 73 64 90 76 43 43 42 36 29 28 30 32 37 40 41 45 54 64 85 87 76 84 89 86 94 94 89 87
68 67 76 74 46 46 46 53 55 60 71 80 81 82 77 68 80 76 68 45 57 47 35 30 29 31 35 38 38 40 45 61 86 100 100 100 94 93 96 94 90 84 84 87

GFSCGP_850_rhum_048.txt.gz
RH
19 16 14 11 11 11 13 12 12 12 15 15 15 24 28 46 49 52 51 53 56 60 75 72 58 57 56 60 64 69 74 86 75 73 72 80 78 58 38 41 45 49 52 52
18 16 17 16 14 14 14 15 16 18 17 19 23 29 32 41 46 49 52 56 61 71 80 83 94 96 99 100 99 88 85 77 77 74 81 73 69 55 55 48 52 54 56 54
15 19 21 17 18 18 19 18 20 16 20 21 22 27 35 42 51 56 57 56 61 65 75 84 91 94 96 96 96 90 87 77 65 64 55 55 45 44 54 61 66 58 59 63
20 21 21 19 21 20 20 21 19 19 18 18 22 17 27 38 44 48 57 58 61 64 67 66 59 62 68 75 77 72 73 69 39 44 66 62 57 58 68 72 68 73 64 55
24 21 21 20 23 22 25 22 20 20 20 20 22 19 24 36 42 47 53 57 63 66 64 49 49 52 55 50 67 68 68 69 55 50 67 68 66 66 75 76 64 71 71 45
22 24 21 23 26 23 26 26 26 25 24 27 21 26 13 25 29 43 51 58 60 62 54 48 50 56 63 53 51 52 60 54 56 57 59 60 63 65 62 62 60 56 58 58
24 25 23 24 26 27 25 24 25 31 30 26 35 32 17 30 31 36 47 53 56 50 50 51 55 58 63 68 66 67 72 70 61 62 61 60 57 59 59 60 55 54 48 51
23 30 23 24 24 22 25 22 25 26 29 28 37 32 29 33 35 37 44 49 46 48 51 52 55 60 64 70 71 71 72 66 63 61 58 59 62 59 59 59 58 56 58 61
26 27 24 27 25 24 31 28 30 40 49 44 24 28 30 36 37 39 44 43 44 47 53 56 60 64 69 73 76 78 74 68 62 57 56 55 56 59 60 61 71 73 79 74
29 32 26 26 25 28 27 27 34 34 46 29 18 23 18 37 38 36 40 40 43 49 56 58 64 74 75 78 82 72 67 59 57 54 55 56 61 62 62 66 72 69 67 68
26 27 32 27 26 25 34 32 32 28 34 24 21 14 27 29 33 36 36 40 44 53 58 64 68 73 75 73 69 62 58 55 54 56 59 60 57 49 52 57 56 55 57 53
31 31 38 28 26 27 26 26 28 30 33 43 39 20 26 34 36 36 37 42 48 58 61 63 64 63 63 61 62 58 54 55 69 60 54 47 47 51 50 49 52 55 56 60
31 33 41 36 30 31 30 29 27 31 38 37 57 18 28 38 40 41 41 51 58 60 60 62 63 63 64 64 51 48 54 60 46 40 41 44 45 43 46 52 57 61 68 71
30 34 32 35 26 27 33 32 28 24 35 22 26 13 24 32 36 41 45 52 57 60 60 60 60 60 63 56 50 54 55 38 33 40 39 35 40 50 55 58 64 72 78 83
35 36 33 35 34 32 28 28 31 28 23 32 17 16 11 19 28 36 47 55 57 58 60 59 57 58 56 54 48 53 35 31 31 29 30 40 54 58 62 66 75 81 88 89
41 43 42 45 43 39 36 28 26 29 26 26 22 23 16 21 26 41 53 56 58 58 58 56 54 54 52 49 42 31 30 32 26 21 40 47 53 61 69 74 81 85 83 86
43 50 47 42 42 39 62 36 27 24 26 26 28 22 27 34 36 43 52 57 57 58 57 55 55 52 49 44 34 40 38 28 17 33 42 44 48 58 67 74 82 84 87 96
51 48 60 59 56 74 19 26 26 27 24 23 25 28 27 32 41 45 50 56 59 59 58 57 60 54 46 41 43 36 30 25 20 24 25 34 46 47 70 82 85 83 89 100
38 47 73 88 39 25 15 21 24 28 20 22 24 24 40 53 56 56 58 59 62 61 58 61 57 47 42 44 39 32 31 34 39 36 45 44 42 74 83 84 87 87 98 99
43 45 52 77 89 85 22 31 41 35 33 31 31 34 47 55 51 24 62 68 67 63 62 57 47 39 46 38 34 30 41 43 50 55 32 42 78 88 90 93 93 93 94 100
83 88 90 72 95 44 25 34 42 40 30 40 39 42 50 46 42 56 65 72 66 65 55 45 37 45 43 36 32 26 49 53 58 36 46 66 81 89 89 66 100 95 92 100
61 80 93 84 99 80 31 42 48 39 43 46 52 50 55 64 73 70 77 73 66 51 45 37 48 44 44 34 25 45 50 58 52 55 69 76 92 91 92 100 98 97 100 98
53 44 49 47 41 38 37 40 49 52 49 50 53 58 64 75 75 75 72 64 53 42 52 73 68 50 36 25 27 45 61 47 46 52 75 94 94 94 92 100 100 100 100 100
45 48 50 50 31 35 39 39 44 46 54 59 65 66 70 69 75 67 54 50 56 77 76 86 51 38 31 26 30 39 42 44 52 87 92 64 74 98 99 100 100 100 100 100
42 49 45 47 36 37 43 55 62 66 66 75 73 78 79 78 69 55 58 78 90 83 93 64 41 26 28 34 40 40 40 45 78 92 98 100 100 99 99 100 100 99 96 96
46 42 55 52 49 47 56 77 66 75 81 83 78 77 75 68 65 83 90 87 90 80 69 43 28 30 50 39 39 40 52 76 86 95 97 100 100 100 100 98 99 100 95 92

GFSCGP_850_rhum_051.txt.gz
RH
18 19 19 15 11 10 9 9 10 9 8 9 10 15 17 24 25 31 34 38 40 42 53 61 65 66 60 71 82 95 85 83 88 87 90 84 68 79 68 68 73 75 73 80
17 22 16 11 9 10 11 12 11 10 10 13 12 16 19 30 30 30 32 36 40 47 60 70 76 81 83 89 96 97 98 95 97 81 81 81 75 66 58 68 72 74 63 56
20 20 15 12 12 12 12 14 16 14 14 12 14 18 23 24 27 31 32 35 41 50 58 68 75 88 93 95 99 97 88 88 75 67 67 67 63 64 62 69 70 77 60 56
30 24 13 13 12 13 17 15 13 14 17 18 14 19 23 26 31 34 38 40 44 49 58 64 70 78 82 79 72 65 67 69 67 62 58 59 50 52 61 67 70 73 77 79
17 16 14 14 16 16 23 16 15 13 14 21 16 14 25 26 30 33 38 42 45 50 53 51 54 58 60 67 66 66 66 63 68 65 62 63 61 67 69 72 76 70 74 69
26 17 15 18 18 17 18 18 18 16 16 23 14 16 17 23 20 27 33 39 45 50 48 42 43 48 59 68 68 66 62 65 69 70 74 72 74 69 63 59 62 56 51 48
18 17 19 18 19 18 17 19 30 30 24 25 20 21 14 21 21 21 33 40 47 51 42 39 43 47 61 67 70 67 62 66 72 76 77 74 69 61 62 61 56 54 46 46
20 28 19 17 18 19 19 18 24 28 24 19 23 17 19 24 24 27 34 40 47 46 40 40 43 46 55 62 66 63 64 66 73 73 69 66 63 59 60 60 58 57 57 59
20 21 18 19 18 17 21 22 20 24 30 34 16 17 27 25 26 29 34 39 44 40 41 41 45 50 55 62 66 66 65 66 67 68 58 64 63 61 66 62 65 62 65 57
17 23 19 21 20 21 21 20 26 24 38 29 14 14 18 26 27 28 31 38 38 38 41 43 47 54 56 63 68 74 70 64 64 62 56 61 63 64 62 63 58 58 55 53
15 19 26 22 22 16 25 23 21 22 25 31 19 14 16 17 22 25 28 34 35 38 41 46 50 57 64 69 76 75 64 59 60 55 71 66 63 53 50 51 50 49 53 51
19 20 23 24 18 19 20 19 21 32 26 26 33 21 16 18 20 23 25 30 33 38 42 48 55 62 66 68 67 61 61 67 62 73 54 48 47 47 46 42 46 50 54 59
24 21 27 28 24 23 24 20 19 20 28 31 46 23 18 22 22 22 23 27 33 39 46 52 56 58 59 59 60 66 66 53 69 52 38 39 40 39 41 44 50 54 59 64
30 21 24 31 23 20 29 22 20 22 37 28 18 15 16 19 19 20 24 28 36 48 49 51 54 55 57 62 66 60 55 56 46 37 36 33 36 44 48 52 56 60 66 72
30 33 24 22 24 24 22 21 21 24 22 28 20 14 9 11 16 18 22 28 40 47 48 50 52 53 57 60 55 53 55 46 41 40 34 32 40 48 50 55 61 67 73 72
30 34 34 39 28 29 29 23 21 19 19 16 14 15 11 12 14 17 22 30 39 44 46 49 51 52 54 52 49 51 44 41 44 36 35 37 41 45 49 55 64 67 68 67
37 37 43 39 33 30 54 32 22 18 17 18 24 17 17 19 20 19 24 33 38 44 47 50 50 51 50 47 45 40 42 44 41 38 35 37 42 46 50 51 56 65 69 70
42 43 50 51 61 76 17 17 16 22 18 15 15 16 16 19 21 26 29 34 41 45 48 50 50 50 48 44 40 43 41 39 40 38 40 42 47 53 56 60 66 68 69 74
31 42 60 88 38 24 19 14 18 20 19 13 17 13 16 31 34 33 35 38 42 48 51 51 52 51 45 41 43 42 41 36 36 38 42 48 54 60 65 70 72 74 73 78
32 35 46 67 87 88 25 23 26 24 26 18 20 22 28 36 41 30 40 45 50 54 53 53 54 46 43 45 48 47 37 35 39 43 50 57 64 68 71 76 85 87 81 74
75 78 80 64 93 49 21 26 30 34 35 27 24 23 28 31 44 50 47 54 56 54 54 51 44 44 45 56 55 46 38 38 42 52 59 64 70 72 74 77 84 89 80 89
61 77 91 80 98 80 24 29 37 38 30 34 34 34 38 44 64 60 58 59 57 56 46 44 44 52 59 63 52 39 36 39 50 61 66 72 74 78 75 77 79 82 87 92
46 39 46 45 43 31 26 27 41 40 39 40 45 43 49 55 62 62 62 60 52 46 45 50 63 78 65 55 44 46 50 57 62 69 72 75 85 79 89 78 78 87 97 98
33 36 42 41 23 24 28 32 36 38 42 44 51 55 54 53 60 62 60 50 48 54 67 89 95 71 49 48 46 55 65 66 68 75 76 80 88 95 92 97 88 91 92 91
34 37 34 35 26 25 36 52 61 59 65 66 68 67 65 61 65 54 50 54 71 90 98 90 64 53 46 53 58 60 62 67 73 75 77 83 87 100 100 100 99 97 95 94
35 32 48 49 48 44 57 72 75 67 68 68 66 67 68 63 54 62 81 97 97 95 96 73 57 42 43 52 54 58 62 66 72 82 87 88 95 100 100 99 98 100 100 95

GFSCGP_850_rhum_054.txt.gz
RH
19 22 24 21 18 14 14 15 16 15 10 12 11 15 18 18 22 30 29 30 33 34 42 50 51 52 49 50 67 81 79 76 82 87 86 86 76 79 69 67 56 46 65 67
22 30 18 17 16 15 11 13 10 9 8 10 10 14 13 17 17 24 28 31 35 38 50 57 62 64 59 66 75 64 83 82 83 84 90 93 86 68 61 64 55 64 61 64
37 47 31 21 12 12 15 23 24 14 10 10 13 13 18 18 19 22 26 32 37 43 54 64 72 79 80 79 82 82 85 80 80 79 75 73 63 63 65 62 67 72 72 77
34 25 28 21 14 13 28 21 22 17 21 17 20 32 34 21 24 25 29 30 34 41 50 61 73 83 81 84 86 84 83 79 75 67 64 65 61 59 58 66 75 76 76 74
27 27 25 16 14 17 30 19 23 13 13 25 30 34 35 25 25 28 28 32 35 40 49 57 72 69 81 83 81 73 68 68 66 59 58 59 57 61 66 69 72 71 65 62
18 23 23 20 15 14 20 25 19 16 19 42 32 35 29 28 24 27 29 35 39 46 51 54 61 66 68 68 65 66 64 63 66 65 63 63 64 66 68 65 60 58 56 52
21 18 14 16 16 15 18 21 33 76 66 35 13 26 30 34 36 32 30 35 41 44 47 46 52 55 64 66 65 64 62 65 70 72 75 76 74 70 60 58 61 58 56 49
24 29 17 15 16 43 35 17 53 51 68 34 29 21 24 20 20 24 29 34 42 46 43 41 44 51 63 69 70 62 62 65 73 78 76 72 66 60 60 59 61 62 60 60
34 28 30 15 13 26 21 23 21 23 23 40 22 13 27 22 22 24 31 36 43 46 42 38 42 48 57 64 66 63 62 65 72 73 70 67 63 62 69 65 64 63 64 63
39 57 35 18 17 16 18 15 29 24 40 41 18 16 28 29 25 25 31 36 42 44 40 39 41 46 53 59 64 67 63 63 68 69 66 60 70 64 65 63 59 56 56 53
25 55 26 20 21 15 23 24 19 16 28 45 51 25 23 21 22 26 27 33 39 40 39 40 41 47 53 59 62 71 70 65 65 63 59 68 70 74 56 51 51 50 50 52
16 21 28 24 16 14 17 20 19 46 30 33 44 33 15 17 21 21 21 29 35 36 38 40 43 50 56 66 73 77 69 62 61 61 70 71 53 48 48 47 43 46 50 55
21 27 38 25 21 20 22 17 16 20 31 38 71 35 17 16 18 19 19 26 30 34 36 40 45 56 62 66 69 68 61 62 62 64 46 44 41 41 40 42 45 50 54 59
30 24 25 36 22 22 25 22 17 20 59 42 38 23 16 19 19 17 19 19 28 31 35 42 49 55 59 62 62 61 68 64 56 45 43 37 35 37 45 50 52 55 59 65
28 29 21 18 17 19 24 22 19 20 22 36 31 20 13 12 18 17 17 21 25 33 41 46 49 53 54 57 62 66 62 57 46 40 38 34 35 41 48 49 52 57 64 67
29 38 34 38 27 24 29 23 21 20 20 17 19 18 12 13 14 15 16 20 23 34 42 44 47 51 54 59 61 55 56 48 43 42 36 37 38 39 38 40 45 53 56 61
34 45 54 57 34 34 53 34 25 20 17 19 24 20 15 16 17 18 19 17 25 32 39 42 46 49 53 54 54 50 46 44 44 40 37 37 37 39 45 49 53 56 60 67
39 47 65 76 62 69 24 15 15 18 16 14 14 14 14 18 21 23 23 25 31 34 40 44 48 50 51 49 47 42 43 41 41 38 38 40 44 47 52 57 64 67 70 71
31 54 78 97 56 30 23 16 17 19 21 17 18 17 18 30 28 25 28 31 35 39 43 47 49 50 49 45 41 43 42 43 36 43 45 43 47 51 63 65 69 73 73 76
28 42 72 85 97 84 28 22 20 19 35 18 18 22 24 28 46 40 36 38 39 44 49 50 51 51 46 42 46 45 51 47 44 40 38 36 47 67 68 70 73 76 74 72
78 90 91 77 95 64 25 24 25 40 48 26 27 21 24 31 52 49 43 46 48 51 51 52 51 44 44 50 55 58 62 43 37 39 43 42 63 70 70 72 73 76 80 82
79 88 96 87 100 91 24 25 36 41 31 34 30 35 44 60 61 52 53 55 54 52 48 44 44 47 55 63 70 61 51 52 41 43 40 52 70 72 67 68 78 78 80 88
50 46 64 64 67 33 22 30 40 36 36 37 44 44 44 48 57 56 58 55 47 44 44 46 59 72 74 78 67 52 36 36 50 41 61 68 72 76 69 63 60 86 87 87
31 33 49 46 25 26 25 30 39 43 47 50 54 56 54 51 55 60 55 46 46 49 67 77 76 82 71 66 50 48 53 59 66 63 66 69 75 76 81 80 78 88 97 100
36 35 36 33 28 26 47 58 62 61 65 60 63 63 62 58 60 53 48 51 68 75 76 84 84 81 57 52 48 47 57 60 64 66 69 72 72 85 89 95 100 100 100 98
32 34 58 63 51 49 63 69 67 64 65 63 62 59 56 54 51 56 68 69 74 85 79 73 65 62 47 51 50 51 54 58 63 68 61 65 74 80 88 99 100 96 95 95

GFSCGP_850_rhum_057.txt.gz
RH
23 29 30 25 24 22 21 22 24 20 17 24 25 30 32 31 35 36 37 31 29 32 32 33 38 46 57 68 74 74 75 77 80 82 73 79 78 82 83 81 64 52 45 56
29 34 25 24 21 22 23 23 27 18 15 16 21 22 24 42 40 23 30 40 32 41 43 44 44 49 61 60 72 79 76 77 78 80 81 73 73 71 70 68 61 55 60 56
36 34 30 31 34 34 25 29 22 24 22 11 13 23 29 24 42 33 28 38 33 43 49 50 56 54 65 63 75 74 80 82 77 75 81 82 77 67 68 63 58 59 64 69
35 29 27 32 35 27 32 24 26 26 30 29 24 50 33 30 26 45 43 42 41 48 53 58 66 70 78 79 85 82 81 70 76 81 82 67 59 61 62 61 66 70 73 69
33 32 34 34 30 24 31 24 27 28 30 31 32 49 39 29 32 32 34 35 42 46 52 64 70 72 76 80 80 79 64 76 81 73 64 68 62 63 62 68 73 76 70 59
29 21 26 33 22 21 23 25 30 43 40 47 32 41 43 36 31 34 32 33 38 48 56 64 69 72 67 75 81 76 72 78 66 61 62 62 65 65 69 73 71 66 58 56
23 26 20 23 30 22 28 32 57 67 74 62 31 40 38 31 41 36 40 36 45 50 57 66 71 74 70 78 82 80 76 67 66 62 63 62 67 68 69 67 62 58 56 55
38 38 31 21 24 32 32 40 60 62 78 57 43 47 38 30 29 29 36 36 44 52 54 60 70 73 75 70 67 67 64 64 66 66 67 68 72 73 67 57 58 60 61 62
38 38 34 27 24 23 45 62 40 43 45 50 42 37 34 29 34 44 40 41 46 49 48 53 59 61 62 66 67 66 63 63 66 68 72 73 73 64 58 65 67 81 68 55
46 49 48 40 29 23 29 37 42 49 38 42 37 31 49 37 35 42 43 46 46 48 44 46 50 51 52 55 56 62 63 64 69 76 77 74 68 63 67 73 70 65 52 54
45 48 49 41 40 36 28 29 26 31 51 55 66 42 35 38 37 40 44 42 45 48 44 41 45 48 52 58 60 66 64 64 68 72 73 69 61 69 65 60 60 50 51 49
38 56 68 51 37 23 21 25 40 59 38 50 62 50 19 28 32 28 36 39 43 46 45 40 42 48 55 60 65 68 68 66 66 68 67 62 62 53 54 53 48 44 46 48
32 39 49 39 31 25 25 24 21 30 56 46 69 53 22 23 28 25 24 36 41 44 42 40 42 46 54 61 68 73 72 68 64 65 61 53 47 48 52 42 42 45 46 49
30 35 44 53 35 28 30 26 25 29 71 50 53 39 30 25 24 23 20 29 37 40 38 40 46 55 63 68 71 74 74 66 62 60 44 44 47 54 36 39 44 44 44 53
37 40 27 26 28 28 26 28 30 30 35 50 41 36 29 22 29 20 19 19 31 36 38 45 54 60 65 67 68 66 65 63 63 46 40 42 40 37 37 38 38 38 44 48
37 49 35 42 38 37 36 30 30 30 28 26 26 28 21 20 16 18 20 22 26 39 44 49 53 57 57 58 61 61 63 61 50 42 41 41 39 31 24 24 26 20 31 51
51 53 68 60 44 42 54 36 32 32 28 25 31 29 24 24 25 21 21 21 25 39 43 46 49 51 53 56 58 62 58 53 45 44 39 35 34 32 39 37 20 38 56 63
57 58 77 77 63 56 40 26 20 23 21 21 24 31 37 32 28 26 27 28 31 37 42 44 47 51 56 57 58 54 49 44 44 40 38 54 54 62 39 43 49 60 65 67
50 74 84 72 76 51 34 22 19 22 29 25 29 36 33 28 32 39 35 36 38 40 44 47 49 52 53 52 48 44 42 42 37 45 60 73 59 42 41 39 61 68 68 61
52 69 73 96 86 70 50 25 20 20 46 36 30 32 32 29 72 64 39 41 45 46 48 50 50 49 47 43 43 43 45 46 52 56 80 54 51 36 55 65 70 71 73 73
86 88 82 96 95 77 51 27 23 43 53 33 36 48 39 69 60 50 47 49 50 52 52 51 49 46 44 45 46 50 54 57 75 62 65 57 51 41 52 55 64 71 79 82
75 92 97 98 96 79 41 27 40 54 37 37 44 54 56 55 51 55 54 52 51 50 48 47 46 47 52 53 55 59 74 66 54 59 53 51 43 57 70 64 51 48 55 83
80 78 87 78 83 55 36 41 36 36 44 47 47 48 52 58 58 57 53 49 47 46 45 47 50 56 59 62 67 87 50 52 44 48 44 42 52 59 68 67 58 59 62 64
44 40 64 56 42 39 51 49 46 47 54 53 54 54 54 57 59 54 49 46 47 50 55 59 59 63 75 82 57 57 48 45 49 50 47 52 59 64 68 58 69 81 73 65
54 45 48 50 64 65 67 62 61 58 62 63 63 63 63 60 50 48 49 50 56 59 64 70 77 70 61 62 54 48 48 52 55 57 62 63 58 54 50 63 73 79 71 83
44 52 67 72 66 68 73 66 65 65 63 63 62 59 54 55 51 52 59 64 70 79 67 62 69 67 48 48 50 51 50 52 56 58 60 63 62 62 67 70 68 70 65 71

GFSCGP_850_rhum_060.txt.gz
RH
25 30 31 26 24 25 27 28 32 28 27 37 37 31 37 39 43 48 67 78 68 49 44 51 58 52 55 64 55 41 56 72 79 79 75 79 70 73 78 76 61 53 50 48
36 40 26 27 30 34 35 37 34 24 23 36 29 31 37 45 42 38 42 45 53 58 59 58 56 61 63 68 69 66 68 71 78 80 69 70 77 81 85 81 67 61 57 56
41 36 28 30 36 36 37 40 29 28 23 25 24 30 31 34 39 37 37 34 36 37 47 52 59 57 65 71 74 73 72 78 83 87 85 81 81 78 74 70 62 53 59 64
36 31 30 33 32 33 43 30 26 24 26 25 24 41 36 32 45 46 36 41 36 36 40 54 56 59 62 70 75 79 83 90 85 87 82 62 50 51 57 54 61 66 67 67
34 36 34 31 32 29 38 27 26 27 37 35 34 36 32 32 38 40 42 38 41 43 45 46 46 50 63 70 78 88 94 86 85 81 77 76 54 54 55 65 69 70 71 67
26 25 27 30 29 28 25 27 44 49 47 49 37 38 37 35 28 32 38 38 42 48 54 55 55 59 63 73 81 93 74 78 84 84 76 70 63 60 65 69 75 76 68 65
26 28 22 26 26 27 29 41 58 57 66 56 38 44 37 31 31 31 37 43 46 51 58 60 66 65 75 69 81 70 77 87 83 70 74 74 67 66 67 70 76 73 69 57
38 37 27 22 26 28 40 38 59 49 61 48 40 47 36 33 28 31 31 35 42 51 56 64 70 68 71 71 78 72 80 90 67 67 69 68 70 70 72 69 62 62 61 64
41 40 44 30 30 26 36 47 52 56 51 53 43 35 36 31 34 35 41 49 62 59 60 66 73 69 67 74 78 79 87 76 66 64 64 68 72 71 70 64 71 77 82 66
36 47 43 39 30 28 29 38 52 63 40 40 39 38 49 37 40 50 52 54 58 62 63 66 69 71 68 68 69 69 68 66 66 66 65 69 73 74 65 65 68 72 71 57
43 39 38 40 37 32 34 34 36 42 54 54 63 45 35 40 42 50 51 44 52 56 58 61 64 65 60 61 66 67 67 65 62 62 68 75 76 68 76 74 70 73 46 45
39 51 56 42 34 35 32 34 39 61 37 56 63 47 26 37 38 40 41 45 47 48 49 50 52 56 58 53 55 57 59 57 59 68 75 75 70 76 82 56 66 55 47 44
43 48 60 52 39 32 37 28 30 47 57 46 68 52 27 27 35 33 40 42 45 46 48 47 49 52 51 53 55 63 65 68 72 75 73 72 80 63 50 59 57 44 45 48
31 45 44 61 43 32 32 30 28 37 68 48 58 38 30 28 29 32 30 35 40 44 48 46 46 50 55 60 64 71 72 74 72 72 75 58 50 47 57 51 44 42 40 33
37 39 35 34 31 32 31 30 29 33 38 47 39 45 31 28 28 25 25 23 38 50 52 48 50 61 65 69 71 72 71 72 73 66 50 45 44 46 51 46 33 30 46 52
42 39 35 37 40 37 35 30 34 33 29 32 32 34 29 23 24 24 22 24 35 45 48 50 56 63 68 70 75 77 79 73 60 54 47 39 41 46 39 41 45 65 63 33
51 57 66 56 47 43 61 40 35 31 32 31 34 29 28 32 30 27 22 22 30 41 46 54 59 63 68 72 72 74 69 64 56 49 41 39 36 42 51 67 67 48 38 46
63 67 74 78 64 69 46 32 32 32 31 29 39 40 37 38 42 34 32 26 37 50 56 60 62 64 66 67 68 66 61 55 50 44 41 41 51 68 58 42 44 38 46 52
57 77 85 73 77 57 40 26 21 26 31 35 44 39 44 42 39 48 41 37 41 46 51 54 56 58 61 64 62 58 49 46 44 42 43 63 65 54 48 46 38 44 57 62
61 72 77 97 72 69 48 30 21 27 48 36 38 39 36 41 74 68 54 46 45 47 51 54 59 61 62 56 50 46 42 41 44 52 62 79 47 49 48 41 43 52 55 59
83 92 82 97 80 66 46 36 25 37 44 42 42 40 45 71 60 57 56 51 51 51 52 53 53 51 47 44 43 44 49 52 67 75 76 52 55 48 45 44 52 54 52 48
63 84 97 95 88 67 40 30 39 44 50 52 49 49 59 58 54 53 53 52 52 51 48 47 47 48 49 50 49 52 61 80 90 54 46 34 31 33 40 47 52 50 46 47
66 60 77 75 75 49 41 39 40 40 49 53 50 56 53 56 53 52 52 51 50 49 49 50 50 52 53 55 64 91 70 48 39 30 28 31 36 39 45 50 51 51 49 52
51 61 73 68 56 65 56 48 44 40 44 53 55 57 58 56 53 52 49 50 50 51 51 53 57 64 71 71 54 43 40 38 37 36 40 44 46 46 51 56 55 52 56 63
60 54 61 84 77 70 68 61 58 55 53 51 52 55 60 58 54 53 54 57 58 61 66 71 75 61 50 46 45 47 49 51 51 52 53 55 58 60 62 64 63 66 63 65
51 57 68 75 64 63 72 72 64 60 61 60 55 60 59 56 54 55 59 62 68 74 63 54 56 54 50 50 52 53 54 56 58 59 62 67 70 72 73 77 87 86 83 72

GFSCGP_850_rhum_063.txt.gz
RH
26 33 34 28 29 28 32 35 35 30 28 38 42 37 44 64 64 72 84 88 78 56 40 56 62 67 73 82 78 67 43 53 66 77 84 90 87 83 73 73 68 55 50 48
32 35 29 28 31 32 34 39 40 35 29 34 40 38 33 56 56 64 71 84 71 62 55 48 62 73 74 72 66 53 41 50 75 82 83 80 84 81 79 79 72 67 59 55
37 32 29 31 35 34 35 38 41 39 26 28 30 34 39 53 49 54 67 57 60 45 47 43 53 71 69 70 65 44 41 56 65 81 84 86 82 80 86 82 77 68 61 53
36 32 32 34 35 34 40 32 37 34 26 36 24 41 39 48 50 50 56 62 59 50 43 43 53 63 57 55 66 63 55 61 74 89 92 90 79 80 77 69 66 59 60 69
30 37 36 37 32 31 36 31 30 29 35 35 35 36 33 36 52 48 46 51 50 51 48 48 44 46 50 54 62 69 69 74 80 88 99 92 75 60 57 62 63 67 74 79
29 27 32 30 27 30 28 32 40 47 47 46 36 39 40 42 35 40 40 42 44 44 44 43 45 44 46 50 63 73 77 84 91 94 98 88 68 55 58 61 70 76 81 80
28 29 24 27 30 28 32 40 52 54 62 50 40 44 42 30 29 33 38 39 42 43 49 44 45 49 50 60 72 74 82 88 93 97 86 80 78 63 59 60 69 78 82 78
37 38 27 23 26 29 42 38 57 44 55 46 41 49 38 30 31 33 25 34 42 53 54 57 58 63 65 67 62 69 77 83 82 85 84 77 71 69 66 71 76 82 72 77
42 37 40 37 30 28 40 46 43 56 56 61 48 37 31 36 42 43 58 44 50 52 53 51 58 56 63 61 64 67 72 78 84 83 76 72 81 75 71 80 76 77 83 84
34 35 39 38 32 30 31 42 54 66 47 43 41 40 40 34 37 50 55 62 51 54 61 57 58 58 63 67 62 70 69 75 80 73 70 71 76 73 74 75 71 83 85 78
40 36 34 39 39 37 41 42 40 49 54 54 61 47 37 38 38 44 53 48 50 58 61 58 59 63 65 64 65 72 77 78 81 69 67 70 72 73 69 70 80 86 84 63
39 45 47 38 32 33 31 36 42 60 42 61 63 51 27 38 38 39 36 41 51 54 52 54 59 69 70 68 72 70 72 74 73 69 68 69 73 71 68 79 88 64 56 48
44 49 54 42 35 39 43 38 41 51 60 58 71 53 29 30 32 29 38 39 42 52 58 62 68 68 70 72 70 67 67 69 70 71 74 72 72 75 80 72 59 65 50 45
32 49 43 54 39 34 36 32 33 43 70 50 59 39 30 31 31 30 29 32 39 44 52 55 64 71 79 75 71 68 68 72 73 74 74 75 77 81 74 54 53 46 43 28
39 45 40 39 33 31 30 32 36 41 41 48 41 47 36 33 30 26 20 28 38 50 55 56 62 69 74 75 74 73 74 73 77 78 78 77 77 59 50 48 50 34 33 46
44 44 34 41 40 39 38 36 34 37 33 43 40 40 34 27 25 26 26 28 28 38 51 55 54 59 65 69 73 74 76 81 80 81 79 69 49 47 43 38 44 47 62 68
48 61 62 49 48 46 61 49 39 35 34 34 39 36 29 31 36 40 31 27 32 41 50 54 56 59 64 71 75 76 80 78 81 73 54 45 41 39 40 56 65 69 40 27
59 63 70 74 65 68 41 37 33 38 32 34 36 40 40 46 54 51 43 37 38 44 53 61 64 67 70 73 78 80 83 80 60 47 41 39 50 65 69 72 61 37 24 26
60 77 82 74 78 56 44 34 36 31 31 36 44 50 49 47 40 51 50 50 51 53 57 61 67 70 75 81 86 86 67 53 44 41 45 61 60 84 90 48 39 27 23 34
62 74 75 92 74 77 56 36 23 28 43 35 40 54 51 41 45 66 56 51 51 57 64 68 74 76 78 79 74 64 49 44 43 49 54 63 80 95 46 34 25 24 34 41
89 94 85 96 81 72 49 35 25 37 46 36 35 39 41 51 49 53 56 53 53 56 61 65 67 68 68 63 55 49 45 45 52 65 82 93 57 44 28 24 28 34 39 40
70 87 94 91 78 71 40 40 37 41 43 41 43 40 46 48 56 57 56 54 55 56 60 62 61 56 47 45 44 49 60 73 89 88 73 46 32 29 30 33 35 39 42 42
57 64 77 72 72 51 44 34 31 31 38 50 42 44 38 50 56 56 54 54 54 53 51 51 50 49 50 52 57 79 86 86 52 34 31 34 37 38 43 47 50 54 57 58
58 60 67 61 58 59 56 44 38 40 40 48 45 45 46 49 54 56 56 54 51 51 51 53 54 58 66 66 67 56 43 43 43 43 47 50 55 58 61 64 66 68 69 71
65 65 78 83 80 70 64 56 48 50 50 54 59 54 52 51 56 56 55 54 54 57 61 68 69 69 75 54 46 47 46 45 43 44 47 51 56 62 64 68 74 79 79 86
58 67 76 76 70 58 63 60 57 54 57 57 55 64 58 56 55 54 56 61 65 73 71 71 72 60 49 50 50 48 47 47 48 48 50 51 50 47 46 44 37 36 38 44

GFSCGP_850_rhum_066.txt.gz
RH
29 34 36 30 32 31 32 35 37 34 29 32 38 37 68 62 77 86 77 78 86 73 57 60 58 60 67 72 79 79 85 80 70 70 74 75 76 89 93 77 66 67 62 52
34 35 29 30 31 32 34 36 40 36 28 34 43 43 37 67 73 74 81 80 73 78 71 65 55 53 56 68 74 80 80 75 66 66 71 73 82 90 85 74 72 64 54 51
37 31 31 31 33 36 35 37 40 39 31 33 38 36 41 50 61 63 68 68 72 60 55 54 58 58 50 54 55 63 65 59 58 58 71 81 93 91 83 79 77 68 61 59
35 32 35 36 36 38 40 35 37 38 32 37 27 40 38 46 58 58 58 70 67 67 55 41 38 48 44 44 54 62 67 59 59 61 75 84 93 89 82 80 81 74 67 67
30 40 38 38 35 32 37 30 34 32 36 37 36 38 33 48 57 56 54 58 58 56 57 47 40 41 45 50 59 63 66 59 61 69 80 91 100 91 86 88 82 72 68 74
29 30 35 34 28 30 30 34 40 47 48 48 37 41 41 46 45 44 46 48 50 52 54 50 46 44 49 55 68 69 68 68 57 73 84 100 100 93 76 75 72 71 72 79
30 31 27 28 28 30 34 39 52 53 60 52 41 47 44 30 29 36 45 45 43 50 51 50 44 44 46 56 62 63 67 72 77 81 91 92 99 87 66 60 62 64 69 77
39 33 30 27 27 32 39 38 56 43 53 46 43 50 36 30 32 33 32 32 42 43 45 46 48 43 45 50 54 55 59 65 76 90 97 100 97 85 74 65 65 67 72 82
41 36 35 37 32 29 42 45 39 59 58 65 51 39 25 28 38 44 52 36 36 43 40 39 43 45 48 45 51 57 63 68 78 91 99 92 83 76 70 68 68 72 77 86
33 33 38 37 34 36 31 44 49 61 50 48 44 41 37 28 33 43 60 59 41 37 42 40 40 40 43 44 52 63 66 69 83 88 79 79 71 69 74 76 76 80 83 87
36 34 32 38 41 38 44 43 47 50 58 53 63 44 38 33 34 40 46 44 52 52 43 40 39 39 44 50 57 64 60 66 72 69 73 69 70 73 82 81 78 79 82 87
39 42 42 38 34 33 37 42 46 60 47 63 64 57 28 30 35 37 38 33 41 50 52 53 48 49 55 62 55 68 63 66 70 76 84 77 80 81 79 78 79 88 88 84
43 43 46 39 36 39 41 41 44 53 61 61 71 57 29 33 33 28 32 30 30 38 49 57 62 62 62 70 68 75 72 72 78 88 80 73 74 72 72 72 82 89 66 52
31 51 42 43 39 39 44 41 46 48 74 55 62 41 33 30 32 32 25 25 29 35 42 49 57 60 65 69 73 72 68 68 88 87 75 77 75 75 74 82 73 57 49 47
40 41 43 38 35 33 33 31 44 44 43 49 42 49 37 33 32 28 23 22 24 33 37 46 60 66 72 78 68 60 65 85 98 82 79 84 89 80 83 62 54 50 44 34
46 44 37 40 42 43 41 41 42 41 39 43 42 45 37 30 26 27 28 26 27 32 45 54 56 69 80 80 76 87 89 89 85 80 89 93 87 78 62 49 44 42 53 71
49 60 59 49 51 45 59 50 44 42 41 41 49 42 29 29 42 54 46 40 35 38 37 48 59 64 73 82 89 88 87 82 83 88 92 83 66 54 43 42 51 70 81 84
61 58 65 72 64 59 39 40 38 45 42 37 38 36 36 43 60 58 58 57 49 49 53 57 62 64 70 77 82 88 85 86 91 90 78 60 45 54 66 76 82 77 59 37
59 72 80 72 73 50 40 41 42 40 39 37 42 50 55 56 55 58 55 54 54 57 58 61 67 72 75 78 82 85 89 89 81 63 48 51 65 69 77 86 77 56 44 29
65 70 70 88 74 71 53 42 27 25 45 40 46 60 59 46 42 50 57 62 63 65 69 72 78 79 80 83 84 85 80 62 46 48 57 59 81 78 85 74 50 32 28 30
88 90 77 95 81 73 54 33 24 42 48 38 38 45 46 42 41 49 58 58 62 68 74 80 85 87 88 89 80 62 46 44 51 61 72 70 88 77 51 34 29 32 33 35
75 87 88 87 83 69 41 40 38 41 34 36 36 41 45 44 52 56 57 57 62 65 70 73 73 66 56 52 52 49 49 64 70 67 80 75 43 39 42 46 47 53 55 58
66 64 74 69 72 54 39 34 28 27 30 37 33 36 36 40 53 57 57 58 60 62 62 60 56 50 53 58 64 72 72 78 79 78 41 41 40 43 48 52 52 55 60 66
55 58 64 59 55 61 48 40 37 32 30 33 34 34 34 35 53 57 58 57 55 54 53 53 54 57 62 62 68 80 95 68 43 41 41 43 44 43 45 49 53 54 52 49
65 63 74 73 76 72 63 50 38 39 40 40 40 36 38 41 57 57 57 54 54 55 59 61 63 64 72 89 87 51 47 43 41 39 38 34 26 21 18 16 12 8 7 12
68 70 73 68 45 46 46 41 44 46 48 46 43 50 52 50 53 58 56 56 58 64 68 64 68 90 95 60 49 46 41 33 25 20 18 17 15 9 6 5 5 6 9 18

GFSCGP_850_rhum_069.txt.gz
RH
30 32 35 30 30 26 29 32 34 31 26 29 32 37 54 67 80 78 77 75 66 79 63 60 65 64 61 59 72 82 87 91 78 55 72 84 85 80 80 77 86 72 63 66
32 36 28 27 30 32 34 34 32 30 29 33 34 32 40 57 68 72 71 78 72 64 79 68 60 65 65 62 66 71 78 82 79 68 64 72 72 78 78 86 74 70 69 61
37 30 32 33 36 36 35 36 36 33 32 32 35 30 37 46 58 69 73 70 75 66 57 64 66 63 60 65 62 69 76 77 82 77 68 72 80 88 93 82 73 72 64 54
34 32 34 37 36 35 39 33 33 37 33 30 28 30 28 36 49 57 65 74 65 69 62 55 57 63 62 58 55 67 75 75 73 76 70 70 75 74 87 82 78 75 65 60
30 40 39 39 37 34 34 34 35 34 34 34 35 30 24 39 41 43 50 61 65 50 54 53 50 48 54 58 56 61 69 78 79 75 75 73 86 97 96 87 79 77 69 66
30 32 34 32 33 32 34 36 36 40 41 43 37 33 28 26 31 35 37 48 58 49 48 49 46 42 41 45 56 63 64 73 76 79 73 68 89 98 99 89 85 80 75 70
32 32 29 29 31 32 33 37 41 45 47 42 40 41 31 30 28 28 29 43 40 42 42 47 50 45 41 39 45 58 63 62 67 78 72 72 79 98 100 94 86 84 73 69
35 34 31 30 28 30 36 35 47 39 44 37 42 41 25 29 29 32 34 38 35 39 41 43 43 46 41 39 42 48 55 63 59 70 76 69 88 98 98 80 66 62 61 64
42 33 33 35 33 30 41 41 37 53 56 57 43 33 22 27 31 36 39 48 40 38 41 40 43 46 46 42 43 46 51 57 57 66 78 87 96 99 91 78 71 66 68 74
35 34 39 39 35 39 35 39 46 50 50 48 37 36 29 24 24 33 37 42 40 38 43 43 44 47 45 47 44 45 51 54 57 65 78 92 100 98 80 83 87 74 78 90
35 35 34 39 40 37 44 43 44 41 46 46 47 34 31 27 27 32 34 34 32 35 33 37 43 44 48 47 48 48 49 59 64 74 83 89 87 78 82 86 94 84 88 87
37 44 45 37 33 33 34 38 41 54 46 54 51 42 26 29 30 32 36 34 29 26 31 34 41 48 48 48 51 50 55 62 56 67 80 82 81 83 92 100 98 93 87 84
43 42 40 33 34 39 40 39 42 49 55 54 61 42 28 28 26 27 32 29 32 33 31 40 46 46 46 50 55 54 62 60 56 64 67 73 93 98 89 96 94 84 92 92
30 46 40 36 31 37 48 45 44 44 59 51 47 37 30 26 27 26 26 24 23 27 33 35 40 48 52 55 60 57 59 62 64 65 70 95 100 95 88 90 92 86 77 65
40 42 44 37 32 36 38 38 46 42 42 47 38 41 30 27 27 27 26 24 22 22 28 40 49 53 58 62 64 60 54 58 64 95 100 97 89 81 93 96 79 70 74 49
47 43 48 42 46 40 40 36 41 43 39 37 38 39 31 29 30 29 30 31 27 25 26 40 56 66 76 78 79 78 87 99 100 99 91 84 79 100 96 66 74 68 52 72
51 58 58 49 49 46 58 49 42 40 39 38 42 32 33 30 31 43 48 46 43 38 41 49 61 70 84 91 97 99 99 99 99 97 88 90 99 77 61 70 66 72 75 84
60 58 63 68 63 69 38 40 36 40 39 38 37 36 32 33 55 56 57 63 59 56 55 58 62 69 80 89 94 96 93 91 90 89 98 88 61 54 66 79 80 88 76 66
54 65 72 76 62 48 37 41 42 43 28 36 36 34 44 61 62 60 61 64 64 63 62 61 66 70 75 83 90 96 95 89 90 92 78 58 62 72 73 83 81 77 59 42
62 64 68 77 67 63 46 36 34 30 43 31 35 45 58 62 51 41 59 64 68 68 66 65 72 77 82 88 92 92 92 93 84 64 60 63 68 78 84 81 61 40 30 30
79 82 68 79 77 63 47 36 27 50 39 27 37 48 58 43 41 44 60 69 73 76 79 82 84 85 88 92 94 89 72 61 59 61 63 71 77 82 61 42 32 30 32 36
71 77 84 80 82 62 45 33 42 40 28 26 34 40 51 39 46 58 64 71 77 79 86 89 88 88 83 78 75 60 55 69 73 66 67 80 74 47 35 33 35 39 45 48
73 61 70 61 62 50 38 31 23 24 24 28 30 39 40 40 54 60 64 68 72 76 77 73 68 56 51 52 53 54 70 72 74 91 85 40 37 36 37 39 41 35 24 13
62 60 62 58 53 54 48 36 32 28 28 26 30 35 39 36 51 58 62 64 65 64 61 58 55 57 67 70 70 65 78 92 61 38 38 36 35 32 24 16 11 7 6 9
62 61 67 67 58 64 48 46 42 38 34 35 38 37 38 35 51 55 60 60 59 59 60 60 59 60 62 69 80 86 59 43 41 36 30 22 18 14 9 6 6 8 13 22
64 63 67 65 46 40 30 28 34 38 35 37 35 44 44 39 45 57 57 56 58 62 64 62 62 66 83 89 58 46 42 35 24 20 18 13 9 7 6 7 8 10 15 22

GFSCGP_850_rhum_072.txt.gz
RH
25 25 26 18 17 17 19 21 22 18 19 21 20 20 23 44 48 43 47 49 60 59 67 74 81 82 81 84 85 94 97 83 78 61 64 65 64 80 73 72 75 76 77 70
26 28 20 19 20 22 21 23 23 20 21 25 20 20 18 35 44 43 44 45 45 67 63 65 72 81 83 85 92 97 99 94 89 87 79 90 86 76 82 80 78 83 76 69
22 21 21 22 24 24 23 25 25 23 23 23 24 21 22 24 36 44 46 44 47 46 64 65 69 74 80 80 87 90 95 98 98 97 86 97 98 77 80 80 84 81 71 74
21 18 24 25 23 24 27 21 23 24 27 23 23 21 17 20 28 36 43 47 46 49 47 59 63 67 75 77 78 80 83 93 99 98 96 71 87 94 92 86 87 76 73 67
22 23 26 26 24 24 25 23 25 26 26 25 23 19 16 20 21 20 30 41 46 49 49 46 56 60 66 73 82 89 90 98 98 89 88 91 96 100 85 85 90 79 73 65
18 24 24 21 23 24 25 28 28 29 26 30 23 23 16 16 17 17 18 24 38 46 48 53 51 55 62 76 92 91 89 95 85 82 81 79 95 76 84 91 90 83 75 71
22 22 20 24 25 26 27 29 34 39 35 31 28 27 19 14 16 19 18 21 26 34 45 49 51 57 58 72 81 77 79 89 90 77 80 79 70 65 80 91 95 96 89 78
26 29 22 20 21 21 25 26 31 36 35 28 29 25 18 17 19 19 25 28 29 31 35 46 49 55 60 68 48 43 46 61 66 64 71 77 81 72 67 88 98 96 90 89
25 22 19 22 21 20 31 31 25 34 42 36 22 20 14 14 15 20 22 29 33 32 34 40 47 54 64 73 44 37 39 52 56 54 68 72 77 80 81 94 100 100 99 97
21 24 22 28 26 28 26 23 34 32 40 37 23 23 19 16 16 19 16 16 31 37 37 39 43 51 61 70 76 48 51 43 50 57 68 69 77 82 84 100 100 99 100 90
18 22 34 32 31 24 33 31 28 27 30 35 34 24 15 15 15 18 17 22 25 36 40 41 44 50 60 69 77 75 59 66 81 61 69 80 95 94 99 100 100 100 94 83
19 23 28 26 23 23 22 24 27 32 32 34 38 30 15 16 17 20 20 22 27 33 41 44 50 55 61 71 78 78 75 75 82 86 90 100 100 100 100 100 100 100 99 99
23 27 32 28 27 30 29 26 26 28 34 31 45 31 19 19 20 19 20 20 25 31 37 49 56 64 67 70 77 78 89 84 60 81 81 74 83 92 97 99 100 100 94 90
24 23 27 30 21 17 26 22 23 25 35 28 25 23 17 17 18 17 17 21 24 26 30 41 54 64 75 80 87 92 99 84 64 89 69 85 87 70 90 100 99 99 93 99
26 26 24 20 17 16 18 17 20 26 23 26 24 20 16 18 17 17 19 24 24 23 27 35 47 61 78 91 99 100 76 67 90 98 95 92 99 100 98 92 92 88 97 81
29 27 27 28 22 23 23 21 20 24 22 23 24 21 15 16 19 22 22 25 26 27 30 34 50 69 86 97 99 95 89 97 100 100 100 99 100 95 91 100 92 87 83 87
39 31 36 35 31 33 51 34 24 24 25 25 26 19 16 18 20 22 24 35 38 47 54 55 63 78 91 98 96 100 100 100 100 100 99 95 87 89 99 84 73 73 76 72
43 40 39 43 65 77 26 25 21 23 22 21 22 21 19 18 25 37 45 46 62 68 73 79 85 93 98 99 100 100 100 100 100 97 89 84 89 91 67 67 72 72 90 80
40 43 55 82 48 28 30 31 29 30 26 18 19 18 16 24 38 38 54 61 73 82 84 87 91 96 99 99 100 100 96 96 94 90 91 94 68 62 74 77 97 89 80 74
46 48 50 63 75 76 28 21 24 24 35 18 18 21 23 39 39 24 56 61 69 75 77 80 84 90 91 95 95 94 92 90 92 94 72 69 76 68 89 86 78 69 51 47
71 67 74 60 80 38 31 31 27 38 34 22 21 23 32 36 34 51 57 66 72 74 78 82 85 87 90 87 82 78 84 88 75 70 68 68 74 75 77 63 40 36 60 57
60 68 84 62 98 77 35 32 32 25 34 26 30 32 38 47 47 64 67 70 74 77 79 78 78 78 78 77 80 76 79 76 67 68 68 68 77 76 43 35 40 45 49 34
58 49 48 48 41 35 32 24 26 33 24 33 31 38 46 55 58 62 66 70 72 72 71 72 71 74 75 75 76 73 73 73 69 64 77 80 42 35 36 35 30 20 14 12
45 51 54 49 29 34 39 33 43 38 38 40 42 43 51 50 55 60 63 64 67 68 69 72 73 73 73 72 72 73 69 70 84 66 38 36 34 31 21 15 12 8 9 12
34 41 43 38 33 45 45 47 40 42 32 30 34 50 50 50 55 57 59 64 66 66 68 69 74 77 78 69 62 68 79 70 41 37 33 26 18 15 11 8 7 9 15 9
42 40 51 51 32 38 27 37 35 36 31 31 32 45 54 53 52 57 61 65 67 67 69 75 76 71 68 70 76 72 47 42 35 23 18 15 12 8 7 11 35 13 14 13

GFSCGP_850_rhum_075.txt.gz
RH
21 22 22 17 16 14 15 16 17 15 15 17 16 16 15 26 30 34 32 45 51 54 74 79 84 80 67 78 81 80 87 80 81 84 90 83 80 80 74 85 82 81 93 85
20 24 16 15 14 15 17 18 18 16 14 18 17 17 15 20 25 32 37 35 42 47 58 71 78 80 66 71 69 76 81 96 96 82 76 71 76 90 86 90 76 73 76 76
21 17 15 18 17 19 19 20 21 21 17 17 17 18 15 16 23 28 34 33 39 41 50 56 63 67 71 71 74 75 85 96 96 76 68 72 80 95 96 91 98 74 78 90
18 14 18 19 19 19 23 17 19 20 21 34 17 26 24 14 20 24 30 32 32 39 44 50 57 67 70 69 75 77 79 90 89 92 73 74 86 94 95 97 98 74 83 83
18 16 19 21 20 17 21 19 20 20 22 20 17 15 16 12 15 17 22 30 31 34 39 46 52 54 63 68 71 76 76 72 75 92 83 76 78 75 86 97 91 78 81 77
15 14 15 17 16 18 18 22 22 22 23 31 19 18 18 13 11 14 13 22 28 31 34 36 44 47 51 60 71 74 72 68 71 86 95 89 87 81 91 90 76 85 79 86
18 17 16 17 22 19 21 25 35 38 32 34 23 20 14 16 11 13 13 15 20 28 34 34 34 42 46 52 64 71 74 72 75 94 98 99 94 90 89 78 70 83 92 88
23 24 18 18 20 23 22 22 32 46 39 29 24 21 15 12 12 12 13 15 17 20 28 35 37 37 40 47 60 72 75 80 78 88 97 99 98 94 94 87 90 79 94 95
21 19 14 15 16 17 20 25 18 29 25 31 22 16 13 11 11 12 13 16 19 23 22 26 33 39 43 46 54 69 75 76 78 84 96 99 99 96 99 98 98 88 98 96
16 21 14 16 16 16 21 20 29 26 37 48 22 19 16 14 12 14 13 14 21 26 26 26 28 34 41 49 55 74 76 70 72 80 97 99 94 100 100 100 98 97 99 98
15 19 19 18 23 21 23 25 23 21 29 38 35 21 18 13 12 13 13 14 15 20 27 29 30 33 39 48 58 71 74 64 64 77 95 100 99 100 99 100 100 100 100 98
17 20 24 22 17 14 15 21 21 30 28 26 28 27 14 13 13 14 14 14 15 19 23 28 32 35 38 48 54 64 74 66 63 77 93 99 99 98 98 100 100 100 100 100
18 22 29 24 19 20 22 20 19 21 23 29 52 35 12 13 14 14 15 14 14 18 20 27 33 38 42 49 57 63 71 70 65 79 98 97 97 99 98 98 95 95 94 98
23 21 25 30 22 19 24 19 18 20 38 32 27 20 14 12 15 15 14 14 15 14 19 24 33 39 47 51 60 65 70 74 84 94 97 96 99 100 100 100 100 95 95 82
24 27 21 18 15 14 15 17 17 19 21 28 22 18 13 12 12 13 14 15 16 16 16 21 26 37 50 60 67 69 82 92 100 100 100 100 100 100 100 100 98 96 86 84
24 31 24 22 18 16 16 14 15 14 14 16 16 16 12 12 12 13 14 16 18 19 20 22 26 34 54 69 80 85 98 100 100 98 99 100 100 99 99 87 79 85 96 97
30 33 30 36 21 21 34 20 17 16 14 17 22 17 13 13 13 14 14 15 22 26 34 36 36 46 67 80 93 98 98 98 99 100 100 100 100 100 95 99 100 96 81 81
40 36 36 51 63 60 25 18 16 18 15 15 16 15 14 14 14 16 24 25 30 43 48 53 57 67 77 90 98 99 100 100 99 98 100 100 97 98 100 92 80 79 74 92
28 44 49 68 51 32 21 24 23 21 20 15 15 15 15 14 20 21 30 37 42 55 60 66 71 78 88 98 99 99 99 100 100 100 98 93 94 94 79 69 78 86 94 85
26 41 58 63 59 60 29 20 18 16 32 16 15 16 16 16 30 17 39 50 60 62 67 73 80 84 91 96 99 99 99 96 90 85 83 88 82 78 84 80 91 83 77 64
69 65 76 64 70 35 19 18 18 37 33 16 16 16 17 19 24 41 50 55 58 60 66 73 76 80 82 84 88 87 85 78 77 76 76 79 82 75 82 77 73 65 61 65
69 66 83 65 90 78 28 29 30 26 20 22 22 19 21 27 47 53 53 56 59 61 68 69 72 74 76 76 76 73 72 76 80 81 79 76 75 71 74 70 67 67 67 77
48 46 52 43 43 29 30 23 24 22 24 24 25 23 29 45 50 51 54 58 60 61 62 65 66 69 70 69 67 68 74 79 77 75 75 76 75 69 60 60 60 56 49 57
22 20 38 36 28 28 28 32 29 29 30 28 33 30 35 46 45 50 53 56 58 58 59 62 66 70 72 73 73 72 70 70 72 74 74 70 59 50 42 38 39 52 51 51
25 25 34 31 25 23 32 34 36 32 36 34 36 34 37 42 45 47 50 54 55 58 60 61 64 67 66 66 68 72 75 74 72 69 58 54 36 37 26 30 28 26 13 10
23 26 39 45 29 32 28 32 34 38 37 40 41 40 40 41 45 46 47 52 56 59 63 66 70 70 71 72 72 71 68 64 58 50 50 38 29 22 32 49 32 18 21 14

GFSCGP_850_rhum_081.txt.gz
RH
26 34 39 34 30 26 26 26 34 34 25 29 27 35 56 50 51 69 82 96 96 98 97 97 99 90 84 91 89 88 84 82 78 72 73 76 65 59 57 50 54 53 61 78
32 36 28 25 23 23 22 24 24 20 19 21 24 22 28 38 48 56 62 70 82 97 99 98 90 96 86 77 82 79 68 72 80 76 68 71 61 63 62 57 58 64 77 82
35 30 23 24 24 24 23 22 24 24 22 21 24 30 23 25 43 46 51 61 67 65 81 90 97 99 93 75 60 52 53 54 54 51 62 64 70 66 61 51 56 58 75 77
27 23 24 24 25 21 25 21 20 25 25 35 26 44 28 30 40 46 45 57 74 73 72 83 83 77 67 58 56 59 68 69 68 71 71 71 78 84 70 68 59 70 73 74
25 24 25 25 22 20 25 22 24 26 31 33 32 40 34 27 35 43 49 49 60 66 60 76 80 65 58 63 67 76 85 85 81 76 74 86 88 78 75 71 62 71 77 74
21 17 18 19 18 19 18 23 26 28 34 48 34 37 40 32 30 30 39 51 51 64 62 55 57 74 75 63 64 66 79 83 87 79 80 86 81 71 71 73 67 70 76 70
26 23 18 15 21 20 22 27 53 66 66 64 51 49 34 25 22 24 38 39 48 50 61 64 60 58 69 73 69 63 65 78 77 79 71 80 74 68 71 75 75 72 67 73
36 38 22 16 18 24 25 30 62 64 85 82 66 60 35 23 18 15 17 33 39 47 54 56 55 55 63 65 65 67 61 68 75 76 77 72 71 67 71 75 77 74 71 71
34 30 18 16 18 22 29 36 30 55 64 72 63 44 27 21 19 16 13 12 34 41 47 50 50 53 59 59 57 56 63 65 75 80 79 79 79 76 75 79 78 72 68 71
29 36 21 17 17 21 23 24 42 46 74 82 45 47 41 27 23 18 17 24 22 30 41 46 47 46 50 49 50 53 56 56 51 63 75 75 75 77 77 77 78 74 68 82
23 32 31 24 22 25 29 30 33 34 48 59 60 50 36 29 23 19 18 16 16 18 20 29 39 41 43 45 49 51 54 59 64 64 64 72 74 78 81 82 70 73 70 95
28 36 42 33 22 18 21 28 31 63 49 56 62 54 27 24 24 21 18 15 15 15 23 21 21 33 44 44 46 54 52 57 65 70 72 73 75 78 75 87 87 92 88 96
30 41 50 38 27 22 24 25 24 32 44 53 79 62 24 25 21 16 15 14 14 16 17 22 22 21 40 45 45 49 52 61 67 72 72 70 75 78 74 88 85 100 100 98
35 40 40 49 37 30 31 24 24 31 55 49 54 39 29 26 21 19 16 18 16 18 18 18 25 25 23 38 46 48 50 57 62 68 72 72 78 84 73 72 73 99 100 100
41 52 39 34 26 26 27 26 25 27 33 39 39 36 29 24 19 18 18 15 18 18 18 17 26 28 30 33 48 52 54 59 67 70 68 71 74 72 72 65 79 99 98 95
51 50 46 44 35 28 27 26 25 23 24 24 25 29 21 18 15 16 15 18 19 20 18 17 21 29 34 38 42 49 54 61 61 60 63 63 71 87 98 95 98 99 100 100
60 70 54 60 40 39 49 31 26 27 23 25 29 24 19 17 16 15 15 15 16 15 20 20 21 22 38 43 46 52 59 59 61 65 75 97 100 99 99 98 100 100 100 100
70 73 74 80 61 69 35 23 22 25 24 19 20 19 18 16 14 17 17 18 21 23 25 32 31 35 48 52 55 58 61 65 86 99 99 99 98 99 99 100 100 100 100 97
63 74 88 96 72 56 44 25 26 26 30 20 20 21 19 16 17 28 20 19 23 27 32 37 40 48 62 65 71 76 83 90 96 96 90 93 94 99 100 100 100 100 100 99
63 70 86 95 96 89 45 35 20 23 44 25 21 23 26 22 38 37 27 21 28 36 44 46 51 59 68 78 85 90 91 91 87 89 89 97 100 100 100 98 99 99 88 82
90 91 94 96 99 83 39 31 25 43 51 26 23 22 20 35 37 25 32 30 31 40 52 58 64 67 75 80 87 89 90 94 89 87 88 96 100 100 100 99 87 81 95 97
84 88 97 93 96 95 36 29 35 40 24 23 23 24 25 24 28 28 31 29 34 48 64 73 75 79 79 82 90 93 92 93 99 98 98 100 100 97 87 82 90 92 88 85
88 79 85 71 73 55 46 47 46 36 43 31 28 29 26 30 33 33 32 36 45 54 68 78 83 86 92 92 86 94 99 96 91 88 87 84 84 88 90 91 83 78 69 64
50 50 56 60 46 37 39 40 38 36 34 35 32 32 28 26 31 32 38 46 53 60 68 75 78 84 86 84 87 85 84 83 80 79 82 84 81 78 76 74 72 68 65 61
45 48 52 57 47 37 29 28 33 39 32 34 32 30 32 34 37 39 47 51 54 60 66 70 76 77 76 76 75 73 74 75 79 80 76 74 70 70 63 64 66 63 55 53
37 42 61 68 41 39 35 29 29 30 28 29 34 31 33 36 39 44 48 52 56 60 64 69 70 69 72 74 77 78 78 78 77 76 71 62 56 51 55 56 41 38 30 27

GFSCGP_850_rhum_084.txt.gz
RH
28 38 40 36 36 32 33 35 36 30 27 34 37 38 44 52 67 86 89 97 96 98 98 96 100 99 100 100 100 100 100 98 85 78 82 67 68 74 79 62 56 68 84 74
35 42 31 30 32 33 33 36 34 25 21 29 27 30 36 59 68 80 91 99 98 98 98 100 96 98 95 98 99 98 96 97 99 86 81 76 85 78 64 57 56 64 65 62
31 34 27 30 32 34 34 34 32 25 22 22 28 31 34 44 54 67 75 63 82 92 79 98 96 81 75 83 94 97 89 88 86 77 69 64 64 66 62 56 58 62 53 52
26 22 30 33 33 30 38 26 24 26 30 36 27 46 33 46 59 60 65 69 73 74 48 61 80 81 78 81 79 91 93 86 79 71 67 68 68 62 61 55 53 49 46 51
28 26 30 34 31 27 32 26 25 27 31 36 35 44 37 45 61 59 58 68 71 61 38 36 58 68 68 75 70 69 66 70 71 69 64 63 66 61 62 58 52 42 43 52
22 17 24 26 25 25 23 23 30 37 39 51 51 50 47 39 40 53 49 62 75 64 51 48 41 54 68 67 61 60 57 56 57 56 55 57 59 59 59 53 52 62 63 65
28 23 20 20 24 23 24 31 48 57 58 62 62 57 45 32 28 41 48 49 72 70 58 61 66 59 55 51 54 57 65 70 70 69 71 70 68 68 70 70 69 76 66 68
40 42 26 23 26 26 30 32 60 58 76 69 60 54 43 28 26 23 37 46 53 73 71 60 55 50 50 52 52 57 64 71 80 84 86 78 76 76 71 74 70 68 65 55
45 38 23 21 20 22 29 38 33 60 63 74 64 50 34 27 21 17 32 39 54 54 67 62 61 61 54 48 48 48 52 56 64 74 82 85 78 77 73 69 68 67 74 73
35 42 26 21 20 21 27 30 46 55 77 74 62 57 47 29 21 22 22 42 46 49 54 64 64 60 56 52 46 55 56 56 53 62 67 73 78 76 73 73 68 69 72 70
25 39 38 26 30 27 32 37 39 42 60 74 67 51 38 30 24 22 24 26 35 44 47 50 49 47 50 54 59 60 66 66 65 58 57 65 70 77 80 77 74 74 78 73
29 34 42 36 26 22 26 29 37 61 55 59 64 53 28 28 26 25 21 18 26 26 30 34 34 34 45 49 63 62 65 61 62 58 59 55 66 76 79 77 86 84 83 80
36 39 57 38 33 29 31 28 30 44 54 56 77 57 32 32 28 22 21 17 16 21 28 30 32 35 37 41 47 52 54 51 59 60 60 61 64 68 71 75 78 93 85 82
41 49 35 43 37 34 34 31 27 34 51 48 59 41 33 30 29 26 20 17 16 15 16 24 28 29 28 30 37 43 46 47 50 55 55 58 62 66 71 78 92 98 78 59
53 53 45 38 33 33 32 33 31 30 36 41 37 40 36 32 30 25 16 17 20 18 19 18 23 26 23 23 29 34 42 46 48 54 62 64 67 75 75 68 86 64 82 73
62 56 43 50 40 34 45 36 30 31 30 32 35 36 28 21 24 20 17 18 19 18 18 17 18 26 29 30 30 37 45 46 50 56 61 67 70 71 72 67 79 72 99 100
91 73 57 61 42 40 59 50 39 35 32 28 37 32 23 24 23 19 17 17 16 18 19 19 16 22 30 34 36 38 43 52 59 60 65 70 69 83 100 100 98 99 100 100
94 83 85 86 62 71 57 34 31 32 29 28 22 22 20 19 16 16 15 15 17 18 22 26 23 22 31 38 42 45 52 63 63 58 63 82 97 99 97 96 98 97 99 100
89 88 96 98 86 57 48 39 31 34 32 27 24 21 20 19 24 27 20 20 19 22 22 23 25 29 33 45 54 58 60 68 76 88 93 95 94 90 94 99 95 100 100 100
78 77 89 99 100 88 51 38 31 25 42 26 25 25 24 26 42 37 24 21 21 22 22 23 29 37 49 60 72 76 78 80 86 93 96 92 92 88 90 97 100 100 100 100
93 91 97 100 99 86 57 48 28 48 51 28 23 22 23 31 34 20 25 27 25 25 29 39 46 53 69 80 85 87 90 94 96 91 86 85 83 86 99 100 100 100 99 99
99 92 97 94 99 95 46 45 44 46 38 37 29 27 22 21 22 23 29 37 39 40 50 57 61 73 82 87 90 95 97 96 99 90 92 86 89 97 100 100 100 99 93 89
86 76 86 74 74 53 43 53 43 42 43 38 37 32 25 23 26 31 36 44 53 55 63 73 76 81 85 85 88 97 100 98 99 100 97 100 100 100 100 99 92 94 98 99
59 61 70 67 52 53 44 45 38 38 37 32 35 32 31 28 35 37 42 52 64 70 71 79 83 87 91 93 87 91 100 99 98 95 97 96 95 94 96 98 94 86 80 83
43 57 61 58 49 43 32 36 30 30 27 31 31 35 31 34 37 40 48 57 62 68 76 82 86 91 94 94 91 92 92 88 86 84 85 86 91 86 76 72 70 79 95 97
45 59 72 71 45 45 31 31 26 24 27 30 31 34 35 32 33 44 54 58 60 67 77 82 86 87 85 84 80 82 82 81 80 80 74 69 73 68 67 86 96 96 94 93

GFSCGP_850_rhum_087.txt.gz
RH
30 41 43 40 39 33 34 38 41 34 28 33 34 41 34 46 54 86 100 97 92 88 96 97 100 99 99 100 100 100 100 99 97 82 80 64 76 58 58 60 65 55 52 44
34 46 32 33 34 36 38 42 42 35 28 31 35 36 29 59 61 73 94 89 71 85 94 98 98 98 100 100 100 99 100 99 94 92 74 68 88 78 70 63 63 57 52 53
34 32 29 34 37 38 38 42 42 40 31 30 29 35 30 45 59 70 85 75 56 52 80 99 98 99 98 99 98 100 100 99 97 90 74 67 70 73 91 69 58 55 59 59
31 23 26 36 36 36 43 34 34 36 39 42 29 49 36 37 64 74 80 81 63 50 46 83 91 92 99 99 99 88 83 97 98 86 76 79 73 76 74 73 62 57 58 61
33 28 27 30 36 33 37 32 36 38 38 38 36 46 41 56 66 70 71 79 66 55 42 39 62 75 74 85 81 80 81 83 84 91 88 82 76 77 85 72 62 59 60 63
28 21 25 23 24 30 29 32 33 43 44 55 47 50 53 47 48 52 58 63 66 54 54 38 42 71 69 68 71 66 62 68 75 80 78 68 64 65 68 64 61 58 58 61
29 32 25 23 30 27 34 38 56 59 57 62 56 69 54 36 33 38 51 55 57 53 56 49 40 52 58 61 62 57 60 59 66 72 70 64 64 66 64 61 59 55 51 51
22 33 31 23 26 32 36 37 62 57 73 57 60 66 46 35 29 29 30 33 51 64 49 44 39 40 49 41 39 46 46 44 50 59 63 61 60 59 60 56 53 49 46 38
47 41 26 22 22 23 32 40 32 50 67 78 62 52 40 34 32 24 41 46 48 54 52 44 42 35 33 40 36 38 42 45 51 52 51 49 47 48 48 44 43 44 50 56
35 43 31 25 24 26 27 32 45 60 73 80 64 57 52 38 25 24 41 51 48 47 54 52 49 44 38 33 39 41 45 52 58 61 62 64 66 66 67 67 68 69 64 66
60 43 37 28 33 34 36 32 40 42 63 54 70 59 43 41 35 23 23 36 40 45 45 44 42 47 47 45 42 43 45 49 54 61 72 79 80 81 81 74 72 74 78 77
66 50 46 34 27 25 27 29 35 54 58 64 66 53 30 36 31 27 23 20 28 41 32 36 37 44 56 56 58 52 48 48 48 47 58 58 62 74 76 79 83 87 88 85
83 85 62 43 35 27 31 32 35 48 59 68 69 59 31 32 34 26 25 20 17 22 41 36 45 51 50 52 60 64 62 57 54 55 55 57 62 61 61 65 71 77 85 100
77 95 86 55 42 35 38 32 33 43 62 56 56 46 34 32 35 29 23 21 20 17 26 27 33 38 35 39 43 48 52 53 59 61 63 63 63 61 60 64 70 75 90 86
86 98 74 52 31 29 36 37 36 39 42 49 42 46 35 34 32 28 20 19 20 19 20 23 28 28 27 33 34 37 39 46 50 58 65 64 66 68 72 75 80 82 85 91
83 99 93 60 46 30 30 30 38 43 41 38 36 37 32 28 25 28 22 20 20 16 17 19 20 25 25 24 26 28 30 34 41 49 59 68 73 77 81 85 88 95 100 100
97 99 92 74 46 47 59 47 36 33 36 33 42 39 30 33 31 28 22 21 18 18 19 18 18 18 21 25 28 28 32 40 50 59 66 67 72 78 82 90 100 100 99 100
86 98 100 95 62 78 46 38 36 40 32 35 31 26 27 25 20 19 17 15 17 19 20 19 18 18 20 27 32 35 40 44 50 60 62 65 73 81 98 100 99 99 97 95
73 86 99 99 81 64 52 47 44 47 45 34 32 26 23 20 24 23 17 16 14 15 18 20 20 21 22 26 31 41 47 55 66 70 79 91 99 100 100 99 97 97 100 100
74 76 89 99 98 87 56 41 37 44 62 33 29 34 28 28 39 34 20 20 20 22 24 25 25 27 33 36 42 53 68 78 88 94 96 97 100 100 100 100 100 100 100 100
100 99 97 98 99 86 64 54 46 86 69 40 27 28 30 32 32 20 23 25 26 25 24 28 33 40 48 59 68 80 88 93 96 99 100 100 99 96 98 98 100 100 100 100
93 99 99 99 98 93 45 56 52 53 43 37 32 24 27 20 20 22 28 26 25 27 38 46 49 62 76 86 92 95 99 99 99 100 96 93 97 92 91 100 100 100 100 100
88 72 89 81 79 57 41 46 38 45 44 40 42 33 30 24 28 34 37 39 44 47 55 67 72 82 92 96 97 96 100 99 96 98 97 93 91 99 100 100 100 100 100 98
61 61 81 75 56 58 44 37 43 50 37 38 34 44 36 34 42 50 56 56 56 65 71 82 86 88 89 91 92 100 98 98 94 97 98 98 99 99 99 99 99 100 100 100
54 69 70 66 55 45 35 30 31 33 37 40 40 37 38 34 42 42 54 63 65 70 82 90 89 89 91 96 94 100 98 96 93 89 89 91 94 96 97 99 99 100 99 98
49 52 70 60 42 44 41 32 35 40 40 39 41 38 36 38 40 48 62 73 77 85 95 96 96 94 93 92 88 92 90 89 83 80 85 88 89 96 98 98 97 97 97 97

GFSCGP_850_rhum_090.txt.gz
RH
34 46 51 40 44 37 37 42 44 40 30 30 35 37 32 36 55 71 92 99 99 89 92 97 98 100 100 98 100 99 100 100 100 96 80 79 91 82 87 80 75 50 73 77
42 46 34 36 40 40 39 42 44 39 30 34 35 36 31 42 54 52 74 97 98 92 99 98 92 98 98 100 99 100 100 100 99 91 85 86 92 80 77 63 51 52 55 61
37 33 33 37 42 42 43 43 42 41 33 34 36 40 33 35 57 58 64 74 83 70 80 98 98 96 97 96 97 100 99 99 98 91 78 86 82 84 84 67 60 65 73 65
36 27 28 38 40 39 47 38 36 38 44 53 33 57 38 30 49 71 73 76 83 76 70 70 100 99 99 98 99 97 99 100 100 92 86 84 77 70 67 61 70 77 66 60
38 30 32 32 40 38 41 35 42 42 48 45 41 54 45 48 44 47 66 63 72 69 51 51 57 96 89 99 98 99 100 99 99 90 92 81 84 77 65 60 64 68 67 58
30 24 27 27 25 36 34 38 37 44 52 68 49 51 52 41 44 41 50 52 52 67 59 50 44 60 80 95 97 97 95 99 99 98 92 81 65 60 67 66 70 69 55 58
21 26 28 24 28 34 37 44 60 62 67 70 49 69 51 35 35 39 37 42 41 52 57 50 50 56 64 62 75 81 88 92 97 99 92 81 75 78 77 73 70 67 66 64
22 20 22 28 29 35 40 44 68 62 67 54 65 75 52 38 35 32 28 30 35 50 53 45 44 37 48 57 56 48 48 68 75 82 83 81 80 77 76 70 70 65 66 62
47 29 24 23 23 24 35 48 37 47 63 75 64 56 39 34 29 32 29 44 41 44 41 42 40 41 31 40 39 37 38 41 47 63 68 68 66 64 61 64 65 67 64 59
62 61 34 28 26 25 26 31 41 63 71 77 65 62 48 33 33 30 30 52 43 46 43 40 40 40 38 31 44 44 38 32 32 38 41 46 57 60 61 63 63 63 62 57
79 65 48 35 35 35 37 36 42 43 61 59 62 60 48 36 33 34 28 26 41 41 35 32 32 38 44 40 34 39 42 40 41 40 41 43 42 41 41 44 45 48 50 49
87 96 77 48 31 28 28 33 33 45 53 70 61 44 31 36 34 36 27 20 22 28 31 31 41 46 47 47 45 40 44 42 40 41 45 46 53 55 55 56 57 60 61 65
63 97 91 60 38 33 35 34 35 47 56 47 62 52 33 37 33 26 30 23 21 23 23 28 34 32 36 41 43 46 45 41 38 39 40 44 44 60 59 64 70 75 76 77
61 81 84 93 85 72 68 37 33 42 66 50 50 44 36 32 33 30 27 22 20 18 17 20 26 26 28 32 32 34 36 44 49 48 44 44 44 44 46 50 54 59 62 69
75 89 69 76 75 83 89 52 33 36 42 52 44 47 39 36 34 31 23 22 22 20 18 18 20 20 24 30 29 30 31 33 41 50 57 53 51 50 53 58 62 65 72 76
90 88 84 87 70 74 76 46 39 43 41 44 44 45 37 32 30 29 26 22 21 22 19 17 16 20 21 23 24 25 28 33 42 50 51 63 70 72 70 71 78 86 88 90
88 99 96 87 78 89 78 47 36 35 44 43 48 40 32 32 35 34 25 23 21 19 18 16 16 16 16 20 28 31 36 42 50 56 63 70 77 80 84 87 92 97 99 98
72 98 100 98 90 97 60 39 33 38 36 40 36 33 34 31 25 23 21 22 20 19 17 18 17 18 19 25 30 34 41 51 60 66 73 80 85 92 98 100 100 100 100 100
61 77 98 98 97 87 72 49 44 48 42 41 40 39 34 28 25 24 18 18 20 16 19 21 21 22 24 25 31 39 49 62 72 81 90 96 100 98 99 100 100 100 100 99
66 70 91 99 99 86 69 59 53 42 69 41 41 43 38 31 38 34 22 24 22 18 22 23 28 32 30 29 36 49 66 86 99 100 99 100 99 100 100 100 100 100 100 100
95 90 94 91 96 88 68 66 63 73 67 41 46 38 35 32 32 24 26 32 32 40 34 35 39 34 37 46 52 65 96 100 100 100 100 100 100 100 100 99 100 100 100 100
91 98 98 98 98 92 54 72 95 61 55 52 43 42 41 30 30 34 36 39 43 43 50 50 43 52 71 81 87 95 99 100 99 100 100 100 97 93 92 86 94 96 98 100
83 84 84 91 85 58 46 41 37 48 49 48 45 44 43 38 39 35 44 47 63 62 63 71 63 83 98 100 100 100 98 97 94 96 94 90 90 87 85 95 98 99 100 100
59 60 76 77 56 56 48 43 38 38 42 41 48 44 47 48 54 64 74 87 91 87 84 94 86 87 98 100 100 99 98 95 91 88 87 85 91 96 100 100 100 100 100 100
64 60 65 72 57 50 39 29 39 40 42 41 53 51 55 60 83 88 93 87 96 98 93 97 99 93 99 100 100 98 97 94 89 91 97 100 100 100 100 100 100 100 98 98
57 55 72 70 50 53 48 42 40 41 41 37 42 51 51 64 66 75 99 100 93 100 100 96 100 100 100 100 100 100 98 92 85 84 90 94 96 100 99 98 98 98 98 97

GFSCGP_850_rhum_093.txt.gz
RH
39 37 50 37 37 32 33 35 34 33 29 29 25 26 24 22 37 49 70 84 90 94 92 98 98 99 96 98 94 99 99 100 96 100 99 100 94 96 70 72 66 68 69 64
41 33 34 32 38 39 35 35 36 32 28 31 28 27 22 24 28 38 52 74 81 92 96 99 98 100 98 98 97 99 97 100 100 100 100 99 94 69 52 69 73 71 75 60
29 33 30 34 38 42 39 40 39 35 31 30 31 31 27 24 39 48 60 63 77 74 85 94 97 99 100 98 100 97 93 100 99 100 98 90 72 60 68 87 68 75 63 62
34 27 31 37 35 35 38 34 35 37 37 36 31 37 32 25 24 32 55 76 80 70 75 76 92 88 97 93 95 100 99 100 99 99 92 76 71 73 76 87 77 72 62 58
39 31 33 33 37 36 36 33 36 36 41 41 36 41 33 35 30 25 26 65 78 57 65 67 71 66 90 98 94 94 99 100 100 95 82 71 80 85 84 76 73 58 55 60
28 26 29 28 25 35 34 36 36 44 46 55 44 39 34 32 29 25 30 44 66 59 65 61 67 86 72 98 100 98 98 99 100 100 90 75 69 83 79 75 64 54 54 58
28 29 26 26 28 36 36 37 44 56 60 50 40 46 33 31 27 27 25 28 42 51 62 58 60 70 68 81 88 94 99 100 99 99 93 83 81 71 69 79 64 54 63 66
24 20 26 25 28 32 38 36 42 47 53 42 58 53 36 33 29 32 32 32 33 46 48 54 51 49 36 51 61 68 73 86 98 99 98 95 91 77 68 64 62 54 58 67
58 30 28 20 24 25 37 43 30 39 57 54 44 49 36 31 29 29 25 30 41 42 41 44 49 47 31 37 42 50 59 66 74 80 89 94 89 86 76 72 66 70 68 71
63 75 34 28 23 23 27 33 47 48 48 44 44 52 32 30 25 24 24 28 37 44 47 45 46 45 41 28 38 42 42 44 51 66 76 77 79 78 75 75 79 79 75 70
63 74 60 41 34 32 33 33 35 40 52 43 42 42 41 32 26 28 26 29 23 42 38 36 42 47 48 40 29 36 40 36 37 43 50 61 64 65 67 62 62 63 66 66
74 78 85 58 41 35 29 34 31 42 40 59 48 36 29 35 31 34 31 24 21 25 35 33 38 46 50 45 41 34 37 37 34 36 38 40 41 43 43 48 45 51 55 58
42 82 77 57 43 48 52 49 49 41 44 42 54 41 32 32 34 30 29 22 23 22 27 33 34 39 42 43 42 42 41 36 39 39 38 37 39 40 40 38 37 39 40 40
50 64 52 54 70 62 69 64 54 72 68 44 42 33 31 30 32 27 28 21 21 22 23 26 26 27 35 38 38 36 41 46 43 41 40 40 39 40 44 48 51 54 57 61
65 83 74 59 50 46 55 59 53 65 71 55 36 35 30 26 26 24 25 22 23 23 22 18 19 20 25 29 31 27 32 36 44 52 51 48 47 46 50 53 58 59 60 61
83 98 82 77 62 60 58 50 57 63 66 54 36 33 31 29 30 31 28 29 24 20 19 17 16 17 19 19 21 23 27 33 45 50 54 63 64 62 58 57 57 62 66 73
75 81 96 78 62 65 75 57 61 56 49 39 45 35 31 31 33 31 30 27 27 22 20 20 18 17 17 17 22 29 35 41 44 52 61 65 70 73 75 78 81 87 90 92
74 79 88 88 94 87 44 46 52 57 44 33 32 32 31 28 26 25 25 23 23 18 20 20 20 19 19 20 20 25 34 45 51 58 64 70 76 80 86 94 97 98 98 100
68 74 77 80 80 60 34 62 62 77 70 43 31 28 28 28 31 29 23 21 19 20 22 22 21 22 21 26 28 35 41 50 57 65 74 81 91 98 99 99 100 100 100 100
66 68 72 87 96 74 50 52 68 55 67 57 45 45 39 33 41 27 28 24 26 36 24 26 32 35 32 40 45 52 61 79 94 99 99 100 100 100 100 100 100 100 100 100
87 87 89 82 88 68 55 62 61 77 75 72 63 52 52 40 34 33 41 43 48 64 64 62 63 71 90 74 73 82 98 98 99 99 99 99 100 100 100 100 100 100 100 100
80 93 88 79 96 87 59 69 70 84 76 61 65 58 63 42 46 62 72 59 77 98 100 97 98 99 100 99 98 97 98 100 100 100 100 100 100 99 97 93 91 91 100 100
62 59 79 96 83 77 61 53 44 58 48 56 61 63 57 62 67 54 70 87 97 98 99 100 100 100 100 100 100 96 99 99 99 99 94 95 94 92 96 97 99 100 100 100
50 54 69 67 55 57 53 48 48 49 52 50 60 60 64 74 96 91 82 90 100 100 100 100 100 99 99 98 100 100 99 94 92 89 88 98 93 100 99 100 100 99 99 99
42 56 62 62 49 55 48 50 44 44 53 46 53 58 61 74 95 100 100 100 99 99 100 100 100 100 99 100 98 98 95 91 89 94 100 99 99 99 99 98 98 96 96 97
52 48 60 62 42 51 51 48 40 67 66 59 52 66 74 63 86 100 98 99 100 100 100 100 100 100 100 95 97 100 100 92 84 85 92 96 97 97 96 95 94 95 94 93

GFSCGP_850_rhum_096.txt.gz
RH
14 26 31 22 23 21 18 21 20 16 17 22 19 14 13 14 15 17 21 31 39 48 59 75 93 83 86 98 100 100 99 93 100 98 100 100 100 100 100 100 99 100 88 66
25 21 14 18 20 23 23 24 21 17 16 20 19 16 14 14 14 16 18 25 34 45 62 76 91 78 84 100 100 99 98 99 100 98 97 98 99 100 99 99 99 95 95 59
33 20 17 15 24 28 25 24 22 22 18 19 21 20 13 12 17 20 26 27 31 39 54 69 90 71 87 97 100 99 91 96 100 99 91 92 97 99 100 100 97 89 91 63
29 20 20 22 22 21 28 19 22 22 22 26 20 22 13 15 16 15 15 26 33 39 52 62 77 89 82 95 98 98 96 95 100 100 98 92 93 93 90 80 90 84 87 84
31 28 27 25 25 22 26 22 20 25 25 24 23 26 18 15 21 17 14 16 32 42 50 59 68 80 66 96 89 89 97 97 99 100 100 100 100 78 74 83 82 74 73 72
26 20 24 25 20 23 23 29 30 30 30 39 30 24 18 16 19 16 15 21 32 42 51 57 64 70 89 98 99 91 91 93 99 99 100 98 81 68 68 78 82 73 73 82
18 22 17 21 28 24 28 35 41 46 45 41 22 29 20 19 17 16 16 16 30 42 51 58 61 65 76 93 96 97 92 88 97 98 91 89 83 67 69 76 95 94 84 75
23 22 18 18 21 24 33 34 37 38 36 31 28 33 23 18 16 16 21 22 27 40 50 55 56 62 70 87 88 93 97 88 88 97 94 84 97 79 76 90 92 83 70 65
42 31 23 15 17 18 25 36 26 30 27 39 30 28 25 20 20 18 18 17 23 35 46 52 55 63 63 80 88 86 96 95 92 94 98 92 83 73 82 95 93 74 76 68
34 51 29 24 20 18 19 19 37 34 44 39 25 25 25 20 19 16 18 16 20 29 40 48 53 62 66 67 72 85 94 95 99 97 98 95 97 93 95 93 92 91 85 82
38 44 38 34 27 21 21 27 27 25 29 36 35 25 19 19 18 17 17 17 21 29 38 45 51 60 69 74 65 55 75 93 92 96 97 98 99 98 98 94 85 82 80 85
37 44 51 43 32 33 37 28 23 31 30 32 33 29 18 19 19 18 19 21 22 29 37 42 50 57 65 73 70 33 42 50 62 75 86 91 96 96 96 85 90 81 77 82
40 51 51 44 39 41 42 39 42 43 38 39 44 33 18 17 21 23 21 18 22 26 35 41 48 53 60 67 73 68 51 44 70 88 86 87 78 80 82 69 75 96 84 94
43 43 40 35 40 36 44 44 39 46 60 41 35 29 21 18 18 17 16 18 19 25 32 40 45 47 53 60 66 70 74 80 86 88 80 77 66 63 68 60 60 70 67 65
39 51 38 37 33 28 30 30 30 41 40 52 43 37 24 22 19 18 18 18 21 22 22 29 39 42 47 54 60 65 67 76 78 84 84 80 66 62 67 58 53 54 69 64
61 55 59 56 42 40 38 28 27 29 33 34 34 38 28 23 19 18 18 17 17 21 21 21 26 37 45 48 55 60 47 63 73 82 84 86 85 76 78 78 84 70 79 83
63 60 63 56 46 52 61 43 32 25 24 36 47 33 24 23 20 18 22 22 20 22 22 22 24 27 40 52 56 63 58 63 75 78 82 83 91 91 93 91 98 100 98 98
66 65 70 68 62 80 32 31 29 30 35 35 38 34 27 22 20 19 17 21 23 23 23 24 26 27 26 46 53 66 73 76 70 84 90 89 90 97 99 100 99 100 100 100
53 56 70 66 47 34 31 27 43 46 38 36 50 34 24 22 21 20 21 24 26 28 30 32 33 43 30 33 44 76 81 88 94 92 90 95 96 100 99 99 100 100 100 100
47 60 67 58 63 52 23 37 45 38 45 53 51 53 48 43 37 23 23 33 34 37 50 67 59 44 52 53 67 45 70 77 84 95 99 99 100 100 100 100 99 100 100 100
88 91 90 75 75 42 26 35 49 62 55 53 62 58 57 54 41 41 63 53 74 40 55 89 97 93 97 94 81 87 98 99 99 99 99 100 100 100 100 100 100 100 100 100
72 85 89 82 87 76 42 71 94 84 66 56 66 66 64 59 57 82 99 98 100 97 93 99 99 99 99 99 100 99 100 100 100 100 100 100 100 100 100 96 98 100 100 99
45 37 44 60 62 38 44 70 76 74 62 47 69 71 68 72 75 99 100 97 98 100 98 100 99 100 100 100 100 100 99 100 100 100 100 97 93 93 98 96 99 99 99 99
31 32 47 54 36 50 63 75 68 60 48 68 65 70 80 83 99 99 100 100 98 100 100 100 98 98 100 100 100 99 100 100 94 90 95 96 94 99 100 100 100 99 100 99
36 33 38 39 34 34 36 43 43 41 58 70 70 71 87 84 93 97 98 100 100 98 99 100 100 100 98 100 100 100 100 92 88 95 98 99 100 99 98 97 97 95 96 95
41 39 42 45 33 36 35 36 42 43 54 69 72 78 90 96 99 100 100 99 100 100 99 100 99 100 100 100 100 100 100 89 84 89 97 97 95 92 89 89 92 94 92 89

GFSCGP_850_rhum_099.txt.gz
RH
18 15 14 14 18 18 20 18 17 15 13 14 15 15 12 10 10 11 12 12 15 22 33 48 62 79 93 96 87 88 98 99 92 98 95 99 97 100 100 100 98 98 91 96
20 18 13 10 12 20 22 22 21 17 14 15 17 17 14 11 10 10 12 12 14 18 34 51 66 79 100 98 85 85 98 100 95 98 100 100 100 100 100 100 99 97 98 88
24 19 15 18 18 16 21 25 24 22 17 14 16 19 17 13 11 10 10 14 14 16 29 47 62 75 94 100 94 82 93 100 99 99 98 98 100 100 100 100 100 100 100 84
17 15 20 19 20 14 19 18 20 21 21 24 16 24 16 12 9 9 13 14 15 17 24 40 55 71 86 100 99 98 86 96 99 99 97 97 99 99 100 100 100 100 100 84
19 21 24 23 20 20 18 15 19 19 22 23 22 22 18 14 14 10 11 12 12 18 25 38 50 62 78 94 100 98 99 92 98 99 93 95 90 90 91 92 96 100 90 86
13 13 23 23 20 19 18 20 21 23 23 33 24 24 20 16 13 14 12 12 15 18 28 37 48 56 73 96 100 100 94 92 96 100 99 87 86 91 95 100 99 96 100 97
19 15 12 19 23 21 22 26 39 37 39 40 22 24 22 14 11 13 12 13 18 23 30 38 46 54 67 92 100 99 99 92 93 99 100 99 98 95 96 91 91 93 93 99
24 21 14 13 19 21 26 29 43 41 36 36 22 25 19 14 12 12 14 15 16 23 31 38 43 50 57 81 93 97 99 99 91 99 99 100 100 98 86 91 98 91 86 81
33 28 18 12 14 18 18 33 23 35 32 43 41 24 17 18 17 14 13 14 15 22 30 36 41 49 53 70 81 91 94 96 98 100 98 99 97 94 74 69 76 82 84 77
34 41 22 18 14 17 21 15 30 29 49 43 25 23 25 20 19 15 14 14 14 16 26 34 38 48 52 64 75 86 82 84 94 98 100 100 97 97 96 77 75 84 93 90
21 38 30 26 28 21 22 25 23 21 24 36 41 31 19 15 18 17 14 16 14 17 24 31 36 44 51 61 67 83 80 77 86 93 98 99 99 96 96 90 93 88 89 88
21 38 47 32 21 24 28 19 21 35 32 25 31 31 17 16 16 18 18 16 18 19 22 28 35 41 49 57 63 75 78 73 76 86 93 97 99 96 93 93 90 90 90 86
39 32 39 33 25 24 34 28 24 22 24 27 38 32 15 15 16 16 19 17 17 21 27 31 35 40 48 55 61 66 76 74 73 76 83 89 95 95 94 95 93 90 92 92
41 38 34 35 33 45 39 36 34 34 45 36 28 21 16 16 16 16 16 17 16 20 22 28 33 38 43 50 59 63 74 76 75 76 79 82 87 90 91 93 94 95 94 93
40 50 31 25 22 22 29 27 26 29 30 41 34 28 23 20 18 16 17 16 17 18 19 25 30 35 40 46 54 60 67 80 79 78 79 80 85 89 90 93 96 97 98 96
28 54 37 33 25 24 28 22 20 19 21 23 25 26 18 18 19 21 20 17 16 15 16 18 23 30 36 41 48 54 60 70 78 78 79 79 84 88 91 93 95 97 96 95
79 55 46 56 28 26 39 26 20 16 12 15 24 22 18 22 20 20 20 19 17 18 17 18 19 23 30 38 45 50 58 64 72 73 76 79 82 85 88 91 95 95 94 93
63 57 64 59 49 64 28 18 21 26 22 15 12 11 18 21 23 19 18 18 17 17 19 19 21 24 27 36 45 52 59 66 74 74 73 76 81 84 86 87 90 93 96 94
48 56 72 65 46 30 23 20 25 29 32 24 26 29 38 37 28 22 18 17 16 22 30 28 32 26 32 35 46 54 59 69 78 78 78 80 84 88 90 92 94 98 100 100
43 52 67 63 60 52 24 34 46 38 60 46 46 53 53 48 53 28 25 22 42 46 47 46 52 56 59 55 58 59 65 75 83 83 91 94 97 99 99 99 100 100 100 100
64 85 77 68 70 46 24 20 36 62 71 60 53 46 51 59 62 60 63 69 68 69 75 79 78 78 88 83 80 78 87 97 100 100 98 100 100 100 100 100 100 100 100 100
81 89 81 65 89 79 27 33 57 72 70 64 49 45 53 65 78 80 91 96 97 100 97 99 98 97 97 98 99 99 99 100 100 99 98 100 100 100 100 100 100 100 100 99
74 47 62 58 50 32 31 52 67 81 82 70 55 59 62 79 83 97 98 100 100 99 99 100 100 100 100 100 100 99 99 100 100 99 98 100 100 100 99 99 100 99 100 100
38 29 37 39 33 32 34 51 52 68 73 70 55 57 74 82 97 99 98 99 100 100 100 100 100 100 100 100 100 100 100 100 100 100 98 100 100 100 100 98 100 99 100 98
38 43 46 40 31 31 30 37 56 57 45 41 55 73 84 91 100 100 100 100 98 100 100 100 100 100 100 100 99 100 99 100 100 98 98 100 100 100 100 99 98 96 97 92
35 38 44 45 35 38 35 33 37 39 41 50 64 80 90 88 98 100 100 100 100 98 100 100 99 100 100 100 100 100 100 95 90 92 98 96 94 91 88 87 91 93 90 84

GFSCGP_850_rhum_102.txt.gz
RH
21 16 14 12 12 12 15 18 26 28 23 22 17 15 13 12 11 11 11 11 12 12 21 47 54 64 82 81 83 83 87 87 89 81 94 97 87 97 100 100 92 87 88 95
23 26 16 12 11 11 12 20 26 24 23 24 21 17 13 13 13 12 11 10 11 12 28 47 58 69 82 79 94 84 86 85 84 85 100 99 96 98 97 100 95 94 94 91
20 16 12 15 17 18 15 16 28 32 27 25 24 22 17 13 13 12 11 10 10 12 28 47 61 72 85 87 98 84 86 80 79 75 88 98 88 99 99 99 100 98 98 94
13 12 14 15 20 18 24 16 17 18 24 37 24 30 20 15 14 13 12 12 10 13 15 42 58 72 83 92 98 100 96 83 83 83 89 99 99 99 100 98 99 100 100 100
13 12 13 16 16 17 22 16 18 21 26 26 24 26 21 16 16 14 12 10 12 14 15 40 52 66 78 94 98 98 100 98 83 89 95 99 100 100 93 98 100 99 100 100
16 11 10 15 16 18 17 20 22 22 24 38 28 26 24 19 17 14 12 10 12 12 17 33 47 61 70 90 98 98 98 100 82 89 87 99 96 100 99 99 100 100 100 100
18 16 12 9 17 20 23 28 41 44 45 42 24 26 24 18 15 15 13 12 14 16 23 32 45 57 67 90 96 97 99 99 86 89 89 95 98 96 91 90 96 99 97 98
24 21 14 13 12 18 22 30 47 67 54 48 48 62 26 15 14 13 12 13 15 18 25 32 43 53 63 85 94 98 96 98 98 92 86 89 93 93 92 88 91 89 88 81
32 22 18 14 11 13 21 31 25 42 40 52 52 34 22 17 16 14 13 13 15 20 26 32 40 50 59 78 81 95 98 98 100 97 92 96 96 97 95 96 97 96 99 99
27 41 23 18 12 13 17 16 31 37 61 67 41 37 45 36 28 19 18 16 14 16 24 32 38 48 54 69 86 77 93 95 98 100 97 90 96 98 97 99 87 87 87 93
18 29 28 21 26 22 19 24 26 30 39 55 55 38 28 27 26 21 23 17 16 14 22 30 36 47 51 63 77 81 86 91 93 100 98 99 96 95 90 84 86 84 79 79
14 22 39 27 30 28 35 26 25 36 38 37 41 36 19 28 28 23 22 20 19 18 18 27 34 44 50 58 69 77 83 83 87 89 98 100 93 91 89 89 72 66 74 87
30 35 39 28 18 16 25 27 27 24 28 36 51 44 21 23 28 22 17 17 18 19 19 23 32 41 49 57 65 74 77 78 82 88 90 98 95 96 92 92 92 91 91 89
40 41 49 46 26 35 48 39 36 31 80 42 31 24 19 28 28 22 17 16 17 18 20 26 29 37 46 52 61 69 74 75 77 81 86 91 95 93 91 86 84 90 89 88
33 43 34 30 24 21 24 30 32 34 33 61 45 35 28 28 32 24 20 20 18 17 18 20 29 34 42 48 56 62 71 72 72 75 83 88 87 89 92 91 90 88 87 87
28 39 31 35 26 23 22 21 24 26 24 23 23 24 18 17 16 16 17 17 18 19 18 16 21 29 35 44 52 58 64 68 71 74 76 80 87 89 91 92 91 91 92 89
60 46 37 48 33 28 34 22 20 21 19 20 24 20 16 17 17 18 19 20 19 18 18 18 18 23 31 38 46 54 60 66 72 75 78 78 82 86 89 91 91 89 90 92
63 86 62 66 51 70 32 16 17 20 17 14 16 14 12 11 13 27 30 20 21 18 18 19 21 23 33 34 41 48 56 64 71 77 79 79 81 85 87 89 90 90 91 94
42 53 78 70 51 36 24 19 32 56 48 58 66 54 43 41 42 36 53 58 52 39 24 31 26 25 27 32 40 46 54 60 71 74 74 77 80 81 82 85 86 87 90 94
40 47 62 70 66 54 25 30 25 29 53 63 54 66 51 42 66 45 64 71 69 71 61 49 45 29 33 37 46 51 56 64 71 73 72 72 77 81 82 84 90 96 100 100
61 67 78 80 88 51 24 24 26 47 71 75 60 51 55 64 52 61 80 85 83 88 78 87 72 57 45 49 53 54 61 66 76 85 82 82 85 84 96 96 100 100 100 100
81 90 85 72 75 74 34 37 58 65 50 60 62 58 60 60 64 76 87 100 97 96 90 97 94 86 80 77 69 68 84 98 98 100 99 100 98 95 97 100 100 100 100 100
96 51 68 55 54 41 40 42 58 59 59 59 59 60 57 63 76 88 92 93 99 97 97 99 99 98 99 100 100 97 100 100 100 100 100 100 100 100 100 97 100 100 100 100
52 59 63 72 52 60 48 37 47 50 52 51 51 52 54 86 83 87 100 99 99 99 99 100 100 99 98 100 100 100 100 100 100 99 100 100 100 100 100 99 99 100 100 100
63 41 44 46 50 46 45 44 48 46 45 46 47 62 62 91 94 100 99 100 100 100 100 100 100 100 100 100 100 100 100 100 100 100 100 100 99 98 99 100 98 98 99 97
38 38 46 67 59 54 57 39 33 37 38 53 63 71 93 98 100 100 100 99 100 100 100 100 100 100 100 100 100 100 100 100 100 99 100 98 99 100 100 100 95 96 95 96

GFSCGP_850_rhum_105.txt.gz
RH
29 35 30 19 14 11 13 17 19 17 19 26 29 31 27 22 21 15 14 14 15 14 21 39 43 46 50 57 65 64 85 99 93 94 95 99 99 99 87 88 81 81 76 70
37 38 25 15 12 12 13 17 18 16 21 22 28 36 32 29 25 22 15 13 12 13 32 44 47 48 52 55 54 56 90 95 93 89 84 80 86 97 99 87 83 80 83 79
37 30 24 22 22 20 19 23 22 19 18 23 32 40 37 28 21 17 13 12 12 13 40 50 52 54 57 55 42 58 93 80 96 94 86 87 90 95 99 99 100 92 83 86
24 19 21 21 21 20 26 21 22 22 25 33 30 46 45 33 24 19 14 13 13 15 43 50 54 55 51 49 41 63 98 86 86 100 100 99 95 89 96 95 99 95 94 89
23 14 16 16 14 16 21 25 25 26 29 32 29 33 36 24 22 18 16 15 14 13 37 49 49 45 46 53 33 59 98 100 87 100 100 98 86 88 90 96 100 100 93 96
25 16 17 16 15 15 20 28 30 27 32 44 31 32 33 27 22 18 16 13 13 14 39 46 51 49 55 60 36 71 99 100 92 100 100 98 97 99 97 100 99 100 100 98
28 24 17 16 20 17 23 34 57 58 55 50 29 34 31 27 20 17 16 15 15 13 43 56 56 57 60 57 36 67 99 100 99 97 100 100 98 100 98 98 100 99 100 100
35 37 20 16 19 19 32 35 65 66 68 48 39 62 46 26 24 21 15 14 23 38 49 50 51 56 56 51 40 53 99 99 100 93 100 97 95 94 100 100 99 99 96 98
47 35 27 25 22 15 20 34 27 47 45 59 53 42 32 43 42 34 18 14 22 42 48 50 53 53 53 50 38 45 85 100 96 87 100 91 96 90 93 90 93 100 97 98
34 47 28 22 25 24 19 21 34 46 72 80 50 42 46 48 54 43 28 25 22 30 44 46 46 49 48 48 44 48 72 99 90 83 93 91 97 90 90 97 92 89 94 97
20 32 35 27 28 52 63 31 26 32 54 71 73 55 43 65 67 61 40 23 23 26 36 42 42 45 48 50 53 41 63 89 83 86 92 93 96 99 98 98 99 98 92 90
18 27 40 30 22 42 58 67 56 36 44 53 52 49 27 40 40 55 42 33 30 25 32 40 42 46 51 53 56 50 55 72 72 86 99 94 90 93 94 98 96 91 92 93
24 51 74 48 27 22 44 50 62 71 38 42 58 53 26 28 57 53 44 35 35 22 30 38 48 48 49 54 56 62 60 68 79 77 99 94 97 89 86 86 90 89 88 88
37 44 52 69 58 42 42 32 35 80 95 90 68 52 34 35 52 54 46 38 29 22 21 31 52 52 50 53 55 61 68 78 78 72 82 99 99 91 86 86 86 82 75 73
41 55 46 40 35 33 32 30 26 29 35 81 65 70 51 40 45 45 48 30 18 18 17 18 32 56 52 56 57 57 62 77 83 80 74 82 92 89 90 92 89 74 69 78
47 56 47 48 34 29 35 30 27 25 24 28 28 32 26 17 19 19 28 21 20 20 20 19 27 30 57 52 54 56 59 62 78 80 79 78 80 84 93 93 91 96 98 97
70 64 65 66 42 38 48 36 30 24 20 23 29 25 22 16 14 50 64 63 65 62 47 34 20 24 34 65 52 54 59 63 70 77 81 83 83 84 89 91 90 88 89 87
70 81 87 74 69 80 42 32 25 24 20 27 62 67 60 57 52 70 74 73 74 67 63 61 55 29 34 38 58 54 58 64 67 73 77 84 89 90 92 98 94 91 90 91
51 66 89 94 79 68 42 34 43 45 57 74 68 68 63 58 49 76 68 78 78 72 66 64 73 44 38 52 57 73 62 63 69 71 75 77 82 91 95 93 90 95 99 100
47 56 74 91 89 78 42 47 38 35 74 79 70 73 66 60 86 71 80 82 78 75 63 62 61 66 54 37 35 54 69 72 78 78 79 81 83 87 87 87 91 94 99 100
69 71 79 89 92 78 45 36 34 60 83 75 66 65 67 75 68 68 84 84 83 84 74 69 61 72 66 79 71 67 65 73 83 84 83 82 83 86 83 92 98 99 100 100
96 83 88 85 91 84 47 43 52 76 58 61 62 61 61 60 58 84 88 94 94 92 84 92 91 82 82 82 84 72 76 81 90 90 89 92 94 94 94 96 100 100 100 100
98 74 85 77 73 72 69 71 67 56 56 56 53 50 57 69 88 84 100 100 99 99 93 92 96 98 100 100 99 94 98 100 100 100 100 100 100 100 100 100 100 100 100 100
99 88 100 87 74 74 65 59 53 47 43 46 45 52 62 71 95 99 94 88 94 99 99 98 99 100 99 99 100 100 100 100 100 100 100 100 100 100 100 100 99 99 100 100
69 90 99 97 83 75 76 59 46 48 48 41 54 61 56 82 96 99 100 100 99 100 98 99 100 99 100 100 100 100 100 100 100 100 100 100 100 100 100 100 99 99 98 98
58 74 83 100 86 91 71 43 41 47 46 61 58 70 51 86 90 97 99 100 100 100 100 99 100 100 100 100 100 100 100 100 100 100 100 100 100 99 100 99 98 98 97 97

GFSCGP_850_rhum_108.txt.gz
RH
30 25 28 14 18 18 19 18 19 16 13 20 27 31 26 25 24 24 26 26 25 20 15 24 32 40 47 52 58 64 61 59 77 90 97 98 100 96 100 99 96 87 90 90
40 48 29 22 19 17 16 16 16 14 14 19 24 23 17 28 28 25 28 26 22 19 25 30 40 46 48 48 59 62 50 61 74 85 95 100 99 99 90 92 94 93 87 85
43 38 30 30 28 20 18 17 17 19 19 19 26 28 27 26 30 29 28 24 20 18 32 45 51 50 47 53 55 57 46 54 69 87 94 100 100 100 100 98 99 99 93 85
35 28 32 33 33 29 35 24 24 27 29 34 25 36 26 22 25 28 25 20 18 19 29 36 51 51 47 52 58 47 50 52 75 87 86 86 86 97 100 98 92 97 90 82
30 18 28 30 28 25 28 25 28 30 34 32 31 40 25 26 24 22 21 18 17 16 26 38 42 45 46 53 58 48 56 59 74 85 92 91 90 94 97 99 99 100 100 91
29 22 21 21 17 18 19 26 31 32 38 47 34 39 31 31 26 22 18 17 17 17 19 34 53 49 54 59 60 50 59 63 78 88 99 98 99 99 99 96 98 100 99 100
31 28 23 20 24 21 24 37 56 59 59 48 31 39 32 27 23 25 26 26 29 29 19 54 60 53 57 60 61 53 61 70 97 96 100 100 98 98 100 99 100 97 100 100
44 47 26 18 24 26 28 29 47 61 61 47 34 50 50 31 32 45 46 42 29 21 25 47 54 52 57 60 59 52 57 71 94 98 98 98 93 97 100 94 100 100 100 99
47 43 29 26 28 25 27 41 28 44 51 60 51 39 30 25 58 55 53 49 39 48 40 63 69 54 52 62 50 45 49 64 84 98 96 99 81 81 89 98 100 100 100 98
28 45 28 24 23 36 32 27 34 50 64 56 57 54 51 53 68 63 63 58 50 42 62 77 56 48 55 56 50 51 47 47 61 98 97 98 90 88 91 97 100 99 99 100
21 33 37 27 37 42 59 60 64 40 61 55 74 62 67 70 68 73 83 68 53 50 40 67 74 53 54 56 55 44 49 57 55 95 98 96 98 94 93 88 92 99 100 100
28 31 35 32 23 25 45 58 65 90 69 74 62 51 26 60 60 73 85 67 51 38 33 46 65 90 52 53 57 44 42 53 44 53 87 100 97 96 91 92 93 89 89 93
27 41 66 34 30 44 56 43 38 75 92 86 83 53 36 40 63 71 80 82 56 46 42 38 59 69 85 53 56 50 36 42 40 44 68 92 100 100 100 98 97 95 96 94
36 45 46 53 57 44 38 33 33 72 94 89 76 73 45 40 51 66 67 70 54 53 40 36 53 73 77 94 55 54 41 36 43 50 65 78 93 96 95 87 91 96 95 92
43 53 49 46 42 38 38 37 32 34 42 77 56 46 30 35 46 55 63 67 54 51 42 38 54 63 76 79 84 71 52 37 45 54 61 72 88 92 93 88 87 90 84 82
64 64 49 54 46 43 48 41 37 32 30 29 30 34 23 39 33 44 42 52 61 79 83 64 54 62 59 68 73 82 87 55 46 58 63 74 74 98 92 91 90 90 94 90
67 67 70 62 54 57 64 46 40 34 28 28 33 32 64 64 49 67 74 81 84 85 80 80 76 70 54 48 41 68 84 92 66 57 69 72 78 90 93 92 95 99 94 93
72 74 79 82 68 77 37 37 38 35 30 38 56 72 70 62 79 78 80 83 89 86 81 77 66 67 67 46 58 72 77 86 93 76 68 74 82 91 96 100 98 94 95 95
63 72 94 89 83 56 45 39 59 64 51 80 81 78 69 65 77 76 87 80 80 82 81 79 78 68 62 62 75 47 67 81 91 98 92 77 80 91 96 100 99 100 93 95
57 63 74 96 88 87 56 51 39 53 82 80 77 78 73 66 87 75 87 87 82 82 80 78 80 73 64 80 82 87 72 48 80 86 94 94 86 89 94 99 100 100 100 100
95 82 87 80 91 81 50 36 36 91 84 74 68 69 71 72 72 74 92 91 89 90 86 83 86 84 68 74 90 93 81 81 94 90 90 94 93 91 95 96 100 100 100 100
97 96 92 84 94 86 61 74 63 75 62 65 64 58 59 73 95 99 95 92 91 90 87 88 90 96 97 89 86 92 98 99 100 99 92 93 97 100 100 100 100 100 100 100
97 99 87 78 73 62 74 73 70 61 55 54 50 50 67 76 99 100 100 95 96 96 98 98 94 93 98 99 100 100 100 99 100 100 100 100 100 100 100 100 100 100 100 100
100 98 99 81 89 92 85 70 62 57 50 43 49 65 64 70 86 98 100 100 99 98 99 100 100 100 98 99 100 100 100 100 99 100 100 100 100 100 100 100 100 100 100 100
98 100 100 96 98 95 76 73 54 51 48 51 60 63 68 84 75 98 100 98 98 98 98 98 100 100 100 100 99 99 100 100 100 100 100 100 100 100 100 100 100 100 99 99
76 82 82 96 92 86 72 54 56 51 58 61 67 74 68 81 74 99 100 100 100 100 99 100 100 99 100 100 100 100 100 100 100 100 100 100 100 100 100 100 100 99 98 98

GFSCGP_850_rhum_111.txt.gz
RH
28 22 24 17 18 21 22 24 26 20 16 15 16 18 16 16 24 28 20 18 19 20 16 20 20 17 41 41 54 62 66 71 66 69 89 90 92 98 90 100 93 97 98 94
30 47 28 16 16 18 19 22 21 17 13 18 19 19 17 21 20 21 22 22 21 20 22 24 21 27 23 48 59 64 63 65 60 65 83 86 95 96 98 99 92 86 84 87
24 29 30 35 32 26 24 23 22 19 17 19 23 26 25 22 25 24 21 19 20 22 27 22 23 40 42 53 57 57 55 59 57 78 88 90 98 98 100 95 100 99 95 87
28 24 28 39 40 34 42 24 21 21 32 38 26 38 25 24 24 23 22 19 20 20 20 18 27 41 38 56 56 55 55 53 54 85 92 87 98 95 98 98 92 100 99 88
33 24 39 34 33 33 36 30 34 34 36 36 34 46 28 26 24 24 22 18 19 19 18 18 21 25 42 64 56 57 56 46 59 83 92 92 97 99 94 93 100 100 99 95
26 21 23 24 20 26 22 24 30 37 42 52 31 41 29 30 26 25 22 21 40 42 35 28 25 40 52 68 68 59 57 43 68 91 93 88 82 87 100 100 97 99 98 99
32 32 26 23 27 24 24 35 46 48 62 48 31 43 30 28 25 31 51 49 52 53 45 37 29 32 50 65 67 66 55 44 77 100 98 88 85 90 88 97 99 100 100 100
47 44 32 24 27 30 31 37 52 42 50 40 36 53 40 31 39 56 56 62 59 61 49 56 44 31 44 63 66 66 51 45 89 100 100 100 99 99 92 99 97 96 98 100
47 44 28 24 25 29 34 37 28 38 40 60 45 41 30 37 58 59 62 71 68 64 63 54 66 74 61 61 64 63 48 47 86 100 99 100 99 98 100 99 98 91 97 100
37 49 27 23 28 34 44 39 38 54 60 49 47 54 55 45 65 63 69 79 79 60 68 63 81 91 88 76 63 66 49 44 74 97 96 100 99 100 96 100 98 100 100 99
25 36 39 28 35 32 49 69 70 68 61 65 54 47 56 66 69 76 76 76 82 69 77 71 60 90 97 90 87 63 54 52 73 77 83 96 99 100 100 98 91 100 100 100
28 33 37 29 28 27 47 75 82 86 88 82 89 72 45 45 74 73 76 68 71 68 74 62 54 80 87 94 100 79 64 56 68 67 76 92 93 96 100 99 92 89 100 100
36 40 41 29 45 44 52 42 37 71 88 76 92 73 38 39 38 71 76 67 58 81 70 60 56 80 79 78 97 97 89 82 67 65 71 94 99 87 97 98 96 93 94 100
43 44 35 41 50 44 38 34 30 64 90 64 68 57 48 36 33 59 66 66 74 78 79 81 64 66 75 78 79 87 97 94 92 64 63 93 99 89 97 100 98 99 97 96
54 49 45 46 44 41 42 47 42 43 48 63 37 46 38 31 37 40 51 58 75 87 86 92 86 85 90 86 84 88 81 99 94 82 67 88 100 94 95 100 100 100 100 100
62 67 56 58 49 48 57 52 50 48 43 40 36 34 22 28 38 42 53 62 74 86 94 96 78 78 75 97 98 91 81 80 84 88 82 92 95 95 94 98 92 99 99 100
68 72 70 53 54 58 55 43 49 42 36 38 43 30 42 67 62 59 63 65 89 94 85 88 68 76 63 60 90 92 84 88 72 76 92 99 99 99 91 91 92 100 99 95
74 76 80 82 62 68 38 36 36 46 41 47 33 44 74 70 82 78 84 89 86 82 86 76 83 68 71 80 63 82 84 91 90 84 82 92 97 98 98 100 96 96 100 100
72 74 90 84 76 44 37 29 52 80 80 74 52 77 72 70 88 84 82 95 95 91 93 86 81 83 76 79 71 70 91 93 94 80 91 93 92 96 99 100 98 92 93 100
70 74 76 99 89 73 45 51 46 58 90 88 83 85 81 73 96 81 89 99 97 98 97 88 84 86 75 83 96 93 100 100 99 59 65 93 98 96 99 99 98 95 97 98
96 96 93 81 90 72 50 43 50 83 97 74 75 72 71 77 79 84 99 93 95 96 96 93 90 90 83 87 99 100 100 100 100 93 78 82 100 100 100 100 99 98 100 100
97 97 96 94 92 85 60 65 75 78 66 73 71 59 63 91 96 100 98 94 94 91 90 99 97 96 97 99 100 100 100 100 100 99 100 85 100 100 100 100 100 100 100 100
97 98 93 76 75 67 89 85 68 78 76 57 55 52 73 85 98 95 94 100 98 91 100 100 95 94 93 98 100 98 100 100 100 100 100 99 100 100 100 100 100 100 100 100
98 98 100 92 90 91 89 74 78 77 72 63 58 68 89 96 100 96 95 100 100 99 100 100 99 99 100 96 98 100 99 100 100 100 100 100 100 100 100 100 100 99 100 100
99 99 99 100 99 98 89 68 60 59 61 71 65 79 84 92 92 100 99 100 99 100 100 100 100 98 99 100 100 100 100 100 100 100 100 100 100 100 100 100 100 100 100 100
91 70 97 98 80 98 96 78 78 84 92 89 81 75 76 94 100 100 99 99 100 99 99 100 100 100 100 100 99 99 100 100 100 100 100 100 100 100 100 100 100 99 98 98

GFSCGP_850_rhum_114.txt.gz
RH
25 27 28 21 18 20 24 27 28 23 18 17 18 18 16 14 15 18 16 16 16 15 14 14 15 17 19 19 26 26 42 53 65 69 70 72 95 96 96 100 86 93 100 99
25 46 32 17 16 20 22 24 25 18 16 18 18 19 18 18 19 16 16 18 16 16 15 17 18 22 19 21 30 32 48 52 64 64 66 65 85 93 96 98 99 100 100 99
23 23 27 29 24 21 23 23 23 21 18 20 23 30 23 23 21 20 18 17 16 17 19 20 18 21 19 20 32 46 55 54 64 68 68 77 90 97 100 100 100 94 98 98
25 20 19 38 39 30 37 29 27 30 30 44 26 44 24 24 24 22 19 17 18 33 38 32 26 20 19 25 41 64 65 59 68 74 72 73 85 95 98 97 87 90 96 96
27 34 30 23 28 37 46 33 33 32 39 40 38 42 32 21 23 22 24 21 42 51 48 46 48 37 32 29 41 62 69 67 73 76 73 74 86 93 92 96 100 84 94 98
23 23 31 34 31 30 28 30 30 40 44 56 38 37 26 26 24 27 30 48 59 58 56 55 50 54 32 39 42 66 70 74 74 80 80 73 89 95 90 99 99 100 99 96
32 30 27 24 28 26 26 34 41 34 62 46 35 43 27 25 26 51 63 63 61 60 57 58 58 70 68 61 52 72 75 75 73 80 85 76 97 99 98 90 92 100 100 100
49 44 35 28 29 32 35 36 50 40 43 34 39 49 38 29 46 56 59 61 69 62 56 53 63 53 84 74 64 76 81 76 76 75 76 77 94 99 100 100 97 92 98 97
56 46 28 25 29 31 37 40 32 39 38 54 42 38 28 40 57 62 60 62 59 43 44 53 52 66 70 90 84 86 87 80 75 69 76 96 98 99 100 98 100 99 100 100
42 56 31 24 35 27 39 47 43 55 57 51 44 48 45 68 72 70 71 72 61 45 46 54 52 61 71 86 98 100 97 94 74 68 80 98 98 99 100 100 95 99 98 96
33 38 39 29 32 31 44 60 68 65 70 75 80 47 57 57 74 77 76 69 65 58 50 65 55 63 79 87 100 100 100 94 86 82 94 97 98 98 100 98 97 100 100 98
36 42 45 31 38 37 63 75 78 81 92 84 86 80 44 40 45 47 75 69 67 59 75 74 63 86 90 98 100 100 100 91 80 90 99 96 100 99 99 96 92 98 100 99
48 50 43 41 45 38 50 38 60 77 86 84 91 67 40 34 30 30 62 61 77 73 59 67 87 95 99 100 100 100 99 88 80 80 100 97 99 100 97 96 93 96 100 100
51 52 44 43 43 40 34 36 36 71 92 66 69 48 29 32 34 28 29 54 78 84 66 68 98 94 98 100 100 100 96 82 82 80 99 98 99 99 98 98 96 93 97 98
56 54 45 46 44 44 42 45 46 47 51 63 34 34 26 26 23 25 23 51 75 76 60 75 90 79 91 98 100 100 100 88 80 86 98 97 99 100 99 100 99 96 97 98
58 63 60 59 50 52 56 56 56 54 47 46 42 42 27 25 23 23 40 58 71 69 58 81 81 75 92 98 95 100 100 100 95 79 93 100 97 99 100 100 100 100 99 99
67 65 72 57 54 55 54 44 46 47 47 46 52 39 31 32 34 70 71 78 83 85 85 99 90 91 88 95 99 99 100 100 97 94 85 98 98 97 98 100 100 98 100 97
73 80 79 79 65 72 32 36 34 44 41 40 38 36 48 44 76 85 81 88 91 93 70 93 89 85 84 87 100 98 99 98 100 99 94 92 100 100 98 100 100 99 100 100
76 75 89 85 82 48 40 30 44 78 70 62 63 63 56 65 83 88 96 98 97 98 97 90 94 94 87 84 98 76 88 100 100 98 88 85 83 95 99 98 100 100 100 100
84 74 75 89 88 79 41 44 61 74 73 82 95 91 81 76 93 90 99 90 89 90 90 92 95 99 96 97 100 91 76 96 100 100 94 88 86 82 88 98 99 99 100 99
96 97 93 91 95 68 47 40 47 78 74 95 88 85 76 84 90 96 98 90 94 92 94 96 100 100 100 99 100 100 100 97 99 99 100 100 100 96 100 100 100 98 96 100
97 97 97 96 95 85 81 79 85 94 90 91 90 80 70 76 95 100 93 93 98 92 97 100 100 100 100 98 100 100 99 100 100 100 100 100 100 100 100 100 100 100 100 100
97 98 96 91 75 86 91 93 89 69 91 86 69 61 84 93 98 100 99 98 100 100 100 100 100 100 100 100 100 100 100 100 100 99 98 100 100 100 99 100 100 100 100 100
96 98 99 100 91 94 96 79 77 90 91 85 82 74 86 93 99 100 99 98 98 100 100 100 99 99 100 100 100 100 99 100 100 100 100 100 100 99 97 100 100 100 100 100
98 100 95 98 100 95 87 93 96 97 92 92 88 79 85 92 97 99 99 100 99 98 99 99 99 100 100 100 100 100 100 100 100 100 100 100 100 100 99 100 100 100 100 99
85 99 99 98 99 100 100 100 98 97 100 100 86 85 95 100 99 100 100 100 100 99 100 99 98 100 100 100 100 100 100 99 100 100 100 100 100 100 100 100 100 100 100 98

GFSCGP_850_rhum_117.txt.gz
RH
22 24 26 21 19 14 21 26 25 23 18 18 18 18 15 12 14 15 16 17 16 16 14 16 18 22 21 21 19 22 23 26 39 60 63 76 76 71 73 83 86 91 93 99
29 38 28 18 17 18 19 22 24 22 17 20 17 18 17 16 16 16 17 18 17 20 19 27 31 29 26 21 24 39 35 39 47 61 62 67 66 60 78 86 95 91 99 99
23 23 25 24 20 20 20 23 23 19 17 19 22 23 21 20 19 21 19 17 19 27 48 35 30 36 33 26 30 39 46 54 66 68 72 72 68 66 91 94 99 98 97 99
24 19 20 28 31 24 29 20 18 18 29 33 26 28 22 21 22 21 19 23 41 54 48 46 41 38 45 33 34 42 58 67 72 72 71 67 48 86 96 93 99 99 99 93
30 30 24 22 22 26 26 32 25 29 33 34 33 34 26 22 17 20 23 41 56 59 57 50 48 47 46 44 39 50 67 72 77 75 68 65 49 87 94 95 98 98 99 99
27 23 29 22 20 26 33 34 34 38 38 41 31 26 21 19 22 24 40 52 64 65 50 41 49 47 44 61 59 61 72 83 89 82 71 64 51 83 91 98 99 98 97 100
30 22 22 26 29 30 30 32 36 43 48 28 29 34 24 24 34 50 52 55 62 57 53 55 61 56 52 52 80 81 76 90 89 83 81 67 58 79 87 87 95 99 98 97
47 48 30 26 26 29 35 32 30 25 27 23 35 30 30 49 52 54 56 61 58 53 54 58 64 64 67 67 61 94 99 100 98 85 87 79 73 88 94 92 90 99 100 91
45 49 28 27 30 27 37 38 26 27 37 41 34 32 38 46 46 39 41 54 60 62 62 68 70 79 75 64 72 88 99 100 100 92 89 84 92 99 98 95 95 99 99 99
31 40 33 31 31 33 38 36 42 44 48 45 36 36 42 42 39 32 32 44 59 63 69 74 80 86 89 78 73 93 98 99 100 97 89 84 90 98 98 98 100 98 100 100
34 38 34 30 46 42 42 52 62 51 60 38 39 35 45 42 39 27 23 27 51 68 73 72 75 70 84 96 97 91 98 100 98 100 88 84 94 98 99 98 99 99 95 94
36 45 47 35 42 44 59 73 68 56 68 70 60 46 40 39 30 25 23 23 42 66 74 72 70 45 63 76 98 98 99 100 100 100 87 86 100 98 98 99 99 100 97 95
44 53 54 58 47 38 38 30 59 66 64 70 63 35 39 26 20 19 22 23 28 74 72 72 60 62 61 70 92 100 100 100 100 100 95 89 99 97 97 99 100 98 99 96
51 44 48 60 52 38 38 33 32 55 51 48 42 34 21 20 20 19 18 21 26 70 72 74 72 63 69 76 91 100 100 100 100 100 100 90 95 92 96 98 98 94 96 98
50 46 39 36 37 40 40 36 35 36 31 35 25 25 20 18 18 19 22 25 26 58 70 74 77 63 74 87 90 100 100 100 100 100 100 95 90 91 95 97 97 94 94 97
56 46 51 52 42 37 44 42 45 42 39 39 35 36 25 23 24 25 27 32 55 70 84 94 89 69 73 90 91 100 100 100 100 100 100 97 94 96 96 97 98 95 95 99
60 55 48 44 36 42 51 39 38 36 34 36 36 26 21 27 25 27 36 56 79 87 95 98 84 76 76 84 93 97 100 100 100 100 100 100 97 98 96 98 100 100 99 99
63 66 61 58 54 60 30 31 32 35 32 33 35 33 32 34 34 39 78 87 98 99 97 92 88 86 88 85 80 92 99 100 100 100 100 100 100 98 96 100 100 98 100 99
71 66 71 71 59 40 34 26 26 33 34 46 58 66 73 75 56 64 93 96 95 96 93 90 90 95 93 91 83 89 100 100 100 100 100 99 99 99 99 100 100 100 100 100
73 76 71 77 74 73 33 51 47 53 49 80 89 95 88 77 74 59 100 98 93 97 98 97 93 98 99 93 96 98 100 86 100 100 100 100 100 100 98 99 100 99 100 100
95 96 92 84 91 70 44 61 51 46 66 86 99 100 87 91 87 99 100 99 100 100 99 100 100 99 100 99 99 100 100 91 98 100 100 100 100 100 99 100 100 100 99 100
96 95 94 93 94 84 82 63 72 80 90 100 99 95 93 97 100 100 100 100 99 99 100 100 99 98 100 100 100 99 99 100 96 100 100 100 100 100 100 100 100 100 100 100
95 97 94 92 66 73 86 84 90 99 86 95 99 98 99 100 99 99 100 99 100 99 99 100 100 100 99 100 100 99 99 100 100 100 100 100 100 100 100 100 100 100 100 100
81 93 99 98 93 94 95 94 95 96 92 100 100 100 100 100 99 98 100 100 99 99 99 99 100 100 99 99 100 100 100 98 98 100 96 100 100 99 100 100 100 100 100 100
96 97 96 94 100 98 100 100 100 100 100 99 95 97 100 98 98 99 100 100 100 100 99 100 100 100 100 99 99 99 99 100 100 100 100 100 100 100 100 99 99 97 100 98
92 97 98 98 99 99 99 100 100 100 99 100 99 99 99 98 99 99 99 100 100 100 100 95 98 96 96 99 99 100 100 100 100 100 100 99 100 99 100 100 100 100 99 100

GFSCGP_850_rhum_120.txt.gz
RH
19 17 18 13 14 12 12 11 12 10 12 15 14 14 12 11 11 9 10 11 12 14 15 17 28 38 46 44 39 23 24 27 55 71 94 98 70 68 73 82 80 64 75 98
21 22 10 8 11 15 15 14 12 10 12 18 15 12 9 8 10 9 10 12 14 15 18 28 34 41 48 56 38 40 51 59 78 79 96 92 80 72 74 80 68 61 76 79
18 14 15 19 22 20 18 17 15 14 11 12 13 12 10 9 10 12 15 15 18 23 32 36 43 47 52 56 69 71 71 82 78 96 95 98 80 75 82 73 59 77 94 90
16 14 15 19 26 23 26 15 15 15 19 18 11 18 14 13 13 14 13 18 27 36 40 42 44 47 51 67 76 79 80 54 69 98 96 98 82 75 68 52 49 96 98 97
21 21 20 22 18 17 22 17 24 26 21 18 15 22 12 13 16 14 17 31 39 46 48 40 41 45 48 67 59 88 92 46 91 99 100 100 100 96 83 49 65 98 99 98
27 22 18 19 15 16 16 22 29 28 24 32 21 20 13 14 13 15 28 40 43 40 40 40 41 45 50 60 76 57 72 88 97 99 100 100 100 100 89 87 97 96 98 84
24 25 21 22 22 27 22 31 38 43 39 33 12 16 14 12 21 29 37 39 41 42 44 42 46 50 58 68 69 81 72 98 98 99 100 99 99 98 87 98 98 98 95 84
28 39 31 22 29 29 32 32 33 43 33 24 18 20 22 35 36 37 37 41 44 44 44 44 50 59 64 75 79 77 90 98 98 98 100 98 87 76 90 96 100 90 89 86
31 27 28 30 34 26 36 49 27 31 27 27 20 35 41 34 28 26 27 31 38 42 46 45 46 58 64 73 88 88 86 100 100 99 100 100 91 96 100 96 97 96 88 98
29 39 24 34 45 41 36 28 34 33 43 31 17 24 25 35 23 14 11 12 21 31 38 43 46 53 53 63 78 92 99 96 99 96 100 100 94 98 99 95 89 93 93 97
22 35 29 26 55 78 78 54 51 41 30 33 29 21 23 30 26 19 15 14 14 22 33 43 50 50 50 62 75 80 97 99 99 98 100 100 100 100 98 96 95 91 91 100
23 33 42 31 28 38 51 93 96 81 50 35 31 29 25 32 28 16 16 14 17 17 34 44 49 54 56 67 76 75 90 98 100 98 98 100 98 100 100 96 98 98 98 95
40 34 38 27 37 52 58 37 45 63 70 52 47 31 29 31 22 14 14 13 16 16 31 40 47 57 68 76 81 76 83 96 100 99 98 100 99 100 100 100 98 96 98 93
44 35 39 39 61 46 44 52 37 35 51 46 36 25 22 17 13 12 13 13 18 18 27 38 52 61 70 73 65 71 80 97 100 100 100 100 100 98 99 100 96 98 96 96
37 38 26 24 24 26 37 41 33 34 28 34 28 21 15 13 13 13 15 16 19 22 27 46 59 69 79 86 68 65 73 96 100 100 99 100 100 98 99 99 97 98 91 93
34 43 33 33 26 28 34 27 26 25 26 23 21 23 14 12 12 16 18 17 23 31 49 66 74 79 88 94 78 68 69 83 100 100 100 100 95 96 100 97 93 95 92 94
56 46 42 44 25 25 34 26 24 22 19 22 28 18 13 15 16 19 21 22 37 53 75 78 82 87 92 96 84 82 63 86 100 100 100 99 98 99 99 94 93 95 94 95
63 56 51 55 39 57 22 16 21 24 21 16 17 17 17 20 26 35 36 34 58 82 81 82 86 91 95 99 98 84 69 81 98 100 100 100 98 95 100 95 99 97 99 100
43 57 62 64 44 29 24 22 23 23 22 17 20 29 35 53 61 45 55 83 86 88 90 91 94 99 99 98 92 97 80 76 97 100 100 100 98 93 99 98 99 100 97 100
67 63 61 53 69 60 34 31 30 32 42 54 63 75 88 95 86 78 93 97 98 100 100 99 100 99 100 100 98 100 98 96 100 100 100 100 99 98 98 98 100 100 100 99
87 95 89 70 87 55 36 41 41 58 67 67 89 99 100 98 97 100 100 100 99 99 99 99 99 100 100 98 100 99 99 100 99 94 100 100 100 98 99 100 100 100 100 100
92 92 90 81 87 83 54 46 75 68 73 90 99 100 98 100 100 100 98 100 99 99 99 99 100 100 99 99 99 99 99 100 96 92 100 100 99 100 100 100 100 100 100 100
90 96 94 92 79 75 84 86 77 75 92 99 100 100 100 99 98 96 98 100 100 99 98 99 98 99 99 99 99 99 99 100 100 100 100 100 100 100 100 100 100 100 100 100
79 88 100 96 96 93 99 99 99 100 100 100 100 98 98 98 100 100 99 99 99 100 100 99 100 96 95 100 100 99 100 100 100 99 99 100 100 100 100 100 100 100 100 100
95 94 88 96 90 94 98 99 99 99 100 99 97 97 98 97 100 100 99 100 99 99 99 100 98 99 96 96 99 99 100 100 100 100 99 100 100 99 100 100 100 100 100 100
84 97 94 93 99 99 98 99 99 98 98 99 100 96 98 98 98 100 99 100 100 98 99 99 96 98 99 95 98 100 100 100 100 100 100 99 99 100 99 98 100 99 100 95

GFSCGP_850_rhum_123.txt.gz
RH
18 15 15 12 12 12 12 12 13 11 8 10 11 12 12 10 10 12 11 10 9 8 9 11 14 23 32 36 42 40 42 39 40 48 70 83 98 96 99 99 97 99 100 95
14 21 14 10 10 11 12 14 14 11 8 9 12 13 10 8 9 10 10 8 8 9 12 14 22 30 37 41 46 53 53 55 57 55 69 79 98 99 99 98 90 87 95 99
16 12 11 14 14 11 10 14 15 14 10 10 12 14 12 8 6 7 8 8 8 12 14 22 29 32 42 47 65 64 56 57 67 68 78 95 100 96 98 99 85 73 80 87
19 12 13 13 16 15 20 14 14 15 18 21 13 17 10 8 7 8 8 9 13 18 26 28 28 31 38 50 72 72 69 65 72 83 87 95 98 99 99 99 88 80 84 83
20 19 18 20 17 14 19 15 17 18 22 20 15 15 12 10 12 11 11 13 18 28 31 28 30 33 36 52 61 81 83 78 86 95 89 95 99 98 96 97 95 82 79 94
14 14 18 21 16 16 17 22 19 22 27 33 23 18 14 13 13 11 12 21 28 30 32 31 33 36 37 52 64 64 85 92 98 99 96 97 93 93 92 99 100 97 90 96
10 12 14 15 23 19 18 26 48 44 50 52 20 18 15 12 9 10 17 29 30 32 34 33 34 39 43 54 65 68 62 88 100 97 98 98 96 92 90 100 96 95 90 90
21 18 19 28 24 26 23 26 44 57 50 35 21 26 18 11 22 25 27 30 33 33 35 34 34 39 43 50 59 78 67 68 98 98 98 100 99 96 97 98 99 98 95 82
26 21 14 26 33 33 30 46 27 40 35 41 28 22 28 26 28 27 25 26 33 35 34 31 34 38 42 40 49 77 85 72 92 97 95 98 99 97 95 97 95 97 100 92
24 32 17 15 35 30 63 35 61 65 84 61 29 25 32 32 27 23 19 17 18 20 24 27 32 36 38 42 53 70 87 86 94 99 98 93 100 98 98 97 92 98 100 99
21 22 18 15 27 46 61 67 38 47 59 46 39 26 19 30 22 17 14 14 14 13 13 21 31 37 41 48 57 70 81 97 99 98 98 96 99 100 99 97 93 98 100 95
22 41 31 21 20 34 45 57 98 94 50 42 35 34 32 24 18 19 17 15 14 15 12 14 29 35 43 54 62 67 82 89 90 100 98 97 98 100 98 99 96 99 100 93
41 37 51 29 15 40 57 56 58 72 89 87 64 58 35 33 23 16 12 12 12 14 14 12 21 30 40 52 65 73 80 90 89 98 99 98 99 100 99 96 97 89 89 91
39 42 40 41 28 68 43 67 48 44 62 58 78 75 71 70 25 11 11 11 12 12 14 14 18 31 40 57 73 82 86 94 75 93 99 98 99 100 100 98 91 95 93 94
38 47 41 29 20 17 19 24 34 46 47 50 31 34 52 23 13 12 11 12 13 13 16 22 29 42 57 67 72 80 86 93 83 89 98 98 98 100 100 96 90 94 92 92
32 74 42 36 24 21 19 18 22 27 30 30 27 24 15 13 11 10 11 13 16 16 20 30 47 56 68 74 78 83 95 73 81 79 97 98 98 100 100 95 98 91 97 96
53 51 45 48 28 29 28 18 16 18 18 25 26 20 13 12 11 13 18 21 23 20 49 52 61 69 75 79 85 92 98 79 80 81 85 99 98 99 99 93 99 98 98 93
52 50 50 60 44 58 23 13 14 18 17 16 15 12 11 14 26 33 34 30 30 51 61 64 71 75 78 84 97 81 89 90 86 80 77 99 100 99 96 95 100 100 94 92
29 42 55 70 59 47 29 39 29 30 27 16 18 18 23 44 57 39 69 70 75 80 77 79 78 82 86 97 98 90 97 98 98 88 76 98 100 100 95 99 100 97 96 96
69 78 77 57 86 65 53 29 28 29 46 45 54 57 61 72 93 76 99 95 93 92 91 89 88 92 100 98 100 98 99 99 100 97 77 97 100 100 100 100 99 100 100 99
72 75 92 68 84 48 71 43 38 65 80 70 78 97 98 98 98 100 100 100 98 94 96 93 93 99 98 100 100 98 98 100 100 98 92 91 100 99 93 98 100 100 100 100
92 88 74 85 84 90 93 56 96 91 67 91 97 99 100 100 100 96 95 100 95 95 92 87 85 93 100 100 100 99 99 100 99 100 89 85 94 100 99 97 100 100 100 100
89 96 94 96 93 97 100 99 99 100 99 100 99 100 88 88 88 92 96 98 94 89 84 82 83 85 94 99 97 99 100 99 99 100 92 98 100 100 100 100 100 100 100 100
90 89 97 96 86 95 99 98 99 99 99 100 99 91 84 88 90 91 91 90 88 86 86 86 88 89 92 100 96 100 100 98 99 100 98 100 100 100 100 100 100 100 100 100
84 84 84 96 83 73 87 98 99 99 98 98 99 91 88 86 89 89 94 96 96 96 96 98 99 100 100 100 98 100 100 100 98 100 100 100 100 100 100 100 100 100 100 100
66 91 91 88 91 93 98 97 91 99 99 96 93 90 89 90 93 98 100 100 100 100 99 99 100 100 100 100 100 95 100 100 99 98 99 98 99 99 98 100 100 100 100 100